<?xml version="1.0" encoding="UTF-8" standalone="no" ?>
<gpx xmlns="http://www.topografix.com/GPX/1/1" xmlns:xsi="http://www.w3.org/2001/XMLSchema-instance" xsi:schemaLocation="http://www.topografix.com/GPX/1/1 http://www.topografix.com/GPX/1/1/gpx.xsd" version="1.1" creator="VisuGPX - https://www.visugpx.com">
  <metadata>
    <name>De Colmars Les Alpes aux Lacs de Lignin</name>
    <desc><![CDATA[Préparartion Trans Verdon 2020
]]></desc>
  </metadata>
  <trk>
    <name><![CDATA[Tronçon 03 – De Colmars Les Alpes aux Lacs de Lignin]]></name>
    <trkseg>
      <trkpt lat="44.18353" lon="6.63011">
        <ele>1265</ele>
        <time>2020-03-21T14:48:21.882Z</time>
      </trkpt>
      <trkpt lat="44.18351" lon="6.63022">
        <ele>1265</ele>
        <time>2020-03-21T14:48:22.882Z</time>
      </trkpt>
      <trkpt lat="44.18351" lon="6.63026">
        <ele>1266</ele>
        <time>2020-03-21T14:48:23.882Z</time>
      </trkpt>
      <trkpt lat="44.18347" lon="6.63041">
        <ele>1267</ele>
        <time>2020-03-21T14:48:24.882Z</time>
      </trkpt>
      <trkpt lat="44.18343" lon="6.63064">
        <ele>1268</ele>
        <time>2020-03-21T14:48:25.882Z</time>
      </trkpt>
      <trkpt lat="44.18341" lon="6.63078">
        <ele>1269</ele>
        <time>2020-03-21T14:48:26.882Z</time>
      </trkpt>
      <trkpt lat="44.18338" lon="6.63087">
        <ele>1270</ele>
        <time>2020-03-21T14:48:27.882Z</time>
      </trkpt>
      <trkpt lat="44.18331" lon="6.631">
        <ele>1272</ele>
        <time>2020-03-21T14:48:28.882Z</time>
      </trkpt>
      <trkpt lat="44.18325" lon="6.6311">
        <ele>1273</ele>
        <time>2020-03-21T14:48:29.882Z</time>
      </trkpt>
      <trkpt lat="44.18313" lon="6.63121">
        <ele>1273</ele>
        <time>2020-03-21T14:48:30.882Z</time>
      </trkpt>
      <trkpt lat="44.18306" lon="6.63128">
        <ele>1274</ele>
        <time>2020-03-21T14:48:31.882Z</time>
      </trkpt>
      <trkpt lat="44.18297" lon="6.63131">
        <ele>1273</ele>
        <time>2020-03-21T14:48:32.882Z</time>
      </trkpt>
      <trkpt lat="44.18286" lon="6.6314">
        <ele>1274</ele>
        <time>2020-03-21T14:48:33.882Z</time>
      </trkpt>
      <trkpt lat="44.18278" lon="6.63147">
        <ele>1275</ele>
        <time>2020-03-21T14:48:34.882Z</time>
      </trkpt>
      <trkpt lat="44.1827" lon="6.63152">
        <ele>1275</ele>
        <time>2020-03-21T14:48:35.882Z</time>
      </trkpt>
      <trkpt lat="44.18263" lon="6.63153">
        <ele>1275</ele>
        <time>2020-03-21T14:48:36.882Z</time>
      </trkpt>
      <trkpt lat="44.18251" lon="6.6316">
        <ele>1276</ele>
        <time>2020-03-21T14:48:37.882Z</time>
      </trkpt>
      <trkpt lat="44.18239" lon="6.63167">
        <ele>1277</ele>
        <time>2020-03-21T14:48:38.882Z</time>
      </trkpt>
      <trkpt lat="44.18226" lon="6.63173">
        <ele>1279</ele>
        <time>2020-03-21T14:48:39.882Z</time>
      </trkpt>
      <trkpt lat="44.18212" lon="6.63177">
        <ele>1280</ele>
        <time>2020-03-21T14:48:40.882Z</time>
      </trkpt>
      <trkpt lat="44.18199" lon="6.63179">
        <ele>1280</ele>
        <time>2020-03-21T14:48:41.882Z</time>
      </trkpt>
      <trkpt lat="44.18187" lon="6.63179">
        <ele>1280</ele>
        <time>2020-03-21T14:48:42.882Z</time>
      </trkpt>
      <trkpt lat="44.18181" lon="6.6318">
        <ele>1280</ele>
        <time>2020-03-21T14:48:43.882Z</time>
      </trkpt>
      <trkpt lat="44.18171" lon="6.63179">
        <ele>1280</ele>
        <time>2020-03-21T14:48:44.882Z</time>
      </trkpt>
      <trkpt lat="44.18157" lon="6.6318">
        <ele>1280</ele>
        <time>2020-03-21T14:48:45.882Z</time>
      </trkpt>
      <trkpt lat="44.18144" lon="6.63181">
        <ele>1280</ele>
        <time>2020-03-21T14:48:46.882Z</time>
      </trkpt>
      <trkpt lat="44.18133" lon="6.63182">
        <ele>1280</ele>
        <time>2020-03-21T14:48:47.882Z</time>
      </trkpt>
      <trkpt lat="44.18122" lon="6.63181">
        <ele>1280</ele>
        <time>2020-03-21T14:48:48.882Z</time>
      </trkpt>
      <trkpt lat="44.18113" lon="6.63181">
        <ele>1280</ele>
        <time>2020-03-21T14:48:49.882Z</time>
      </trkpt>
      <trkpt lat="44.18101" lon="6.63182">
        <ele>1280</ele>
        <time>2020-03-21T14:48:50.882Z</time>
      </trkpt>
      <trkpt lat="44.18098" lon="6.63184">
        <ele>1281</ele>
        <time>2020-03-21T14:48:51.882Z</time>
      </trkpt>
      <trkpt lat="44.18089" lon="6.63188">
        <ele>1282</ele>
        <time>2020-03-21T14:48:52.882Z</time>
      </trkpt>
      <trkpt lat="44.18081" lon="6.63192">
        <ele>1283</ele>
        <time>2020-03-21T14:48:53.882Z</time>
      </trkpt>
      <trkpt lat="44.18071" lon="6.63194">
        <ele>1284</ele>
        <time>2020-03-21T14:48:54.882Z</time>
      </trkpt>
      <trkpt lat="44.18066" lon="6.63199">
        <ele>1285</ele>
        <time>2020-03-21T14:48:55.882Z</time>
      </trkpt>
      <trkpt lat="44.18056" lon="6.63211">
        <ele>1289</ele>
        <time>2020-03-21T14:48:56.882Z</time>
      </trkpt>
      <trkpt lat="44.18045" lon="6.63219">
        <ele>1291</ele>
        <time>2020-03-21T14:48:57.882Z</time>
      </trkpt>
      <trkpt lat="44.18037" lon="6.63226">
        <ele>1293</ele>
        <time>2020-03-21T14:48:58.882Z</time>
      </trkpt>
      <trkpt lat="44.18026" lon="6.63232">
        <ele>1294</ele>
        <time>2020-03-21T14:48:59.882Z</time>
      </trkpt>
      <trkpt lat="44.18017" lon="6.63236">
        <ele>1295</ele>
        <time>2020-03-21T14:49:00.882Z</time>
      </trkpt>
      <trkpt lat="44.18007" lon="6.63239">
        <ele>1296</ele>
        <time>2020-03-21T14:49:01.882Z</time>
      </trkpt>
      <trkpt lat="44.18" lon="6.6324">
        <ele>1296</ele>
        <time>2020-03-21T14:49:02.882Z</time>
      </trkpt>
      <trkpt lat="44.17989" lon="6.6324">
        <ele>1296</ele>
        <time>2020-03-21T14:49:03.882Z</time>
      </trkpt>
      <trkpt lat="44.17977" lon="6.63238">
        <ele>1295</ele>
        <time>2020-03-21T14:49:04.882Z</time>
      </trkpt>
      <trkpt lat="44.17972" lon="6.63246">
        <ele>1297</ele>
        <time>2020-03-21T14:49:05.882Z</time>
      </trkpt>
      <trkpt lat="44.17972" lon="6.63248">
        <ele>1298</ele>
        <time>2020-03-21T14:49:06.882Z</time>
      </trkpt>
      <trkpt lat="44.17979" lon="6.63254">
        <ele>1300</ele>
        <time>2020-03-21T14:49:07.882Z</time>
      </trkpt>
      <trkpt lat="44.17994" lon="6.63258">
        <ele>1302</ele>
        <time>2020-03-21T14:49:08.882Z</time>
      </trkpt>
      <trkpt lat="44.18003" lon="6.63262">
        <ele>1304</ele>
        <time>2020-03-21T14:49:09.882Z</time>
      </trkpt>
      <trkpt lat="44.18014" lon="6.63265">
        <ele>1305</ele>
        <time>2020-03-21T14:49:10.882Z</time>
      </trkpt>
      <trkpt lat="44.18016" lon="6.63265">
        <ele>1306</ele>
        <time>2020-03-21T14:49:11.882Z</time>
      </trkpt>
      <trkpt lat="44.18025" lon="6.63268">
        <ele>1307</ele>
        <time>2020-03-21T14:49:12.882Z</time>
      </trkpt>
      <trkpt lat="44.1804" lon="6.63265">
        <ele>1306</ele>
        <time>2020-03-21T14:49:13.882Z</time>
      </trkpt>
      <trkpt lat="44.18051" lon="6.63258">
        <ele>1303</ele>
        <time>2020-03-21T14:49:14.882Z</time>
      </trkpt>
      <trkpt lat="44.18063" lon="6.63254">
        <ele>1302</ele>
        <time>2020-03-21T14:49:15.882Z</time>
      </trkpt>
      <trkpt lat="44.18081" lon="6.63249">
        <ele>1301</ele>
        <time>2020-03-21T14:49:16.882Z</time>
      </trkpt>
      <trkpt lat="44.18094" lon="6.63241">
        <ele>1299</ele>
        <time>2020-03-21T14:49:17.882Z</time>
      </trkpt>
      <trkpt lat="44.18108" lon="6.63241">
        <ele>1300</ele>
        <time>2020-03-21T14:49:18.882Z</time>
      </trkpt>
      <trkpt lat="44.18117" lon="6.63242">
        <ele>1301</ele>
        <time>2020-03-21T14:49:19.882Z</time>
      </trkpt>
      <trkpt lat="44.18125" lon="6.63246">
        <ele>1303</ele>
        <time>2020-03-21T14:49:20.882Z</time>
      </trkpt>
      <trkpt lat="44.18134" lon="6.63247">
        <ele>1304</ele>
        <time>2020-03-21T14:49:21.882Z</time>
      </trkpt>
      <trkpt lat="44.1814" lon="6.63258">
        <ele>1309</ele>
        <time>2020-03-21T14:49:22.882Z</time>
      </trkpt>
      <trkpt lat="44.18135" lon="6.63256">
        <ele>1308</ele>
        <time>2020-03-21T14:49:23.882Z</time>
      </trkpt>
      <trkpt lat="44.18124" lon="6.63253">
        <ele>1306</ele>
        <time>2020-03-21T14:49:24.882Z</time>
      </trkpt>
      <trkpt lat="44.18116" lon="6.63253">
        <ele>1305</ele>
        <time>2020-03-21T14:49:25.882Z</time>
      </trkpt>
      <trkpt lat="44.18111" lon="6.63254">
        <ele>1305</ele>
        <time>2020-03-21T14:49:26.882Z</time>
      </trkpt>
      <trkpt lat="44.18105" lon="6.63259">
        <ele>1307</ele>
        <time>2020-03-21T14:49:27.882Z</time>
      </trkpt>
      <trkpt lat="44.18111" lon="6.63266">
        <ele>1310</ele>
        <time>2020-03-21T14:49:28.882Z</time>
      </trkpt>
      <trkpt lat="44.18127" lon="6.63264">
        <ele>1311</ele>
        <time>2020-03-21T14:49:29.882Z</time>
      </trkpt>
      <trkpt lat="44.18129" lon="6.63263">
        <ele>1311</ele>
        <time>2020-03-21T14:49:30.882Z</time>
      </trkpt>
      <trkpt lat="44.1814" lon="6.63265">
        <ele>1312</ele>
        <time>2020-03-21T14:49:31.882Z</time>
      </trkpt>
      <trkpt lat="44.18152" lon="6.6327">
        <ele>1316</ele>
        <time>2020-03-21T14:49:32.882Z</time>
      </trkpt>
      <trkpt lat="44.18163" lon="6.63273">
        <ele>1318</ele>
        <time>2020-03-21T14:49:33.882Z</time>
      </trkpt>
      <trkpt lat="44.18174" lon="6.63274">
        <ele>1319</ele>
        <time>2020-03-21T14:49:34.882Z</time>
      </trkpt>
      <trkpt lat="44.18182" lon="6.63276">
        <ele>1319</ele>
        <time>2020-03-21T14:49:35.882Z</time>
      </trkpt>
      <trkpt lat="44.18194" lon="6.63277">
        <ele>1319</ele>
        <time>2020-03-21T14:49:36.882Z</time>
      </trkpt>
      <trkpt lat="44.18202" lon="6.63278">
        <ele>1319</ele>
        <time>2020-03-21T14:49:37.882Z</time>
      </trkpt>
      <trkpt lat="44.18212" lon="6.6328">
        <ele>1319</ele>
        <time>2020-03-21T14:49:38.882Z</time>
      </trkpt>
      <trkpt lat="44.18224" lon="6.63285">
        <ele>1321</ele>
        <time>2020-03-21T14:49:39.882Z</time>
      </trkpt>
      <trkpt lat="44.18233" lon="6.63288">
        <ele>1322</ele>
        <time>2020-03-21T14:49:40.882Z</time>
      </trkpt>
      <trkpt lat="44.18245" lon="6.63292">
        <ele>1323</ele>
        <time>2020-03-21T14:49:41.882Z</time>
      </trkpt>
      <trkpt lat="44.18256" lon="6.63297">
        <ele>1325</ele>
        <time>2020-03-21T14:49:42.882Z</time>
      </trkpt>
      <trkpt lat="44.18269" lon="6.63304">
        <ele>1329</ele>
        <time>2020-03-21T14:49:43.882Z</time>
      </trkpt>
      <trkpt lat="44.1828" lon="6.63307">
        <ele>1330</ele>
        <time>2020-03-21T14:49:44.882Z</time>
      </trkpt>
      <trkpt lat="44.18289" lon="6.63305">
        <ele>1330</ele>
        <time>2020-03-21T14:49:45.882Z</time>
      </trkpt>
      <trkpt lat="44.18298" lon="6.63303">
        <ele>1329</ele>
        <time>2020-03-21T14:49:46.882Z</time>
      </trkpt>
      <trkpt lat="44.18307" lon="6.63302">
        <ele>1329</ele>
        <time>2020-03-21T14:49:47.882Z</time>
      </trkpt>
      <trkpt lat="44.18318" lon="6.63303">
        <ele>1329</ele>
        <time>2020-03-21T14:49:48.882Z</time>
      </trkpt>
      <trkpt lat="44.18331" lon="6.63305">
        <ele>1330</ele>
        <time>2020-03-21T14:49:49.882Z</time>
      </trkpt>
      <trkpt lat="44.18342" lon="6.63308">
        <ele>1331</ele>
        <time>2020-03-21T14:49:50.882Z</time>
      </trkpt>
      <trkpt lat="44.18351" lon="6.63309">
        <ele>1332</ele>
        <time>2020-03-21T14:49:51.882Z</time>
      </trkpt>
      <trkpt lat="44.18361" lon="6.6331">
        <ele>1332</ele>
        <time>2020-03-21T14:49:52.882Z</time>
      </trkpt>
      <trkpt lat="44.1837" lon="6.63316">
        <ele>1334</ele>
        <time>2020-03-21T14:49:53.882Z</time>
      </trkpt>
      <trkpt lat="44.18385" lon="6.63327">
        <ele>1338</ele>
        <time>2020-03-21T14:49:54.882Z</time>
      </trkpt>
      <trkpt lat="44.18396" lon="6.63337">
        <ele>1342</ele>
        <time>2020-03-21T14:49:55.882Z</time>
      </trkpt>
      <trkpt lat="44.18411" lon="6.63349">
        <ele>1346</ele>
        <time>2020-03-21T14:49:56.882Z</time>
      </trkpt>
      <trkpt lat="44.18423" lon="6.63355">
        <ele>1348</ele>
        <time>2020-03-21T14:49:57.882Z</time>
      </trkpt>
      <trkpt lat="44.18438" lon="6.63358">
        <ele>1348</ele>
        <time>2020-03-21T14:49:58.882Z</time>
      </trkpt>
      <trkpt lat="44.18454" lon="6.63355">
        <ele>1346</ele>
        <time>2020-03-21T14:49:59.882Z</time>
      </trkpt>
      <trkpt lat="44.18466" lon="6.63353">
        <ele>1344</ele>
        <time>2020-03-21T14:50:00.882Z</time>
      </trkpt>
      <trkpt lat="44.18479" lon="6.6335">
        <ele>1343</ele>
        <time>2020-03-21T14:50:01.882Z</time>
      </trkpt>
      <trkpt lat="44.1848" lon="6.63349">
        <ele>1342</ele>
        <time>2020-03-21T14:50:02.882Z</time>
      </trkpt>
      <trkpt lat="44.18481" lon="6.63344">
        <ele>1340</ele>
        <time>2020-03-21T14:50:03.882Z</time>
      </trkpt>
      <trkpt lat="44.18486" lon="6.63343">
        <ele>1339</ele>
        <time>2020-03-21T14:50:04.882Z</time>
      </trkpt>
      <trkpt lat="44.18493" lon="6.63343">
        <ele>1339</ele>
        <time>2020-03-21T14:50:05.882Z</time>
      </trkpt>
      <trkpt lat="44.18497" lon="6.63343">
        <ele>1339</ele>
        <time>2020-03-21T14:50:06.882Z</time>
      </trkpt>
      <trkpt lat="44.18508" lon="6.63347">
        <ele>1340</ele>
        <time>2020-03-21T14:50:07.882Z</time>
      </trkpt>
      <trkpt lat="44.18517" lon="6.6335">
        <ele>1341</ele>
        <time>2020-03-21T14:50:08.882Z</time>
      </trkpt>
      <trkpt lat="44.18528" lon="6.63356">
        <ele>1342</ele>
        <time>2020-03-21T14:50:09.882Z</time>
      </trkpt>
      <trkpt lat="44.1854" lon="6.63363">
        <ele>1344</ele>
        <time>2020-03-21T14:50:10.882Z</time>
      </trkpt>
      <trkpt lat="44.18553" lon="6.63368">
        <ele>1345</ele>
        <time>2020-03-21T14:50:11.882Z</time>
      </trkpt>
      <trkpt lat="44.18558" lon="6.6337">
        <ele>1346</ele>
        <time>2020-03-21T14:50:12.882Z</time>
      </trkpt>
      <trkpt lat="44.18569" lon="6.63377">
        <ele>1348</ele>
        <time>2020-03-21T14:50:13.882Z</time>
      </trkpt>
      <trkpt lat="44.18579" lon="6.63382">
        <ele>1349</ele>
        <time>2020-03-21T14:50:14.882Z</time>
      </trkpt>
      <trkpt lat="44.18586" lon="6.63384">
        <ele>1349</ele>
        <time>2020-03-21T14:50:15.882Z</time>
      </trkpt>
      <trkpt lat="44.18586" lon="6.63384">
        <ele>1349</ele>
        <time>2020-03-21T14:50:16.882Z</time>
      </trkpt>
      <trkpt lat="44.18582" lon="6.63387">
        <ele>1351</ele>
        <time>2020-03-21T14:50:17.882Z</time>
      </trkpt>
      <trkpt lat="44.1858" lon="6.63387">
        <ele>1351</ele>
        <time>2020-03-21T14:50:18.882Z</time>
      </trkpt>
      <trkpt lat="44.18565" lon="6.63383">
        <ele>1350</ele>
        <time>2020-03-21T14:50:19.882Z</time>
      </trkpt>
      <trkpt lat="44.18557" lon="6.6338">
        <ele>1350</ele>
        <time>2020-03-21T14:50:20.882Z</time>
      </trkpt>
      <trkpt lat="44.18549" lon="6.6338">
        <ele>1350</ele>
        <time>2020-03-21T14:50:21.882Z</time>
      </trkpt>
      <trkpt lat="44.18536" lon="6.6338">
        <ele>1351</ele>
        <time>2020-03-21T14:50:22.882Z</time>
      </trkpt>
      <trkpt lat="44.18527" lon="6.63382">
        <ele>1352</ele>
        <time>2020-03-21T14:50:23.882Z</time>
      </trkpt>
      <trkpt lat="44.18517" lon="6.63383">
        <ele>1353</ele>
        <time>2020-03-21T14:50:24.882Z</time>
      </trkpt>
      <trkpt lat="44.18511" lon="6.63384">
        <ele>1354</ele>
        <time>2020-03-21T14:50:25.882Z</time>
      </trkpt>
      <trkpt lat="44.18503" lon="6.63388">
        <ele>1356</ele>
        <time>2020-03-21T14:50:26.882Z</time>
      </trkpt>
      <trkpt lat="44.18493" lon="6.63394">
        <ele>1359</ele>
        <time>2020-03-21T14:50:27.882Z</time>
      </trkpt>
      <trkpt lat="44.18486" lon="6.63399">
        <ele>1361</ele>
        <time>2020-03-21T14:50:28.882Z</time>
      </trkpt>
      <trkpt lat="44.18479" lon="6.63402">
        <ele>1362</ele>
        <time>2020-03-21T14:50:29.882Z</time>
      </trkpt>
      <trkpt lat="44.18469" lon="6.6341">
        <ele>1366</ele>
        <time>2020-03-21T14:50:30.882Z</time>
      </trkpt>
      <trkpt lat="44.18456" lon="6.63419">
        <ele>1370</ele>
        <time>2020-03-21T14:50:31.882Z</time>
      </trkpt>
      <trkpt lat="44.18443" lon="6.63426">
        <ele>1373</ele>
        <time>2020-03-21T14:50:32.882Z</time>
      </trkpt>
      <trkpt lat="44.18432" lon="6.63432">
        <ele>1375</ele>
        <time>2020-03-21T14:50:33.882Z</time>
      </trkpt>
      <trkpt lat="44.18422" lon="6.63439">
        <ele>1378</ele>
        <time>2020-03-21T14:50:34.882Z</time>
      </trkpt>
      <trkpt lat="44.18413" lon="6.63444">
        <ele>1380</ele>
        <time>2020-03-21T14:50:35.882Z</time>
      </trkpt>
      <trkpt lat="44.18404" lon="6.63448">
        <ele>1383</ele>
        <time>2020-03-21T14:50:36.882Z</time>
      </trkpt>
      <trkpt lat="44.18395" lon="6.63451">
        <ele>1385</ele>
        <time>2020-03-21T14:50:37.882Z</time>
      </trkpt>
      <trkpt lat="44.18386" lon="6.63453">
        <ele>1386</ele>
        <time>2020-03-21T14:50:38.882Z</time>
      </trkpt>
      <trkpt lat="44.18382" lon="6.63452">
        <ele>1386</ele>
        <time>2020-03-21T14:50:39.882Z</time>
      </trkpt>
      <trkpt lat="44.18372" lon="6.63451">
        <ele>1387</ele>
        <time>2020-03-21T14:50:40.882Z</time>
      </trkpt>
      <trkpt lat="44.18365" lon="6.6345">
        <ele>1387</ele>
        <time>2020-03-21T14:50:41.882Z</time>
      </trkpt>
      <trkpt lat="44.18357" lon="6.63447">
        <ele>1387</ele>
        <time>2020-03-21T14:50:42.882Z</time>
      </trkpt>
      <trkpt lat="44.18347" lon="6.63444">
        <ele>1387</ele>
        <time>2020-03-21T14:50:43.882Z</time>
      </trkpt>
      <trkpt lat="44.18337" lon="6.63441">
        <ele>1387</ele>
        <time>2020-03-21T14:50:44.882Z</time>
      </trkpt>
      <trkpt lat="44.1833" lon="6.6344">
        <ele>1387</ele>
        <time>2020-03-21T14:50:45.882Z</time>
      </trkpt>
      <trkpt lat="44.1832" lon="6.63437">
        <ele>1388</ele>
        <time>2020-03-21T14:50:46.882Z</time>
      </trkpt>
      <trkpt lat="44.18311" lon="6.63435">
        <ele>1388</ele>
        <time>2020-03-21T14:50:47.882Z</time>
      </trkpt>
      <trkpt lat="44.18303" lon="6.63433">
        <ele>1388</ele>
        <time>2020-03-21T14:50:48.882Z</time>
      </trkpt>
      <trkpt lat="44.18293" lon="6.6343">
        <ele>1388</ele>
        <time>2020-03-21T14:50:49.882Z</time>
      </trkpt>
      <trkpt lat="44.18279" lon="6.63424">
        <ele>1388</ele>
        <time>2020-03-21T14:50:50.882Z</time>
      </trkpt>
      <trkpt lat="44.18272" lon="6.63421">
        <ele>1388</ele>
        <time>2020-03-21T14:50:51.882Z</time>
      </trkpt>
      <trkpt lat="44.18261" lon="6.63415">
        <ele>1387</ele>
        <time>2020-03-21T14:50:52.882Z</time>
      </trkpt>
      <trkpt lat="44.18255" lon="6.63414">
        <ele>1387</ele>
        <time>2020-03-21T14:50:53.882Z</time>
      </trkpt>
      <trkpt lat="44.18245" lon="6.63413">
        <ele>1387</ele>
        <time>2020-03-21T14:50:54.882Z</time>
      </trkpt>
      <trkpt lat="44.18231" lon="6.6341">
        <ele>1385</ele>
        <time>2020-03-21T14:50:55.882Z</time>
      </trkpt>
      <trkpt lat="44.18221" lon="6.63407">
        <ele>1384</ele>
        <time>2020-03-21T14:50:56.882Z</time>
      </trkpt>
      <trkpt lat="44.18209" lon="6.63407">
        <ele>1384</ele>
        <time>2020-03-21T14:50:57.882Z</time>
      </trkpt>
      <trkpt lat="44.18201" lon="6.63407">
        <ele>1384</ele>
        <time>2020-03-21T14:50:58.882Z</time>
      </trkpt>
      <trkpt lat="44.18196" lon="6.63408">
        <ele>1384</ele>
        <time>2020-03-21T14:50:59.882Z</time>
      </trkpt>
      <trkpt lat="44.18185" lon="6.63415">
        <ele>1388</ele>
        <time>2020-03-21T14:51:00.882Z</time>
      </trkpt>
      <trkpt lat="44.18182" lon="6.63417">
        <ele>1389</ele>
        <time>2020-03-21T14:51:01.882Z</time>
      </trkpt>
      <trkpt lat="44.1817" lon="6.63424">
        <ele>1392</ele>
        <time>2020-03-21T14:51:02.882Z</time>
      </trkpt>
      <trkpt lat="44.18158" lon="6.63435">
        <ele>1394</ele>
        <time>2020-03-21T14:51:03.882Z</time>
      </trkpt>
      <trkpt lat="44.18148" lon="6.63443">
        <ele>1395</ele>
        <time>2020-03-21T14:51:04.882Z</time>
      </trkpt>
      <trkpt lat="44.18146" lon="6.63444">
        <ele>1395</ele>
        <time>2020-03-21T14:51:05.882Z</time>
      </trkpt>
      <trkpt lat="44.18141" lon="6.63447">
        <ele>1396</ele>
        <time>2020-03-21T14:51:06.882Z</time>
      </trkpt>
      <trkpt lat="44.1814" lon="6.63456">
        <ele>1399</ele>
        <time>2020-03-21T14:51:07.882Z</time>
      </trkpt>
      <trkpt lat="44.18145" lon="6.63457">
        <ele>1400</ele>
        <time>2020-03-21T14:51:08.882Z</time>
      </trkpt>
      <trkpt lat="44.18158" lon="6.63447">
        <ele>1399</ele>
        <time>2020-03-21T14:51:09.882Z</time>
      </trkpt>
      <trkpt lat="44.18169" lon="6.63445">
        <ele>1399</ele>
        <time>2020-03-21T14:51:10.882Z</time>
      </trkpt>
      <trkpt lat="44.18179" lon="6.63445">
        <ele>1399</ele>
        <time>2020-03-21T14:51:11.882Z</time>
      </trkpt>
      <trkpt lat="44.18191" lon="6.6345">
        <ele>1401</ele>
        <time>2020-03-21T14:51:12.882Z</time>
      </trkpt>
      <trkpt lat="44.182" lon="6.63456">
        <ele>1403</ele>
        <time>2020-03-21T14:51:13.882Z</time>
      </trkpt>
      <trkpt lat="44.18209" lon="6.63466">
        <ele>1406</ele>
        <time>2020-03-21T14:51:14.882Z</time>
      </trkpt>
      <trkpt lat="44.18215" lon="6.63473">
        <ele>1408</ele>
        <time>2020-03-21T14:51:15.882Z</time>
      </trkpt>
      <trkpt lat="44.18228" lon="6.63484">
        <ele>1412</ele>
        <time>2020-03-21T14:51:16.882Z</time>
      </trkpt>
      <trkpt lat="44.18239" lon="6.63486">
        <ele>1413</ele>
        <time>2020-03-21T14:51:17.882Z</time>
      </trkpt>
      <trkpt lat="44.18255" lon="6.63486">
        <ele>1412</ele>
        <time>2020-03-21T14:51:18.882Z</time>
      </trkpt>
      <trkpt lat="44.18266" lon="6.63487">
        <ele>1411</ele>
        <time>2020-03-21T14:51:19.882Z</time>
      </trkpt>
      <trkpt lat="44.18277" lon="6.63491">
        <ele>1411</ele>
        <time>2020-03-21T14:51:20.882Z</time>
      </trkpt>
      <trkpt lat="44.18288" lon="6.63497">
        <ele>1411</ele>
        <time>2020-03-21T14:51:21.882Z</time>
      </trkpt>
      <trkpt lat="44.18298" lon="6.63504">
        <ele>1412</ele>
        <time>2020-03-21T14:51:22.882Z</time>
      </trkpt>
      <trkpt lat="44.18312" lon="6.63515">
        <ele>1414</ele>
        <time>2020-03-21T14:51:23.882Z</time>
      </trkpt>
      <trkpt lat="44.18323" lon="6.63529">
        <ele>1417</ele>
        <time>2020-03-21T14:51:24.882Z</time>
      </trkpt>
      <trkpt lat="44.18331" lon="6.63542">
        <ele>1420</ele>
        <time>2020-03-21T14:51:25.882Z</time>
      </trkpt>
      <trkpt lat="44.18338" lon="6.6355">
        <ele>1422</ele>
        <time>2020-03-21T14:51:26.882Z</time>
      </trkpt>
      <trkpt lat="44.18349" lon="6.63559">
        <ele>1424</ele>
        <time>2020-03-21T14:51:27.882Z</time>
      </trkpt>
      <trkpt lat="44.18364" lon="6.63566">
        <ele>1425</ele>
        <time>2020-03-21T14:51:28.882Z</time>
      </trkpt>
      <trkpt lat="44.18376" lon="6.63571">
        <ele>1426</ele>
        <time>2020-03-21T14:51:29.882Z</time>
      </trkpt>
      <trkpt lat="44.18386" lon="6.63574">
        <ele>1426</ele>
        <time>2020-03-21T14:51:30.882Z</time>
      </trkpt>
      <trkpt lat="44.18398" lon="6.63581">
        <ele>1427</ele>
        <time>2020-03-21T14:51:31.882Z</time>
      </trkpt>
      <trkpt lat="44.1841" lon="6.63587">
        <ele>1428</ele>
        <time>2020-03-21T14:51:32.882Z</time>
      </trkpt>
      <trkpt lat="44.18425" lon="6.63592">
        <ele>1429</ele>
        <time>2020-03-21T14:51:33.882Z</time>
      </trkpt>
      <trkpt lat="44.18437" lon="6.63595">
        <ele>1429</ele>
        <time>2020-03-21T14:51:34.882Z</time>
      </trkpt>
      <trkpt lat="44.18451" lon="6.63597">
        <ele>1430</ele>
        <time>2020-03-21T14:51:35.882Z</time>
      </trkpt>
      <trkpt lat="44.18461" lon="6.636">
        <ele>1430</ele>
        <time>2020-03-21T14:51:36.882Z</time>
      </trkpt>
      <trkpt lat="44.18479" lon="6.63605">
        <ele>1431</ele>
        <time>2020-03-21T14:51:37.882Z</time>
      </trkpt>
      <trkpt lat="44.18494" lon="6.63611">
        <ele>1432</ele>
        <time>2020-03-21T14:51:38.882Z</time>
      </trkpt>
      <trkpt lat="44.18507" lon="6.63618">
        <ele>1433</ele>
        <time>2020-03-21T14:51:39.882Z</time>
      </trkpt>
      <trkpt lat="44.18518" lon="6.63633">
        <ele>1436</ele>
        <time>2020-03-21T14:51:40.882Z</time>
      </trkpt>
      <trkpt lat="44.18528" lon="6.63648">
        <ele>1438</ele>
        <time>2020-03-21T14:51:41.882Z</time>
      </trkpt>
      <trkpt lat="44.18531" lon="6.63657">
        <ele>1440</ele>
        <time>2020-03-21T14:51:42.882Z</time>
      </trkpt>
      <trkpt lat="44.18525" lon="6.6366">
        <ele>1442</ele>
        <time>2020-03-21T14:51:43.882Z</time>
      </trkpt>
      <trkpt lat="44.18522" lon="6.63657">
        <ele>1442</ele>
        <time>2020-03-21T14:51:44.882Z</time>
      </trkpt>
      <trkpt lat="44.18509" lon="6.6365">
        <ele>1442</ele>
        <time>2020-03-21T14:51:45.882Z</time>
      </trkpt>
      <trkpt lat="44.18495" lon="6.6365">
        <ele>1444</ele>
        <time>2020-03-21T14:51:46.882Z</time>
      </trkpt>
      <trkpt lat="44.18482" lon="6.63649">
        <ele>1445</ele>
        <time>2020-03-21T14:51:47.882Z</time>
      </trkpt>
      <trkpt lat="44.18469" lon="6.63647">
        <ele>1445</ele>
        <time>2020-03-21T14:51:48.882Z</time>
      </trkpt>
      <trkpt lat="44.18453" lon="6.63652">
        <ele>1447</ele>
        <time>2020-03-21T14:51:49.882Z</time>
      </trkpt>
      <trkpt lat="44.18437" lon="6.6366">
        <ele>1450</ele>
        <time>2020-03-21T14:51:50.882Z</time>
      </trkpt>
      <trkpt lat="44.18425" lon="6.63661">
        <ele>1452</ele>
        <time>2020-03-21T14:51:51.882Z</time>
      </trkpt>
      <trkpt lat="44.18409" lon="6.63657">
        <ele>1451</ele>
        <time>2020-03-21T14:51:52.882Z</time>
      </trkpt>
      <trkpt lat="44.18399" lon="6.63651">
        <ele>1451</ele>
        <time>2020-03-21T14:51:53.882Z</time>
      </trkpt>
      <trkpt lat="44.18382" lon="6.63646">
        <ele>1451</ele>
        <time>2020-03-21T14:51:54.882Z</time>
      </trkpt>
      <trkpt lat="44.18368" lon="6.63645">
        <ele>1452</ele>
        <time>2020-03-21T14:51:55.882Z</time>
      </trkpt>
      <trkpt lat="44.18355" lon="6.63645">
        <ele>1453</ele>
        <time>2020-03-21T14:51:56.882Z</time>
      </trkpt>
      <trkpt lat="44.18343" lon="6.63645">
        <ele>1455</ele>
        <time>2020-03-21T14:51:57.882Z</time>
      </trkpt>
      <trkpt lat="44.18329" lon="6.63646">
        <ele>1457</ele>
        <time>2020-03-21T14:51:58.882Z</time>
      </trkpt>
      <trkpt lat="44.18316" lon="6.63648">
        <ele>1459</ele>
        <time>2020-03-21T14:51:59.882Z</time>
      </trkpt>
      <trkpt lat="44.18298" lon="6.63654">
        <ele>1462</ele>
        <time>2020-03-21T14:52:00.882Z</time>
      </trkpt>
      <trkpt lat="44.18283" lon="6.63662">
        <ele>1466</ele>
        <time>2020-03-21T14:52:01.882Z</time>
      </trkpt>
      <trkpt lat="44.1827" lon="6.63668">
        <ele>1470</ele>
        <time>2020-03-21T14:52:02.882Z</time>
      </trkpt>
      <trkpt lat="44.1826" lon="6.63672">
        <ele>1472</ele>
        <time>2020-03-21T14:52:03.882Z</time>
      </trkpt>
      <trkpt lat="44.18247" lon="6.63677">
        <ele>1475</ele>
        <time>2020-03-21T14:52:04.882Z</time>
      </trkpt>
      <trkpt lat="44.18234" lon="6.63678">
        <ele>1476</ele>
        <time>2020-03-21T14:52:05.882Z</time>
      </trkpt>
      <trkpt lat="44.18218" lon="6.63675">
        <ele>1477</ele>
        <time>2020-03-21T14:52:06.882Z</time>
      </trkpt>
      <trkpt lat="44.18215" lon="6.63685">
        <ele>1481</ele>
        <time>2020-03-21T14:52:07.882Z</time>
      </trkpt>
      <trkpt lat="44.18217" lon="6.63687">
        <ele>1481</ele>
        <time>2020-03-21T14:52:08.882Z</time>
      </trkpt>
      <trkpt lat="44.18232" lon="6.63698">
        <ele>1483</ele>
        <time>2020-03-21T14:52:09.882Z</time>
      </trkpt>
      <trkpt lat="44.18246" lon="6.63701">
        <ele>1483</ele>
        <time>2020-03-21T14:52:10.882Z</time>
      </trkpt>
      <trkpt lat="44.18258" lon="6.63702">
        <ele>1482</ele>
        <time>2020-03-21T14:52:11.882Z</time>
      </trkpt>
      <trkpt lat="44.1827" lon="6.63707">
        <ele>1483</ele>
        <time>2020-03-21T14:52:12.882Z</time>
      </trkpt>
      <trkpt lat="44.18284" lon="6.63712">
        <ele>1483</ele>
        <time>2020-03-21T14:52:13.882Z</time>
      </trkpt>
      <trkpt lat="44.18297" lon="6.63716">
        <ele>1483</ele>
        <time>2020-03-21T14:52:14.882Z</time>
      </trkpt>
      <trkpt lat="44.1831" lon="6.63717">
        <ele>1482</ele>
        <time>2020-03-21T14:52:15.882Z</time>
      </trkpt>
      <trkpt lat="44.18324" lon="6.63718">
        <ele>1482</ele>
        <time>2020-03-21T14:52:16.882Z</time>
      </trkpt>
      <trkpt lat="44.18337" lon="6.63717">
        <ele>1480</ele>
        <time>2020-03-21T14:52:17.882Z</time>
      </trkpt>
      <trkpt lat="44.18351" lon="6.6372">
        <ele>1479</ele>
        <time>2020-03-21T14:52:18.882Z</time>
      </trkpt>
      <trkpt lat="44.18366" lon="6.63729">
        <ele>1480</ele>
        <time>2020-03-21T14:52:19.882Z</time>
      </trkpt>
      <trkpt lat="44.18381" lon="6.63744">
        <ele>1483</ele>
        <time>2020-03-21T14:52:20.882Z</time>
      </trkpt>
      <trkpt lat="44.18389" lon="6.63756">
        <ele>1485</ele>
        <time>2020-03-21T14:52:21.882Z</time>
      </trkpt>
      <trkpt lat="44.18384" lon="6.6376">
        <ele>1486</ele>
        <time>2020-03-21T14:52:22.882Z</time>
      </trkpt>
      <trkpt lat="44.18382" lon="6.63759">
        <ele>1486</ele>
        <time>2020-03-21T14:52:23.882Z</time>
      </trkpt>
      <trkpt lat="44.18368" lon="6.63749">
        <ele>1486</ele>
        <time>2020-03-21T14:52:24.882Z</time>
      </trkpt>
      <trkpt lat="44.1835" lon="6.63747">
        <ele>1488</ele>
        <time>2020-03-21T14:52:25.882Z</time>
      </trkpt>
      <trkpt lat="44.18336" lon="6.63752">
        <ele>1491</ele>
        <time>2020-03-21T14:52:26.882Z</time>
      </trkpt>
      <trkpt lat="44.18324" lon="6.63757">
        <ele>1494</ele>
        <time>2020-03-21T14:52:27.882Z</time>
      </trkpt>
      <trkpt lat="44.18313" lon="6.63761">
        <ele>1496</ele>
        <time>2020-03-21T14:52:28.882Z</time>
      </trkpt>
      <trkpt lat="44.18303" lon="6.63764">
        <ele>1497</ele>
        <time>2020-03-21T14:52:29.882Z</time>
      </trkpt>
      <trkpt lat="44.18291" lon="6.63768">
        <ele>1500</ele>
        <time>2020-03-21T14:52:30.882Z</time>
      </trkpt>
      <trkpt lat="44.1828" lon="6.63772">
        <ele>1502</ele>
        <time>2020-03-21T14:52:31.882Z</time>
      </trkpt>
      <trkpt lat="44.18267" lon="6.63775">
        <ele>1504</ele>
        <time>2020-03-21T14:52:32.882Z</time>
      </trkpt>
      <trkpt lat="44.18255" lon="6.63777">
        <ele>1505</ele>
        <time>2020-03-21T14:52:33.882Z</time>
      </trkpt>
      <trkpt lat="44.18243" lon="6.63777">
        <ele>1507</ele>
        <time>2020-03-21T14:52:34.882Z</time>
      </trkpt>
      <trkpt lat="44.18224" lon="6.63777">
        <ele>1510</ele>
        <time>2020-03-21T14:52:35.882Z</time>
      </trkpt>
      <trkpt lat="44.18211" lon="6.63767">
        <ele>1509</ele>
        <time>2020-03-21T14:52:36.882Z</time>
      </trkpt>
      <trkpt lat="44.182" lon="6.63748">
        <ele>1506</ele>
        <time>2020-03-21T14:52:37.882Z</time>
      </trkpt>
      <trkpt lat="44.18186" lon="6.63736">
        <ele>1504</ele>
        <time>2020-03-21T14:52:38.882Z</time>
      </trkpt>
      <trkpt lat="44.18163" lon="6.63725">
        <ele>1502</ele>
        <time>2020-03-21T14:52:39.882Z</time>
      </trkpt>
      <trkpt lat="44.18145" lon="6.6372">
        <ele>1504</ele>
        <time>2020-03-21T14:52:40.882Z</time>
      </trkpt>
      <trkpt lat="44.1813" lon="6.63717">
        <ele>1506</ele>
        <time>2020-03-21T14:52:41.882Z</time>
      </trkpt>
      <trkpt lat="44.18113" lon="6.6371">
        <ele>1506</ele>
        <time>2020-03-21T14:52:42.882Z</time>
      </trkpt>
      <trkpt lat="44.1811" lon="6.63711">
        <ele>1508</ele>
        <time>2020-03-21T14:52:43.882Z</time>
      </trkpt>
      <trkpt lat="44.18097" lon="6.63708">
        <ele>1509</ele>
        <time>2020-03-21T14:52:44.882Z</time>
      </trkpt>
      <trkpt lat="44.18076" lon="6.637">
        <ele>1511</ele>
        <time>2020-03-21T14:52:45.882Z</time>
      </trkpt>
      <trkpt lat="44.18057" lon="6.63695">
        <ele>1514</ele>
        <time>2020-03-21T14:52:46.882Z</time>
      </trkpt>
      <trkpt lat="44.18046" lon="6.6369">
        <ele>1515</ele>
        <time>2020-03-21T14:52:47.882Z</time>
      </trkpt>
      <trkpt lat="44.18045" lon="6.6369">
        <ele>1516</ele>
        <time>2020-03-21T14:52:48.882Z</time>
      </trkpt>
      <trkpt lat="44.18035" lon="6.63696">
        <ele>1520</ele>
        <time>2020-03-21T14:52:49.882Z</time>
      </trkpt>
      <trkpt lat="44.18032" lon="6.63706">
        <ele>1524</ele>
        <time>2020-03-21T14:52:50.882Z</time>
      </trkpt>
      <trkpt lat="44.18033" lon="6.63722">
        <ele>1529</ele>
        <time>2020-03-21T14:52:51.882Z</time>
      </trkpt>
      <trkpt lat="44.18036" lon="6.6374">
        <ele>1534</ele>
        <time>2020-03-21T14:52:52.882Z</time>
      </trkpt>
      <trkpt lat="44.1804" lon="6.63755">
        <ele>1538</ele>
        <time>2020-03-21T14:52:53.882Z</time>
      </trkpt>
      <trkpt lat="44.18045" lon="6.63777">
        <ele>1541</ele>
        <time>2020-03-21T14:52:54.882Z</time>
      </trkpt>
      <trkpt lat="44.18047" lon="6.63792">
        <ele>1544</ele>
        <time>2020-03-21T14:52:55.882Z</time>
      </trkpt>
      <trkpt lat="44.18054" lon="6.63814">
        <ele>1547</ele>
        <time>2020-03-21T14:52:56.882Z</time>
      </trkpt>
      <trkpt lat="44.1806" lon="6.63831">
        <ele>1549</ele>
        <time>2020-03-21T14:52:57.882Z</time>
      </trkpt>
      <trkpt lat="44.18065" lon="6.63844">
        <ele>1550</ele>
        <time>2020-03-21T14:52:58.882Z</time>
      </trkpt>
      <trkpt lat="44.18077" lon="6.63857">
        <ele>1551</ele>
        <time>2020-03-21T14:52:59.882Z</time>
      </trkpt>
      <trkpt lat="44.18089" lon="6.63863">
        <ele>1549</ele>
        <time>2020-03-21T14:53:00.882Z</time>
      </trkpt>
      <trkpt lat="44.18098" lon="6.6387">
        <ele>1550</ele>
        <time>2020-03-21T14:53:01.882Z</time>
      </trkpt>
      <trkpt lat="44.1811" lon="6.63877">
        <ele>1549</ele>
        <time>2020-03-21T14:53:02.882Z</time>
      </trkpt>
      <trkpt lat="44.18121" lon="6.63885">
        <ele>1549</ele>
        <time>2020-03-21T14:53:03.882Z</time>
      </trkpt>
      <trkpt lat="44.18131" lon="6.6389">
        <ele>1549</ele>
        <time>2020-03-21T14:53:04.882Z</time>
      </trkpt>
      <trkpt lat="44.18143" lon="6.63898">
        <ele>1548</ele>
        <time>2020-03-21T14:53:05.882Z</time>
      </trkpt>
      <trkpt lat="44.18157" lon="6.63908">
        <ele>1547</ele>
        <time>2020-03-21T14:53:06.882Z</time>
      </trkpt>
      <trkpt lat="44.18171" lon="6.63926">
        <ele>1548</ele>
        <time>2020-03-21T14:53:07.882Z</time>
      </trkpt>
      <trkpt lat="44.1818" lon="6.63941">
        <ele>1548</ele>
        <time>2020-03-21T14:53:08.882Z</time>
      </trkpt>
      <trkpt lat="44.18191" lon="6.63962">
        <ele>1550</ele>
        <time>2020-03-21T14:53:09.882Z</time>
      </trkpt>
      <trkpt lat="44.18192" lon="6.63974">
        <ele>1551</ele>
        <time>2020-03-21T14:53:10.882Z</time>
      </trkpt>
      <trkpt lat="44.18186" lon="6.63994">
        <ele>1555</ele>
        <time>2020-03-21T14:53:11.882Z</time>
      </trkpt>
      <trkpt lat="44.18186" lon="6.64009">
        <ele>1557</ele>
        <time>2020-03-21T14:53:12.882Z</time>
      </trkpt>
      <trkpt lat="44.18184" lon="6.6402">
        <ele>1560</ele>
        <time>2020-03-21T14:53:13.882Z</time>
      </trkpt>
      <trkpt lat="44.18179" lon="6.64035">
        <ele>1563</ele>
        <time>2020-03-21T14:53:14.882Z</time>
      </trkpt>
      <trkpt lat="44.18174" lon="6.64033">
        <ele>1564</ele>
        <time>2020-03-21T14:53:15.882Z</time>
      </trkpt>
      <trkpt lat="44.18173" lon="6.64017">
        <ele>1561</ele>
        <time>2020-03-21T14:53:16.882Z</time>
      </trkpt>
      <trkpt lat="44.18171" lon="6.64">
        <ele>1558</ele>
        <time>2020-03-21T14:53:17.882Z</time>
      </trkpt>
      <trkpt lat="44.18165" lon="6.63981">
        <ele>1557</ele>
        <time>2020-03-21T14:53:18.882Z</time>
      </trkpt>
      <trkpt lat="44.18159" lon="6.63969">
        <ele>1557</ele>
        <time>2020-03-21T14:53:19.882Z</time>
      </trkpt>
      <trkpt lat="44.18147" lon="6.63951">
        <ele>1557</ele>
        <time>2020-03-21T14:53:20.882Z</time>
      </trkpt>
      <trkpt lat="44.1813" lon="6.63938">
        <ele>1559</ele>
        <time>2020-03-21T14:53:21.882Z</time>
      </trkpt>
      <trkpt lat="44.18109" lon="6.63925">
        <ele>1561</ele>
        <time>2020-03-21T14:53:22.882Z</time>
      </trkpt>
      <trkpt lat="44.18098" lon="6.63918">
        <ele>1561</ele>
        <time>2020-03-21T14:53:23.882Z</time>
      </trkpt>
      <trkpt lat="44.18095" lon="6.63928">
        <ele>1565</ele>
        <time>2020-03-21T14:53:24.882Z</time>
      </trkpt>
      <trkpt lat="44.18099" lon="6.63934">
        <ele>1566</ele>
        <time>2020-03-21T14:53:25.882Z</time>
      </trkpt>
      <trkpt lat="44.1811" lon="6.63952">
        <ele>1567</ele>
        <time>2020-03-21T14:53:26.882Z</time>
      </trkpt>
      <trkpt lat="44.18117" lon="6.63966">
        <ele>1569</ele>
        <time>2020-03-21T14:53:27.882Z</time>
      </trkpt>
      <trkpt lat="44.1812" lon="6.63979">
        <ele>1571</ele>
        <time>2020-03-21T14:53:28.882Z</time>
      </trkpt>
      <trkpt lat="44.18121" lon="6.63991">
        <ele>1573</ele>
        <time>2020-03-21T14:53:29.882Z</time>
      </trkpt>
      <trkpt lat="44.18122" lon="6.64012">
        <ele>1577</ele>
        <time>2020-03-21T14:53:30.882Z</time>
      </trkpt>
      <trkpt lat="44.18123" lon="6.64024">
        <ele>1580</ele>
        <time>2020-03-21T14:53:31.882Z</time>
      </trkpt>
      <trkpt lat="44.18126" lon="6.64042">
        <ele>1582</ele>
        <time>2020-03-21T14:53:32.882Z</time>
      </trkpt>
      <trkpt lat="44.1813" lon="6.64052">
        <ele>1583</ele>
        <time>2020-03-21T14:53:33.882Z</time>
      </trkpt>
      <trkpt lat="44.18135" lon="6.64061">
        <ele>1582</ele>
        <time>2020-03-21T14:53:34.882Z</time>
      </trkpt>
      <trkpt lat="44.18147" lon="6.64079">
        <ele>1581</ele>
        <time>2020-03-21T14:53:35.882Z</time>
      </trkpt>
      <trkpt lat="44.18155" lon="6.64094">
        <ele>1582</ele>
        <time>2020-03-21T14:53:36.882Z</time>
      </trkpt>
      <trkpt lat="44.18162" lon="6.64112">
        <ele>1584</ele>
        <time>2020-03-21T14:53:37.882Z</time>
      </trkpt>
      <trkpt lat="44.18169" lon="6.6413">
        <ele>1586</ele>
        <time>2020-03-21T14:53:38.882Z</time>
      </trkpt>
      <trkpt lat="44.18175" lon="6.6415">
        <ele>1591</ele>
        <time>2020-03-21T14:53:39.882Z</time>
      </trkpt>
      <trkpt lat="44.18184" lon="6.64172">
        <ele>1595</ele>
        <time>2020-03-21T14:53:40.882Z</time>
      </trkpt>
      <trkpt lat="44.18195" lon="6.64186">
        <ele>1597</ele>
        <time>2020-03-21T14:53:41.882Z</time>
      </trkpt>
      <trkpt lat="44.18205" lon="6.64196">
        <ele>1597</ele>
        <time>2020-03-21T14:53:42.882Z</time>
      </trkpt>
      <trkpt lat="44.18218" lon="6.6421">
        <ele>1597</ele>
        <time>2020-03-21T14:53:43.882Z</time>
      </trkpt>
      <trkpt lat="44.18229" lon="6.64221">
        <ele>1597</ele>
        <time>2020-03-21T14:53:44.882Z</time>
      </trkpt>
      <trkpt lat="44.18239" lon="6.64227">
        <ele>1596</ele>
        <time>2020-03-21T14:53:45.882Z</time>
      </trkpt>
      <trkpt lat="44.18254" lon="6.64237">
        <ele>1594</ele>
        <time>2020-03-21T14:53:46.882Z</time>
      </trkpt>
      <trkpt lat="44.18265" lon="6.64251">
        <ele>1597</ele>
        <time>2020-03-21T14:53:47.882Z</time>
      </trkpt>
      <trkpt lat="44.18276" lon="6.64273">
        <ele>1602</ele>
        <time>2020-03-21T14:53:48.882Z</time>
      </trkpt>
      <trkpt lat="44.18288" lon="6.64286">
        <ele>1605</ele>
        <time>2020-03-21T14:53:49.882Z</time>
      </trkpt>
      <trkpt lat="44.18301" lon="6.64298">
        <ele>1607</ele>
        <time>2020-03-21T14:53:50.882Z</time>
      </trkpt>
      <trkpt lat="44.18313" lon="6.64302">
        <ele>1608</ele>
        <time>2020-03-21T14:53:51.882Z</time>
      </trkpt>
      <trkpt lat="44.1833" lon="6.64298">
        <ele>1606</ele>
        <time>2020-03-21T14:53:52.882Z</time>
      </trkpt>
      <trkpt lat="44.18352" lon="6.64283">
        <ele>1604</ele>
        <time>2020-03-21T14:53:53.882Z</time>
      </trkpt>
      <trkpt lat="44.18369" lon="6.64273">
        <ele>1603</ele>
        <time>2020-03-21T14:53:54.882Z</time>
      </trkpt>
      <trkpt lat="44.18384" lon="6.6427">
        <ele>1604</ele>
        <time>2020-03-21T14:53:55.882Z</time>
      </trkpt>
      <trkpt lat="44.18408" lon="6.6427">
        <ele>1606</ele>
        <time>2020-03-21T14:53:56.882Z</time>
      </trkpt>
      <trkpt lat="44.1842" lon="6.64276">
        <ele>1608</ele>
        <time>2020-03-21T14:53:57.882Z</time>
      </trkpt>
      <trkpt lat="44.18432" lon="6.64286">
        <ele>1609</ele>
        <time>2020-03-21T14:53:58.882Z</time>
      </trkpt>
      <trkpt lat="44.1844" lon="6.64305">
        <ele>1612</ele>
        <time>2020-03-21T14:53:59.882Z</time>
      </trkpt>
      <trkpt lat="44.1844" lon="6.64327">
        <ele>1616</ele>
        <time>2020-03-21T14:54:00.882Z</time>
      </trkpt>
      <trkpt lat="44.18439" lon="6.64344">
        <ele>1620</ele>
        <time>2020-03-21T14:54:01.882Z</time>
      </trkpt>
      <trkpt lat="44.18434" lon="6.64368">
        <ele>1626</ele>
        <time>2020-03-21T14:54:02.882Z</time>
      </trkpt>
      <trkpt lat="44.18435" lon="6.64371">
        <ele>1626</ele>
        <time>2020-03-21T14:54:03.882Z</time>
      </trkpt>
      <trkpt lat="44.18445" lon="6.6439">
        <ele>1629</ele>
        <time>2020-03-21T14:54:04.882Z</time>
      </trkpt>
      <trkpt lat="44.18458" lon="6.64412">
        <ele>1631</ele>
        <time>2020-03-21T14:54:05.882Z</time>
      </trkpt>
      <trkpt lat="44.1847" lon="6.6443">
        <ele>1633</ele>
        <time>2020-03-21T14:54:06.882Z</time>
      </trkpt>
      <trkpt lat="44.18481" lon="6.64438">
        <ele>1634</ele>
        <time>2020-03-21T14:54:07.882Z</time>
      </trkpt>
      <trkpt lat="44.18492" lon="6.64442">
        <ele>1633</ele>
        <time>2020-03-21T14:54:08.882Z</time>
      </trkpt>
      <trkpt lat="44.18506" lon="6.64439">
        <ele>1631</ele>
        <time>2020-03-21T14:54:09.882Z</time>
      </trkpt>
      <trkpt lat="44.18524" lon="6.64439">
        <ele>1629</ele>
        <time>2020-03-21T14:54:10.882Z</time>
      </trkpt>
      <trkpt lat="44.18538" lon="6.64441">
        <ele>1628</ele>
        <time>2020-03-21T14:54:11.882Z</time>
      </trkpt>
      <trkpt lat="44.18554" lon="6.64443">
        <ele>1627</ele>
        <time>2020-03-21T14:54:12.882Z</time>
      </trkpt>
      <trkpt lat="44.18563" lon="6.64454">
        <ele>1628</ele>
        <time>2020-03-21T14:54:13.882Z</time>
      </trkpt>
      <trkpt lat="44.18565" lon="6.64472">
        <ele>1631</ele>
        <time>2020-03-21T14:54:14.882Z</time>
      </trkpt>
      <trkpt lat="44.18563" lon="6.64492">
        <ele>1635</ele>
        <time>2020-03-21T14:54:15.882Z</time>
      </trkpt>
      <trkpt lat="44.18562" lon="6.64519">
        <ele>1639</ele>
        <time>2020-03-21T14:54:16.882Z</time>
      </trkpt>
      <trkpt lat="44.18562" lon="6.6454">
        <ele>1643</ele>
        <time>2020-03-21T14:54:17.882Z</time>
      </trkpt>
      <trkpt lat="44.1856" lon="6.64561">
        <ele>1646</ele>
        <time>2020-03-21T14:54:18.882Z</time>
      </trkpt>
      <trkpt lat="44.18562" lon="6.64581">
        <ele>1649</ele>
        <time>2020-03-21T14:54:19.882Z</time>
      </trkpt>
      <trkpt lat="44.18563" lon="6.64599">
        <ele>1650</ele>
        <time>2020-03-21T14:54:20.882Z</time>
      </trkpt>
      <trkpt lat="44.18563" lon="6.64626">
        <ele>1653</ele>
        <time>2020-03-21T14:54:21.882Z</time>
      </trkpt>
      <trkpt lat="44.18563" lon="6.64645">
        <ele>1655</ele>
        <time>2020-03-21T14:54:22.882Z</time>
      </trkpt>
      <trkpt lat="44.18561" lon="6.64673">
        <ele>1659</ele>
        <time>2020-03-21T14:54:23.882Z</time>
      </trkpt>
      <trkpt lat="44.18559" lon="6.64698">
        <ele>1662</ele>
        <time>2020-03-21T14:54:24.882Z</time>
      </trkpt>
      <trkpt lat="44.18556" lon="6.6472">
        <ele>1665</ele>
        <time>2020-03-21T14:54:25.882Z</time>
      </trkpt>
      <trkpt lat="44.18555" lon="6.64739">
        <ele>1667</ele>
        <time>2020-03-21T14:54:26.882Z</time>
      </trkpt>
      <trkpt lat="44.18556" lon="6.64756">
        <ele>1668</ele>
        <time>2020-03-21T14:54:27.882Z</time>
      </trkpt>
      <trkpt lat="44.18556" lon="6.64759">
        <ele>1668</ele>
        <time>2020-03-21T14:54:28.882Z</time>
      </trkpt>
      <trkpt lat="44.18559" lon="6.64781">
        <ele>1669</ele>
        <time>2020-03-21T14:54:29.882Z</time>
      </trkpt>
      <trkpt lat="44.18559" lon="6.64803">
        <ele>1672</ele>
        <time>2020-03-21T14:54:30.882Z</time>
      </trkpt>
      <trkpt lat="44.1856" lon="6.64819">
        <ele>1673</ele>
        <time>2020-03-21T14:54:31.882Z</time>
      </trkpt>
      <trkpt lat="44.18566" lon="6.64837">
        <ele>1672</ele>
        <time>2020-03-21T14:54:32.882Z</time>
      </trkpt>
      <trkpt lat="44.18578" lon="6.64844">
        <ele>1667</ele>
        <time>2020-03-21T14:54:33.882Z</time>
      </trkpt>
      <trkpt lat="44.18587" lon="6.64858">
        <ele>1664</ele>
        <time>2020-03-21T14:54:34.882Z</time>
      </trkpt>
      <trkpt lat="44.18589" lon="6.64873">
        <ele>1665</ele>
        <time>2020-03-21T14:54:35.882Z</time>
      </trkpt>
      <trkpt lat="44.18586" lon="6.64891">
        <ele>1667</ele>
        <time>2020-03-21T14:54:36.882Z</time>
      </trkpt>
      <trkpt lat="44.18585" lon="6.64917">
        <ele>1670</ele>
        <time>2020-03-21T14:54:37.882Z</time>
      </trkpt>
      <trkpt lat="44.18586" lon="6.64934">
        <ele>1671</ele>
        <time>2020-03-21T14:54:38.882Z</time>
      </trkpt>
      <trkpt lat="44.18591" lon="6.64966">
        <ele>1671</ele>
        <time>2020-03-21T14:54:39.882Z</time>
      </trkpt>
      <trkpt lat="44.18603" lon="6.64976">
        <ele>1668</ele>
        <time>2020-03-21T14:54:40.882Z</time>
      </trkpt>
      <trkpt lat="44.18615" lon="6.64981">
        <ele>1664</ele>
        <time>2020-03-21T14:54:41.882Z</time>
      </trkpt>
      <trkpt lat="44.1863" lon="6.6499">
        <ele>1660</ele>
        <time>2020-03-21T14:54:42.882Z</time>
      </trkpt>
      <trkpt lat="44.18641" lon="6.64997">
        <ele>1658</ele>
        <time>2020-03-21T14:54:43.882Z</time>
      </trkpt>
      <trkpt lat="44.18653" lon="6.65012">
        <ele>1659</ele>
        <time>2020-03-21T14:54:44.882Z</time>
      </trkpt>
      <trkpt lat="44.18656" lon="6.65021">
        <ele>1661</ele>
        <time>2020-03-21T14:54:45.882Z</time>
      </trkpt>
      <trkpt lat="44.18665" lon="6.65046">
        <ele>1667</ele>
        <time>2020-03-21T14:54:46.882Z</time>
      </trkpt>
      <trkpt lat="44.18676" lon="6.65063">
        <ele>1670</ele>
        <time>2020-03-21T14:54:47.882Z</time>
      </trkpt>
      <trkpt lat="44.18686" lon="6.65077">
        <ele>1672</ele>
        <time>2020-03-21T14:54:48.882Z</time>
      </trkpt>
      <trkpt lat="44.18692" lon="6.65087">
        <ele>1673</ele>
        <time>2020-03-21T14:54:49.882Z</time>
      </trkpt>
      <trkpt lat="44.18696" lon="6.65111">
        <ele>1674</ele>
        <time>2020-03-21T14:54:50.882Z</time>
      </trkpt>
      <trkpt lat="44.18694" lon="6.65127">
        <ele>1677</ele>
        <time>2020-03-21T14:54:51.882Z</time>
      </trkpt>
      <trkpt lat="44.18694" lon="6.65152">
        <ele>1680</ele>
        <time>2020-03-21T14:54:52.882Z</time>
      </trkpt>
      <trkpt lat="44.18694" lon="6.6518">
        <ele>1683</ele>
        <time>2020-03-21T14:54:53.882Z</time>
      </trkpt>
      <trkpt lat="44.18695" lon="6.65208">
        <ele>1684</ele>
        <time>2020-03-21T14:54:54.882Z</time>
      </trkpt>
      <trkpt lat="44.18702" lon="6.65233">
        <ele>1684</ele>
        <time>2020-03-21T14:54:55.882Z</time>
      </trkpt>
      <trkpt lat="44.18708" lon="6.65263">
        <ele>1684</ele>
        <time>2020-03-21T14:54:56.882Z</time>
      </trkpt>
      <trkpt lat="44.1871" lon="6.65291">
        <ele>1685</ele>
        <time>2020-03-21T14:54:57.882Z</time>
      </trkpt>
      <trkpt lat="44.18707" lon="6.65326">
        <ele>1687</ele>
        <time>2020-03-21T14:54:58.882Z</time>
      </trkpt>
      <trkpt lat="44.18709" lon="6.65355">
        <ele>1689</ele>
        <time>2020-03-21T14:54:59.882Z</time>
      </trkpt>
      <trkpt lat="44.1872" lon="6.65369">
        <ele>1687</ele>
        <time>2020-03-21T14:55:00.882Z</time>
      </trkpt>
      <trkpt lat="44.1873" lon="6.65381">
        <ele>1686</ele>
        <time>2020-03-21T14:55:01.882Z</time>
      </trkpt>
      <trkpt lat="44.18739" lon="6.65399">
        <ele>1686</ele>
        <time>2020-03-21T14:55:02.882Z</time>
      </trkpt>
      <trkpt lat="44.18745" lon="6.65418">
        <ele>1686</ele>
        <time>2020-03-21T14:55:03.882Z</time>
      </trkpt>
      <trkpt lat="44.18751" lon="6.65436">
        <ele>1688</ele>
        <time>2020-03-21T14:55:04.882Z</time>
      </trkpt>
      <trkpt lat="44.18752" lon="6.65452">
        <ele>1690</ele>
        <time>2020-03-21T14:55:05.882Z</time>
      </trkpt>
      <trkpt lat="44.18756" lon="6.65472">
        <ele>1692</ele>
        <time>2020-03-21T14:55:06.882Z</time>
      </trkpt>
      <trkpt lat="44.18766" lon="6.65486">
        <ele>1691</ele>
        <time>2020-03-21T14:55:07.882Z</time>
      </trkpt>
      <trkpt lat="44.18775" lon="6.65498">
        <ele>1691</ele>
        <time>2020-03-21T14:55:08.882Z</time>
      </trkpt>
      <trkpt lat="44.1878" lon="6.65516">
        <ele>1691</ele>
        <time>2020-03-21T14:55:09.882Z</time>
      </trkpt>
      <trkpt lat="44.18779" lon="6.65543">
        <ele>1694</ele>
        <time>2020-03-21T14:55:10.882Z</time>
      </trkpt>
      <trkpt lat="44.18778" lon="6.65564">
        <ele>1696</ele>
        <time>2020-03-21T14:55:11.882Z</time>
      </trkpt>
      <trkpt lat="44.18772" lon="6.65582">
        <ele>1700</ele>
        <time>2020-03-21T14:55:12.882Z</time>
      </trkpt>
      <trkpt lat="44.18764" lon="6.65597">
        <ele>1703</ele>
        <time>2020-03-21T14:55:13.882Z</time>
      </trkpt>
      <trkpt lat="44.18762" lon="6.65613">
        <ele>1705</ele>
        <time>2020-03-21T14:55:14.882Z</time>
      </trkpt>
      <trkpt lat="44.18766" lon="6.65637">
        <ele>1705</ele>
        <time>2020-03-21T14:55:15.882Z</time>
      </trkpt>
      <trkpt lat="44.18766" lon="6.6566">
        <ele>1707</ele>
        <time>2020-03-21T14:55:16.882Z</time>
      </trkpt>
      <trkpt lat="44.18766" lon="6.65679">
        <ele>1708</ele>
        <time>2020-03-21T14:55:17.882Z</time>
      </trkpt>
      <trkpt lat="44.18766" lon="6.65694">
        <ele>1709</ele>
        <time>2020-03-21T14:55:18.882Z</time>
      </trkpt>
      <trkpt lat="44.18763" lon="6.65712">
        <ele>1711</ele>
        <time>2020-03-21T14:55:19.882Z</time>
      </trkpt>
      <trkpt lat="44.1876" lon="6.6573">
        <ele>1713</ele>
        <time>2020-03-21T14:55:20.882Z</time>
      </trkpt>
      <trkpt lat="44.18758" lon="6.65752">
        <ele>1715</ele>
        <time>2020-03-21T14:55:21.882Z</time>
      </trkpt>
      <trkpt lat="44.18757" lon="6.65767">
        <ele>1716</ele>
        <time>2020-03-21T14:55:22.882Z</time>
      </trkpt>
      <trkpt lat="44.18758" lon="6.65779">
        <ele>1716</ele>
        <time>2020-03-21T14:55:23.882Z</time>
      </trkpt>
      <trkpt lat="44.18758" lon="6.65798">
        <ele>1717</ele>
        <time>2020-03-21T14:55:24.882Z</time>
      </trkpt>
      <trkpt lat="44.18758" lon="6.65817">
        <ele>1718</ele>
        <time>2020-03-21T14:55:25.882Z</time>
      </trkpt>
      <trkpt lat="44.18758" lon="6.65833">
        <ele>1719</ele>
        <time>2020-03-21T14:55:26.882Z</time>
      </trkpt>
      <trkpt lat="44.18759" lon="6.65855">
        <ele>1720</ele>
        <time>2020-03-21T14:55:27.882Z</time>
      </trkpt>
      <trkpt lat="44.18761" lon="6.65866">
        <ele>1721</ele>
        <time>2020-03-21T14:55:28.882Z</time>
      </trkpt>
      <trkpt lat="44.18762" lon="6.65886">
        <ele>1722</ele>
        <time>2020-03-21T14:55:29.882Z</time>
      </trkpt>
      <trkpt lat="44.18763" lon="6.65904">
        <ele>1723</ele>
        <time>2020-03-21T14:55:30.882Z</time>
      </trkpt>
      <trkpt lat="44.18767" lon="6.65923">
        <ele>1724</ele>
        <time>2020-03-21T14:55:31.882Z</time>
      </trkpt>
      <trkpt lat="44.18775" lon="6.6594">
        <ele>1724</ele>
        <time>2020-03-21T14:55:32.882Z</time>
      </trkpt>
      <trkpt lat="44.18782" lon="6.65964">
        <ele>1725</ele>
        <time>2020-03-21T14:55:33.882Z</time>
      </trkpt>
      <trkpt lat="44.18784" lon="6.65994">
        <ele>1728</ele>
        <time>2020-03-21T14:55:34.882Z</time>
      </trkpt>
      <trkpt lat="44.18786" lon="6.66014">
        <ele>1729</ele>
        <time>2020-03-21T14:55:35.882Z</time>
      </trkpt>
      <trkpt lat="44.18793" lon="6.6603">
        <ele>1730</ele>
        <time>2020-03-21T14:55:36.882Z</time>
      </trkpt>
      <trkpt lat="44.18805" lon="6.6604">
        <ele>1729</ele>
        <time>2020-03-21T14:55:37.882Z</time>
      </trkpt>
      <trkpt lat="44.1881" lon="6.66055">
        <ele>1729</ele>
        <time>2020-03-21T14:55:38.882Z</time>
      </trkpt>
      <trkpt lat="44.18812" lon="6.66078">
        <ele>1731</ele>
        <time>2020-03-21T14:55:39.882Z</time>
      </trkpt>
      <trkpt lat="44.18815" lon="6.661">
        <ele>1733</ele>
        <time>2020-03-21T14:55:40.882Z</time>
      </trkpt>
      <trkpt lat="44.18816" lon="6.66121">
        <ele>1735</ele>
        <time>2020-03-21T14:55:41.882Z</time>
      </trkpt>
      <trkpt lat="44.18817" lon="6.66138">
        <ele>1737</ele>
        <time>2020-03-21T14:55:42.882Z</time>
      </trkpt>
      <trkpt lat="44.18814" lon="6.66158">
        <ele>1739</ele>
        <time>2020-03-21T14:55:43.882Z</time>
      </trkpt>
      <trkpt lat="44.18811" lon="6.66178">
        <ele>1742</ele>
        <time>2020-03-21T14:55:44.882Z</time>
      </trkpt>
      <trkpt lat="44.18813" lon="6.662">
        <ele>1744</ele>
        <time>2020-03-21T14:55:45.882Z</time>
      </trkpt>
      <trkpt lat="44.18821" lon="6.66218">
        <ele>1745</ele>
        <time>2020-03-21T14:55:46.882Z</time>
      </trkpt>
      <trkpt lat="44.18827" lon="6.66243">
        <ele>1746</ele>
        <time>2020-03-21T14:55:47.882Z</time>
      </trkpt>
      <trkpt lat="44.18827" lon="6.66263">
        <ele>1748</ele>
        <time>2020-03-21T14:55:48.882Z</time>
      </trkpt>
      <trkpt lat="44.18827" lon="6.66288">
        <ele>1751</ele>
        <time>2020-03-21T14:55:49.882Z</time>
      </trkpt>
      <trkpt lat="44.18828" lon="6.66307">
        <ele>1753</ele>
        <time>2020-03-21T14:55:50.882Z</time>
      </trkpt>
      <trkpt lat="44.18832" lon="6.66331">
        <ele>1754</ele>
        <time>2020-03-21T14:55:51.882Z</time>
      </trkpt>
      <trkpt lat="44.18836" lon="6.66351">
        <ele>1755</ele>
        <time>2020-03-21T14:55:52.882Z</time>
      </trkpt>
      <trkpt lat="44.18839" lon="6.66371">
        <ele>1756</ele>
        <time>2020-03-21T14:55:53.882Z</time>
      </trkpt>
      <trkpt lat="44.18842" lon="6.66394">
        <ele>1758</ele>
        <time>2020-03-21T14:55:54.882Z</time>
      </trkpt>
      <trkpt lat="44.1885" lon="6.66408">
        <ele>1757</ele>
        <time>2020-03-21T14:55:55.882Z</time>
      </trkpt>
      <trkpt lat="44.18863" lon="6.66428">
        <ele>1756</ele>
        <time>2020-03-21T14:55:56.882Z</time>
      </trkpt>
      <trkpt lat="44.18871" lon="6.66451">
        <ele>1756</ele>
        <time>2020-03-21T14:55:57.882Z</time>
      </trkpt>
      <trkpt lat="44.18872" lon="6.66474">
        <ele>1757</ele>
        <time>2020-03-21T14:55:58.882Z</time>
      </trkpt>
      <trkpt lat="44.18864" lon="6.66489">
        <ele>1760</ele>
        <time>2020-03-21T14:55:59.882Z</time>
      </trkpt>
      <trkpt lat="44.18854" lon="6.66506">
        <ele>1762</ele>
        <time>2020-03-21T14:56:00.882Z</time>
      </trkpt>
      <trkpt lat="44.18847" lon="6.6652">
        <ele>1764</ele>
        <time>2020-03-21T14:56:01.882Z</time>
      </trkpt>
      <trkpt lat="44.18838" lon="6.6654">
        <ele>1765</ele>
        <time>2020-03-21T14:56:02.882Z</time>
      </trkpt>
      <trkpt lat="44.1883" lon="6.66559">
        <ele>1766</ele>
        <time>2020-03-21T14:56:03.882Z</time>
      </trkpt>
      <trkpt lat="44.18821" lon="6.66561">
        <ele>1768</ele>
        <time>2020-03-21T14:56:04.882Z</time>
      </trkpt>
      <trkpt lat="44.18813" lon="6.66551">
        <ele>1770</ele>
        <time>2020-03-21T14:56:05.882Z</time>
      </trkpt>
      <trkpt lat="44.18803" lon="6.66534">
        <ele>1773</ele>
        <time>2020-03-21T14:56:06.882Z</time>
      </trkpt>
      <trkpt lat="44.18797" lon="6.66522">
        <ele>1774</ele>
        <time>2020-03-21T14:56:07.882Z</time>
      </trkpt>
      <trkpt lat="44.18792" lon="6.66505">
        <ele>1776</ele>
        <time>2020-03-21T14:56:08.882Z</time>
      </trkpt>
      <trkpt lat="44.18788" lon="6.66493">
        <ele>1777</ele>
        <time>2020-03-21T14:56:09.882Z</time>
      </trkpt>
      <trkpt lat="44.18786" lon="6.66478">
        <ele>1777</ele>
        <time>2020-03-21T14:56:10.882Z</time>
      </trkpt>
      <trkpt lat="44.18782" lon="6.66461">
        <ele>1777</ele>
        <time>2020-03-21T14:56:11.882Z</time>
      </trkpt>
      <trkpt lat="44.18776" lon="6.66444">
        <ele>1778</ele>
        <time>2020-03-21T14:56:12.882Z</time>
      </trkpt>
      <trkpt lat="44.18773" lon="6.66434">
        <ele>1779</ele>
        <time>2020-03-21T14:56:13.882Z</time>
      </trkpt>
      <trkpt lat="44.18769" lon="6.66421">
        <ele>1780</ele>
        <time>2020-03-21T14:56:14.882Z</time>
      </trkpt>
      <trkpt lat="44.18765" lon="6.66409">
        <ele>1780</ele>
        <time>2020-03-21T14:56:15.882Z</time>
      </trkpt>
      <trkpt lat="44.1876" lon="6.66395">
        <ele>1780</ele>
        <time>2020-03-21T14:56:16.882Z</time>
      </trkpt>
      <trkpt lat="44.18755" lon="6.66381">
        <ele>1781</ele>
        <time>2020-03-21T14:56:17.882Z</time>
      </trkpt>
      <trkpt lat="44.18748" lon="6.66365">
        <ele>1781</ele>
        <time>2020-03-21T14:56:18.882Z</time>
      </trkpt>
      <trkpt lat="44.18745" lon="6.66349">
        <ele>1781</ele>
        <time>2020-03-21T14:56:19.882Z</time>
      </trkpt>
      <trkpt lat="44.18741" lon="6.66332">
        <ele>1780</ele>
        <time>2020-03-21T14:56:20.882Z</time>
      </trkpt>
      <trkpt lat="44.18735" lon="6.66317">
        <ele>1779</ele>
        <time>2020-03-21T14:56:21.882Z</time>
      </trkpt>
      <trkpt lat="44.1872" lon="6.66301">
        <ele>1779</ele>
        <time>2020-03-21T14:56:22.882Z</time>
      </trkpt>
      <trkpt lat="44.18709" lon="6.66298">
        <ele>1781</ele>
        <time>2020-03-21T14:56:23.882Z</time>
      </trkpt>
      <trkpt lat="44.18696" lon="6.66296">
        <ele>1783</ele>
        <time>2020-03-21T14:56:24.882Z</time>
      </trkpt>
      <trkpt lat="44.18679" lon="6.66296">
        <ele>1787</ele>
        <time>2020-03-21T14:56:25.882Z</time>
      </trkpt>
      <trkpt lat="44.18668" lon="6.66298">
        <ele>1789</ele>
        <time>2020-03-21T14:56:26.882Z</time>
      </trkpt>
      <trkpt lat="44.18656" lon="6.66301">
        <ele>1793</ele>
        <time>2020-03-21T14:56:27.882Z</time>
      </trkpt>
      <trkpt lat="44.18643" lon="6.66304">
        <ele>1796</ele>
        <time>2020-03-21T14:56:28.882Z</time>
      </trkpt>
      <trkpt lat="44.18626" lon="6.66308">
        <ele>1801</ele>
        <time>2020-03-21T14:56:29.882Z</time>
      </trkpt>
      <trkpt lat="44.1861" lon="6.66307">
        <ele>1805</ele>
        <time>2020-03-21T14:56:30.882Z</time>
      </trkpt>
      <trkpt lat="44.18611" lon="6.66307">
        <ele>1805</ele>
        <time>2020-03-21T14:56:31.882Z</time>
      </trkpt>
      <trkpt lat="44.18605" lon="6.66303">
        <ele>1806</ele>
        <time>2020-03-21T14:56:32.882Z</time>
      </trkpt>
      <trkpt lat="44.18601" lon="6.66292">
        <ele>1805</ele>
        <time>2020-03-21T14:56:33.882Z</time>
      </trkpt>
      <trkpt lat="44.18594" lon="6.66277">
        <ele>1805</ele>
        <time>2020-03-21T14:56:34.882Z</time>
      </trkpt>
      <trkpt lat="44.18587" lon="6.66262">
        <ele>1805</ele>
        <time>2020-03-21T14:56:35.882Z</time>
      </trkpt>
      <trkpt lat="44.18579" lon="6.66245">
        <ele>1806</ele>
        <time>2020-03-21T14:56:36.882Z</time>
      </trkpt>
      <trkpt lat="44.18571" lon="6.66226">
        <ele>1809</ele>
        <time>2020-03-21T14:56:37.882Z</time>
      </trkpt>
      <trkpt lat="44.18564" lon="6.66204">
        <ele>1810</ele>
        <time>2020-03-21T14:56:38.882Z</time>
      </trkpt>
      <trkpt lat="44.18556" lon="6.66181">
        <ele>1812</ele>
        <time>2020-03-21T14:56:39.882Z</time>
      </trkpt>
      <trkpt lat="44.18552" lon="6.66159">
        <ele>1813</ele>
        <time>2020-03-21T14:56:40.882Z</time>
      </trkpt>
      <trkpt lat="44.18548" lon="6.66135">
        <ele>1813</ele>
        <time>2020-03-21T14:56:41.882Z</time>
      </trkpt>
      <trkpt lat="44.18544" lon="6.6612">
        <ele>1813</ele>
        <time>2020-03-21T14:56:42.882Z</time>
      </trkpt>
      <trkpt lat="44.18538" lon="6.66102">
        <ele>1814</ele>
        <time>2020-03-21T14:56:43.882Z</time>
      </trkpt>
      <trkpt lat="44.18531" lon="6.66086">
        <ele>1816</ele>
        <time>2020-03-21T14:56:44.882Z</time>
      </trkpt>
      <trkpt lat="44.18525" lon="6.66071">
        <ele>1818</ele>
        <time>2020-03-21T14:56:45.882Z</time>
      </trkpt>
      <trkpt lat="44.18516" lon="6.66046">
        <ele>1819</ele>
        <time>2020-03-21T14:56:46.882Z</time>
      </trkpt>
      <trkpt lat="44.18507" lon="6.66021">
        <ele>1820</ele>
        <time>2020-03-21T14:56:47.882Z</time>
      </trkpt>
      <trkpt lat="44.185" lon="6.66001">
        <ele>1821</ele>
        <time>2020-03-21T14:56:48.882Z</time>
      </trkpt>
      <trkpt lat="44.18494" lon="6.65982">
        <ele>1822</ele>
        <time>2020-03-21T14:56:49.882Z</time>
      </trkpt>
      <trkpt lat="44.18492" lon="6.65978">
        <ele>1822</ele>
        <time>2020-03-21T14:56:50.882Z</time>
      </trkpt>
      <trkpt lat="44.1849" lon="6.65966">
        <ele>1822</ele>
        <time>2020-03-21T14:56:51.882Z</time>
      </trkpt>
      <trkpt lat="44.18482" lon="6.6595">
        <ele>1823</ele>
        <time>2020-03-21T14:56:52.882Z</time>
      </trkpt>
      <trkpt lat="44.18473" lon="6.65936">
        <ele>1825</ele>
        <time>2020-03-21T14:56:53.882Z</time>
      </trkpt>
      <trkpt lat="44.18464" lon="6.65923">
        <ele>1828</ele>
        <time>2020-03-21T14:56:54.882Z</time>
      </trkpt>
      <trkpt lat="44.18457" lon="6.65914">
        <ele>1830</ele>
        <time>2020-03-21T14:56:55.882Z</time>
      </trkpt>
      <trkpt lat="44.18449" lon="6.65893">
        <ele>1831</ele>
        <time>2020-03-21T14:56:56.882Z</time>
      </trkpt>
      <trkpt lat="44.18441" lon="6.65885">
        <ele>1834</ele>
        <time>2020-03-21T14:56:57.882Z</time>
      </trkpt>
      <trkpt lat="44.18437" lon="6.65886">
        <ele>1836</ele>
        <time>2020-03-21T14:56:58.882Z</time>
      </trkpt>
      <trkpt lat="44.18433" lon="6.65881">
        <ele>1837</ele>
        <time>2020-03-21T14:56:59.882Z</time>
      </trkpt>
      <trkpt lat="44.18432" lon="6.65874">
        <ele>1837</ele>
        <time>2020-03-21T14:57:00.882Z</time>
      </trkpt>
      <trkpt lat="44.18424" lon="6.65864">
        <ele>1840</ele>
        <time>2020-03-21T14:57:01.882Z</time>
      </trkpt>
      <trkpt lat="44.18415" lon="6.65847">
        <ele>1843</ele>
        <time>2020-03-21T14:57:02.882Z</time>
      </trkpt>
      <trkpt lat="44.18408" lon="6.65832">
        <ele>1848</ele>
        <time>2020-03-21T14:57:03.882Z</time>
      </trkpt>
      <trkpt lat="44.1841" lon="6.65814">
        <ele>1847</ele>
        <time>2020-03-21T14:57:04.882Z</time>
      </trkpt>
      <trkpt lat="44.1841" lon="6.65802">
        <ele>1847</ele>
        <time>2020-03-21T14:57:05.882Z</time>
      </trkpt>
      <trkpt lat="44.18409" lon="6.6579">
        <ele>1847</ele>
        <time>2020-03-21T14:57:06.882Z</time>
      </trkpt>
      <trkpt lat="44.1841" lon="6.65775">
        <ele>1848</ele>
        <time>2020-03-21T14:57:07.882Z</time>
      </trkpt>
      <trkpt lat="44.1841" lon="6.65759">
        <ele>1848</ele>
        <time>2020-03-21T14:57:08.882Z</time>
      </trkpt>
      <trkpt lat="44.18408" lon="6.65744">
        <ele>1851</ele>
        <time>2020-03-21T14:57:09.882Z</time>
      </trkpt>
      <trkpt lat="44.18404" lon="6.65737">
        <ele>1854</ele>
        <time>2020-03-21T14:57:10.882Z</time>
      </trkpt>
      <trkpt lat="44.18406" lon="6.65729">
        <ele>1853</ele>
        <time>2020-03-21T14:57:11.882Z</time>
      </trkpt>
      <trkpt lat="44.18404" lon="6.65716">
        <ele>1856</ele>
        <time>2020-03-21T14:57:12.882Z</time>
      </trkpt>
      <trkpt lat="44.18401" lon="6.65701">
        <ele>1861</ele>
        <time>2020-03-21T14:57:13.882Z</time>
      </trkpt>
      <trkpt lat="44.18404" lon="6.65683">
        <ele>1861</ele>
        <time>2020-03-21T14:57:14.882Z</time>
      </trkpt>
      <trkpt lat="44.18405" lon="6.65661">
        <ele>1861</ele>
        <time>2020-03-21T14:57:15.882Z</time>
      </trkpt>
      <trkpt lat="44.18406" lon="6.65657">
        <ele>1861</ele>
        <time>2020-03-21T14:57:16.882Z</time>
      </trkpt>
      <trkpt lat="44.18406" lon="6.65644">
        <ele>1860</ele>
        <time>2020-03-21T14:57:17.882Z</time>
      </trkpt>
      <trkpt lat="44.18408" lon="6.65627">
        <ele>1858</ele>
        <time>2020-03-21T14:57:18.882Z</time>
      </trkpt>
      <trkpt lat="44.18411" lon="6.65611">
        <ele>1856</ele>
        <time>2020-03-21T14:57:19.882Z</time>
      </trkpt>
      <trkpt lat="44.18412" lon="6.65605">
        <ele>1856</ele>
        <time>2020-03-21T14:57:20.882Z</time>
      </trkpt>
      <trkpt lat="44.18413" lon="6.65593">
        <ele>1855</ele>
        <time>2020-03-21T14:57:21.882Z</time>
      </trkpt>
      <trkpt lat="44.1841" lon="6.65578">
        <ele>1854</ele>
        <time>2020-03-21T14:57:22.882Z</time>
      </trkpt>
      <trkpt lat="44.18403" lon="6.65563">
        <ele>1850</ele>
        <time>2020-03-21T14:57:23.882Z</time>
      </trkpt>
      <trkpt lat="44.18393" lon="6.65547">
        <ele>1847</ele>
        <time>2020-03-21T14:57:24.882Z</time>
      </trkpt>
      <trkpt lat="44.18381" lon="6.65535">
        <ele>1846</ele>
        <time>2020-03-21T14:57:25.882Z</time>
      </trkpt>
      <trkpt lat="44.18369" lon="6.65524">
        <ele>1845</ele>
        <time>2020-03-21T14:57:26.882Z</time>
      </trkpt>
      <trkpt lat="44.18363" lon="6.6552">
        <ele>1845</ele>
        <time>2020-03-21T14:57:27.882Z</time>
      </trkpt>
      <trkpt lat="44.18352" lon="6.65523">
        <ele>1851</ele>
        <time>2020-03-21T14:57:28.882Z</time>
      </trkpt>
      <trkpt lat="44.18346" lon="6.65525">
        <ele>1854</ele>
        <time>2020-03-21T14:57:29.882Z</time>
      </trkpt>
      <trkpt lat="44.18333" lon="6.65528">
        <ele>1861</ele>
        <time>2020-03-21T14:57:30.882Z</time>
      </trkpt>
      <trkpt lat="44.18322" lon="6.65528">
        <ele>1868</ele>
        <time>2020-03-21T14:57:31.882Z</time>
      </trkpt>
      <trkpt lat="44.1831" lon="6.65532">
        <ele>1879</ele>
        <time>2020-03-21T14:57:32.882Z</time>
      </trkpt>
      <trkpt lat="44.18303" lon="6.65529">
        <ele>1882</ele>
        <time>2020-03-21T14:57:33.882Z</time>
      </trkpt>
      <trkpt lat="44.18302" lon="6.65527">
        <ele>1882</ele>
        <time>2020-03-21T14:57:34.882Z</time>
      </trkpt>
      <trkpt lat="44.18292" lon="6.65511">
        <ele>1882</ele>
        <time>2020-03-21T14:57:35.882Z</time>
      </trkpt>
      <trkpt lat="44.18284" lon="6.65511">
        <ele>1887</ele>
        <time>2020-03-21T14:57:36.882Z</time>
      </trkpt>
      <trkpt lat="44.18281" lon="6.65512">
        <ele>1890</ele>
        <time>2020-03-21T14:57:37.882Z</time>
      </trkpt>
      <trkpt lat="44.18274" lon="6.65509">
        <ele>1893</ele>
        <time>2020-03-21T14:57:38.882Z</time>
      </trkpt>
      <trkpt lat="44.18266" lon="6.65491">
        <ele>1895</ele>
        <time>2020-03-21T14:57:39.882Z</time>
      </trkpt>
      <trkpt lat="44.18263" lon="6.65481">
        <ele>1895</ele>
        <time>2020-03-21T14:57:40.882Z</time>
      </trkpt>
      <trkpt lat="44.18266" lon="6.65468">
        <ele>1891</ele>
        <time>2020-03-21T14:57:41.882Z</time>
      </trkpt>
      <trkpt lat="44.18265" lon="6.65461">
        <ele>1890</ele>
        <time>2020-03-21T14:57:42.882Z</time>
      </trkpt>
      <trkpt lat="44.18264" lon="6.65451">
        <ele>1889</ele>
        <time>2020-03-21T14:57:43.882Z</time>
      </trkpt>
      <trkpt lat="44.18266" lon="6.65441">
        <ele>1886</ele>
        <time>2020-03-21T14:57:44.882Z</time>
      </trkpt>
      <trkpt lat="44.18265" lon="6.65432">
        <ele>1885</ele>
        <time>2020-03-21T14:57:45.882Z</time>
      </trkpt>
      <trkpt lat="44.18258" lon="6.65419">
        <ele>1887</ele>
        <time>2020-03-21T14:57:46.882Z</time>
      </trkpt>
      <trkpt lat="44.18253" lon="6.65411">
        <ele>1889</ele>
        <time>2020-03-21T14:57:47.882Z</time>
      </trkpt>
      <trkpt lat="44.18247" lon="6.65402">
        <ele>1891</ele>
        <time>2020-03-21T14:57:48.882Z</time>
      </trkpt>
      <trkpt lat="44.18246" lon="6.65397">
        <ele>1891</ele>
        <time>2020-03-21T14:57:49.882Z</time>
      </trkpt>
      <trkpt lat="44.18242" lon="6.65389">
        <ele>1892</ele>
        <time>2020-03-21T14:57:50.882Z</time>
      </trkpt>
      <trkpt lat="44.18235" lon="6.65379">
        <ele>1894</ele>
        <time>2020-03-21T14:57:51.882Z</time>
      </trkpt>
      <trkpt lat="44.1823" lon="6.65369">
        <ele>1894</ele>
        <time>2020-03-21T14:57:52.882Z</time>
      </trkpt>
      <trkpt lat="44.18222" lon="6.65359">
        <ele>1896</ele>
        <time>2020-03-21T14:57:53.882Z</time>
      </trkpt>
      <trkpt lat="44.18218" lon="6.65355">
        <ele>1897</ele>
        <time>2020-03-21T14:57:54.882Z</time>
      </trkpt>
      <trkpt lat="44.18212" lon="6.65343">
        <ele>1898</ele>
        <time>2020-03-21T14:57:55.882Z</time>
      </trkpt>
      <trkpt lat="44.18206" lon="6.65331">
        <ele>1898</ele>
        <time>2020-03-21T14:57:56.882Z</time>
      </trkpt>
      <trkpt lat="44.18199" lon="6.65317">
        <ele>1898</ele>
        <time>2020-03-21T14:57:57.882Z</time>
      </trkpt>
      <trkpt lat="44.18197" lon="6.65313">
        <ele>1898</ele>
        <time>2020-03-21T14:57:58.882Z</time>
      </trkpt>
      <trkpt lat="44.18195" lon="6.65308">
        <ele>1898</ele>
        <time>2020-03-21T14:57:59.882Z</time>
      </trkpt>
      <trkpt lat="44.1819" lon="6.65295">
        <ele>1897</ele>
        <time>2020-03-21T14:58:00.882Z</time>
      </trkpt>
      <trkpt lat="44.18184" lon="6.65282">
        <ele>1896</ele>
        <time>2020-03-21T14:58:01.882Z</time>
      </trkpt>
      <trkpt lat="44.18178" lon="6.65272">
        <ele>1895</ele>
        <time>2020-03-21T14:58:02.882Z</time>
      </trkpt>
      <trkpt lat="44.18172" lon="6.65268">
        <ele>1896</ele>
        <time>2020-03-21T14:58:03.882Z</time>
      </trkpt>
      <trkpt lat="44.18162" lon="6.65273">
        <ele>1898</ele>
        <time>2020-03-21T14:58:04.882Z</time>
      </trkpt>
      <trkpt lat="44.18151" lon="6.65284">
        <ele>1899</ele>
        <time>2020-03-21T14:58:05.882Z</time>
      </trkpt>
      <trkpt lat="44.18142" lon="6.6529">
        <ele>1899</ele>
        <time>2020-03-21T14:58:06.882Z</time>
      </trkpt>
      <trkpt lat="44.18134" lon="6.65296">
        <ele>1899</ele>
        <time>2020-03-21T14:58:07.882Z</time>
      </trkpt>
      <trkpt lat="44.18124" lon="6.65305">
        <ele>1901</ele>
        <time>2020-03-21T14:58:08.882Z</time>
      </trkpt>
      <trkpt lat="44.18116" lon="6.65314">
        <ele>1902</ele>
        <time>2020-03-21T14:58:09.882Z</time>
      </trkpt>
      <trkpt lat="44.18106" lon="6.65324">
        <ele>1904</ele>
        <time>2020-03-21T14:58:10.882Z</time>
      </trkpt>
      <trkpt lat="44.181" lon="6.65332">
        <ele>1906</ele>
        <time>2020-03-21T14:58:11.882Z</time>
      </trkpt>
      <trkpt lat="44.18095" lon="6.65343">
        <ele>1910</ele>
        <time>2020-03-21T14:58:12.882Z</time>
      </trkpt>
      <trkpt lat="44.18093" lon="6.65349">
        <ele>1912</ele>
        <time>2020-03-21T14:58:13.882Z</time>
      </trkpt>
      <trkpt lat="44.18085" lon="6.65364">
        <ele>1917</ele>
        <time>2020-03-21T14:58:14.882Z</time>
      </trkpt>
      <trkpt lat="44.18078" lon="6.65374">
        <ele>1922</ele>
        <time>2020-03-21T14:58:15.882Z</time>
      </trkpt>
      <trkpt lat="44.18074" lon="6.65379">
        <ele>1924</ele>
        <time>2020-03-21T14:58:16.882Z</time>
      </trkpt>
      <trkpt lat="44.18072" lon="6.65382">
        <ele>1926</ele>
        <time>2020-03-21T14:58:17.882Z</time>
      </trkpt>
      <trkpt lat="44.18063" lon="6.65389">
        <ele>1930</ele>
        <time>2020-03-21T14:58:18.882Z</time>
      </trkpt>
      <trkpt lat="44.18056" lon="6.65385">
        <ele>1930</ele>
        <time>2020-03-21T14:58:19.882Z</time>
      </trkpt>
      <trkpt lat="44.18045" lon="6.65374">
        <ele>1926</ele>
        <time>2020-03-21T14:58:20.882Z</time>
      </trkpt>
      <trkpt lat="44.18035" lon="6.65365">
        <ele>1923</ele>
        <time>2020-03-21T14:58:21.882Z</time>
      </trkpt>
      <trkpt lat="44.18033" lon="6.65363">
        <ele>1922</ele>
        <time>2020-03-21T14:58:22.882Z</time>
      </trkpt>
      <trkpt lat="44.18031" lon="6.65366">
        <ele>1924</ele>
        <time>2020-03-21T14:58:23.882Z</time>
      </trkpt>
      <trkpt lat="44.18034" lon="6.65369">
        <ele>1925</ele>
        <time>2020-03-21T14:58:24.882Z</time>
      </trkpt>
      <trkpt lat="44.18037" lon="6.65371">
        <ele>1925</ele>
        <time>2020-03-21T14:58:25.882Z</time>
      </trkpt>
      <trkpt lat="44.18039" lon="6.65376">
        <ele>1928</ele>
        <time>2020-03-21T14:58:26.882Z</time>
      </trkpt>
      <trkpt lat="44.18042" lon="6.65379">
        <ele>1929</ele>
        <time>2020-03-21T14:58:27.882Z</time>
      </trkpt>
      <trkpt lat="44.18043" lon="6.65383">
        <ele>1930</ele>
        <time>2020-03-21T14:58:28.882Z</time>
      </trkpt>
      <trkpt lat="44.18044" lon="6.65386">
        <ele>1931</ele>
        <time>2020-03-21T14:58:29.882Z</time>
      </trkpt>
      <trkpt lat="44.18047" lon="6.65391">
        <ele>1934</ele>
        <time>2020-03-21T14:58:30.882Z</time>
      </trkpt>
      <trkpt lat="44.1805" lon="6.65407">
        <ele>1940</ele>
        <time>2020-03-21T14:58:31.882Z</time>
      </trkpt>
      <trkpt lat="44.18056" lon="6.65417">
        <ele>1944</ele>
        <time>2020-03-21T14:58:32.882Z</time>
      </trkpt>
      <trkpt lat="44.18067" lon="6.65418">
        <ele>1943</ele>
        <time>2020-03-21T14:58:33.882Z</time>
      </trkpt>
      <trkpt lat="44.18077" lon="6.65415">
        <ele>1939</ele>
        <time>2020-03-21T14:58:34.882Z</time>
      </trkpt>
      <trkpt lat="44.18084" lon="6.6541">
        <ele>1936</ele>
        <time>2020-03-21T14:58:35.882Z</time>
      </trkpt>
      <trkpt lat="44.18092" lon="6.65406">
        <ele>1935</ele>
        <time>2020-03-21T14:58:36.882Z</time>
      </trkpt>
      <trkpt lat="44.18098" lon="6.65401">
        <ele>1934</ele>
        <time>2020-03-21T14:58:37.882Z</time>
      </trkpt>
      <trkpt lat="44.18106" lon="6.65391">
        <ele>1931</ele>
        <time>2020-03-21T14:58:38.882Z</time>
      </trkpt>
      <trkpt lat="44.18108" lon="6.65393">
        <ele>1932</ele>
        <time>2020-03-21T14:58:39.882Z</time>
      </trkpt>
      <trkpt lat="44.18106" lon="6.65397">
        <ele>1933</ele>
        <time>2020-03-21T14:58:40.882Z</time>
      </trkpt>
      <trkpt lat="44.18103" lon="6.65401">
        <ele>1934</ele>
        <time>2020-03-21T14:58:41.882Z</time>
      </trkpt>
      <trkpt lat="44.18097" lon="6.65411">
        <ele>1938</ele>
        <time>2020-03-21T14:58:42.882Z</time>
      </trkpt>
      <trkpt lat="44.18092" lon="6.6542">
        <ele>1941</ele>
        <time>2020-03-21T14:58:43.882Z</time>
      </trkpt>
      <trkpt lat="44.18086" lon="6.65429">
        <ele>1945</ele>
        <time>2020-03-21T14:58:44.882Z</time>
      </trkpt>
      <trkpt lat="44.18084" lon="6.65432">
        <ele>1946</ele>
        <time>2020-03-21T14:58:45.882Z</time>
      </trkpt>
      <trkpt lat="44.18074" lon="6.65444">
        <ele>1953</ele>
        <time>2020-03-21T14:58:46.882Z</time>
      </trkpt>
      <trkpt lat="44.18068" lon="6.65453">
        <ele>1959</ele>
        <time>2020-03-21T14:58:47.882Z</time>
      </trkpt>
      <trkpt lat="44.18057" lon="6.6546">
        <ele>1964</ele>
        <time>2020-03-21T14:58:48.882Z</time>
      </trkpt>
      <trkpt lat="44.18048" lon="6.65454">
        <ele>1963</ele>
        <time>2020-03-21T14:58:49.882Z</time>
      </trkpt>
      <trkpt lat="44.18038" lon="6.65449">
        <ele>1962</ele>
        <time>2020-03-21T14:58:50.882Z</time>
      </trkpt>
      <trkpt lat="44.1803" lon="6.65443">
        <ele>1961</ele>
        <time>2020-03-21T14:58:51.882Z</time>
      </trkpt>
      <trkpt lat="44.18023" lon="6.65438">
        <ele>1960</ele>
        <time>2020-03-21T14:58:52.882Z</time>
      </trkpt>
      <trkpt lat="44.18015" lon="6.65431">
        <ele>1958</ele>
        <time>2020-03-21T14:58:53.882Z</time>
      </trkpt>
      <trkpt lat="44.18011" lon="6.65429">
        <ele>1957</ele>
        <time>2020-03-21T14:58:54.882Z</time>
      </trkpt>
      <trkpt lat="44.18004" lon="6.65429">
        <ele>1958</ele>
        <time>2020-03-21T14:58:55.882Z</time>
      </trkpt>
      <trkpt lat="44.18003" lon="6.65429">
        <ele>1959</ele>
        <time>2020-03-21T14:58:56.882Z</time>
      </trkpt>
      <trkpt lat="44.18" lon="6.65431">
        <ele>1960</ele>
        <time>2020-03-21T14:58:57.882Z</time>
      </trkpt>
      <trkpt lat="44.17995" lon="6.65432">
        <ele>1962</ele>
        <time>2020-03-21T14:58:58.882Z</time>
      </trkpt>
      <trkpt lat="44.17992" lon="6.65433">
        <ele>1964</ele>
        <time>2020-03-21T14:58:59.882Z</time>
      </trkpt>
      <trkpt lat="44.17985" lon="6.65436">
        <ele>1967</ele>
        <time>2020-03-21T14:59:00.882Z</time>
      </trkpt>
      <trkpt lat="44.17983" lon="6.65436">
        <ele>1968</ele>
        <time>2020-03-21T14:59:01.882Z</time>
      </trkpt>
      <trkpt lat="44.17978" lon="6.65438">
        <ele>1970</ele>
        <time>2020-03-21T14:59:02.882Z</time>
      </trkpt>
      <trkpt lat="44.17974" lon="6.6544">
        <ele>1972</ele>
        <time>2020-03-21T14:59:03.882Z</time>
      </trkpt>
      <trkpt lat="44.17972" lon="6.65441">
        <ele>1973</ele>
        <time>2020-03-21T14:59:04.882Z</time>
      </trkpt>
      <trkpt lat="44.17962" lon="6.65443">
        <ele>1977</ele>
        <time>2020-03-21T14:59:05.882Z</time>
      </trkpt>
      <trkpt lat="44.17955" lon="6.65443">
        <ele>1979</ele>
        <time>2020-03-21T14:59:06.882Z</time>
      </trkpt>
      <trkpt lat="44.17944" lon="6.65446">
        <ele>1984</ele>
        <time>2020-03-21T14:59:07.882Z</time>
      </trkpt>
      <trkpt lat="44.17935" lon="6.65453">
        <ele>1989</ele>
        <time>2020-03-21T14:59:08.882Z</time>
      </trkpt>
      <trkpt lat="44.17929" lon="6.65454">
        <ele>1990</ele>
        <time>2020-03-21T14:59:09.882Z</time>
      </trkpt>
      <trkpt lat="44.17924" lon="6.65454">
        <ele>1992</ele>
        <time>2020-03-21T14:59:10.882Z</time>
      </trkpt>
      <trkpt lat="44.1792" lon="6.65453">
        <ele>1992</ele>
        <time>2020-03-21T14:59:11.882Z</time>
      </trkpt>
      <trkpt lat="44.17913" lon="6.65447">
        <ele>1993</ele>
        <time>2020-03-21T14:59:12.882Z</time>
      </trkpt>
      <trkpt lat="44.17909" lon="6.65442">
        <ele>1994</ele>
        <time>2020-03-21T14:59:13.882Z</time>
      </trkpt>
      <trkpt lat="44.17907" lon="6.65436">
        <ele>1993</ele>
        <time>2020-03-21T14:59:14.882Z</time>
      </trkpt>
      <trkpt lat="44.17901" lon="6.65428">
        <ele>1994</ele>
        <time>2020-03-21T14:59:15.882Z</time>
      </trkpt>
      <trkpt lat="44.17899" lon="6.65417">
        <ele>1992</ele>
        <time>2020-03-21T14:59:16.882Z</time>
      </trkpt>
      <trkpt lat="44.17896" lon="6.65402">
        <ele>1987</ele>
        <time>2020-03-21T14:59:17.882Z</time>
      </trkpt>
      <trkpt lat="44.17893" lon="6.6539">
        <ele>1984</ele>
        <time>2020-03-21T14:59:18.882Z</time>
      </trkpt>
      <trkpt lat="44.1789" lon="6.65379">
        <ele>1981</ele>
        <time>2020-03-21T14:59:19.882Z</time>
      </trkpt>
      <trkpt lat="44.17885" lon="6.65367">
        <ele>1979</ele>
        <time>2020-03-21T14:59:20.882Z</time>
      </trkpt>
      <trkpt lat="44.17881" lon="6.65356">
        <ele>1976</ele>
        <time>2020-03-21T14:59:21.882Z</time>
      </trkpt>
      <trkpt lat="44.1788" lon="6.65354">
        <ele>1975</ele>
        <time>2020-03-21T14:59:22.882Z</time>
      </trkpt>
      <trkpt lat="44.17876" lon="6.6534">
        <ele>1971</ele>
        <time>2020-03-21T14:59:23.882Z</time>
      </trkpt>
      <trkpt lat="44.1787" lon="6.65328">
        <ele>1968</ele>
        <time>2020-03-21T14:59:24.882Z</time>
      </trkpt>
      <trkpt lat="44.17857" lon="6.65323">
        <ele>1971</ele>
        <time>2020-03-21T14:59:25.882Z</time>
      </trkpt>
      <trkpt lat="44.1784" lon="6.65321">
        <ele>1978</ele>
        <time>2020-03-21T14:59:26.882Z</time>
      </trkpt>
      <trkpt lat="44.17827" lon="6.65314">
        <ele>1977</ele>
        <time>2020-03-21T14:59:27.882Z</time>
      </trkpt>
      <trkpt lat="44.17813" lon="6.65308">
        <ele>1974</ele>
        <time>2020-03-21T14:59:28.882Z</time>
      </trkpt>
      <trkpt lat="44.17805" lon="6.65307">
        <ele>1974</ele>
        <time>2020-03-21T14:59:29.882Z</time>
      </trkpt>
      <trkpt lat="44.17804" lon="6.65306">
        <ele>1974</ele>
        <time>2020-03-21T14:59:30.882Z</time>
      </trkpt>
      <trkpt lat="44.17802" lon="6.65306">
        <ele>1974</ele>
        <time>2020-03-21T14:59:31.882Z</time>
      </trkpt>
      <trkpt lat="44.17794" lon="6.65304">
        <ele>1973</ele>
        <time>2020-03-21T14:59:32.882Z</time>
      </trkpt>
      <trkpt lat="44.17785" lon="6.65309">
        <ele>1976</ele>
        <time>2020-03-21T14:59:33.882Z</time>
      </trkpt>
      <trkpt lat="44.17773" lon="6.65314">
        <ele>1979</ele>
        <time>2020-03-21T14:59:34.882Z</time>
      </trkpt>
      <trkpt lat="44.17766" lon="6.65316">
        <ele>1981</ele>
        <time>2020-03-21T14:59:35.882Z</time>
      </trkpt>
      <trkpt lat="44.17757" lon="6.65322">
        <ele>1985</ele>
        <time>2020-03-21T14:59:36.882Z</time>
      </trkpt>
      <trkpt lat="44.17755" lon="6.65325">
        <ele>1986</ele>
        <time>2020-03-21T14:59:37.882Z</time>
      </trkpt>
      <trkpt lat="44.17746" lon="6.65336">
        <ele>1992</ele>
        <time>2020-03-21T14:59:38.882Z</time>
      </trkpt>
      <trkpt lat="44.17745" lon="6.65337">
        <ele>1992</ele>
        <time>2020-03-21T14:59:39.882Z</time>
      </trkpt>
      <trkpt lat="44.17736" lon="6.65344">
        <ele>1994</ele>
        <time>2020-03-21T14:59:40.882Z</time>
      </trkpt>
      <trkpt lat="44.17733" lon="6.65346">
        <ele>1994</ele>
        <time>2020-03-21T14:59:41.882Z</time>
      </trkpt>
      <trkpt lat="44.17723" lon="6.6535">
        <ele>1994</ele>
        <time>2020-03-21T14:59:42.882Z</time>
      </trkpt>
      <trkpt lat="44.17714" lon="6.65352">
        <ele>1994</ele>
        <time>2020-03-21T14:59:43.882Z</time>
      </trkpt>
      <trkpt lat="44.17705" lon="6.65355">
        <ele>1994</ele>
        <time>2020-03-21T14:59:44.882Z</time>
      </trkpt>
      <trkpt lat="44.17699" lon="6.65359">
        <ele>1995</ele>
        <time>2020-03-21T14:59:45.882Z</time>
      </trkpt>
      <trkpt lat="44.17689" lon="6.65361">
        <ele>1994</ele>
        <time>2020-03-21T14:59:46.882Z</time>
      </trkpt>
      <trkpt lat="44.1768" lon="6.65366">
        <ele>1995</ele>
        <time>2020-03-21T14:59:47.882Z</time>
      </trkpt>
      <trkpt lat="44.17671" lon="6.65374">
        <ele>1998</ele>
        <time>2020-03-21T14:59:48.882Z</time>
      </trkpt>
      <trkpt lat="44.17663" lon="6.65379">
        <ele>2000</ele>
        <time>2020-03-21T14:59:49.882Z</time>
      </trkpt>
      <trkpt lat="44.17653" lon="6.65387">
        <ele>2004</ele>
        <time>2020-03-21T14:59:50.882Z</time>
      </trkpt>
      <trkpt lat="44.17644" lon="6.65391">
        <ele>2006</ele>
        <time>2020-03-21T14:59:51.882Z</time>
      </trkpt>
      <trkpt lat="44.17633" lon="6.65398">
        <ele>2010</ele>
        <time>2020-03-21T14:59:52.882Z</time>
      </trkpt>
      <trkpt lat="44.17619" lon="6.65404">
        <ele>2012</ele>
        <time>2020-03-21T14:59:53.882Z</time>
      </trkpt>
      <trkpt lat="44.17612" lon="6.65414">
        <ele>2016</ele>
        <time>2020-03-21T14:59:54.882Z</time>
      </trkpt>
      <trkpt lat="44.17601" lon="6.65416">
        <ele>2017</ele>
        <time>2020-03-21T14:59:55.882Z</time>
      </trkpt>
      <trkpt lat="44.17593" lon="6.65417">
        <ele>2017</ele>
        <time>2020-03-21T14:59:56.882Z</time>
      </trkpt>
      <trkpt lat="44.17587" lon="6.65421">
        <ele>2018</ele>
        <time>2020-03-21T14:59:57.882Z</time>
      </trkpt>
      <trkpt lat="44.17578" lon="6.65421">
        <ele>2018</ele>
        <time>2020-03-21T14:59:58.882Z</time>
      </trkpt>
      <trkpt lat="44.17565" lon="6.65424">
        <ele>2020</ele>
        <time>2020-03-21T14:59:59.882Z</time>
      </trkpt>
      <trkpt lat="44.17555" lon="6.65427">
        <ele>2021</ele>
        <time>2020-03-21T15:00:00.882Z</time>
      </trkpt>
      <trkpt lat="44.17547" lon="6.65426">
        <ele>2022</ele>
        <time>2020-03-21T15:00:01.882Z</time>
      </trkpt>
      <trkpt lat="44.17537" lon="6.65425">
        <ele>2022</ele>
        <time>2020-03-21T15:00:02.882Z</time>
      </trkpt>
      <trkpt lat="44.17527" lon="6.65428">
        <ele>2024</ele>
        <time>2020-03-21T15:00:03.882Z</time>
      </trkpt>
      <trkpt lat="44.17522" lon="6.65433">
        <ele>2025</ele>
        <time>2020-03-21T15:00:04.882Z</time>
      </trkpt>
      <trkpt lat="44.17513" lon="6.65429">
        <ele>2025</ele>
        <time>2020-03-21T15:00:05.882Z</time>
      </trkpt>
      <trkpt lat="44.1751" lon="6.65428">
        <ele>2025</ele>
        <time>2020-03-21T15:00:06.882Z</time>
      </trkpt>
      <trkpt lat="44.17497" lon="6.6543">
        <ele>2026</ele>
        <time>2020-03-21T15:00:07.882Z</time>
      </trkpt>
      <trkpt lat="44.17492" lon="6.65431">
        <ele>2027</ele>
        <time>2020-03-21T15:00:08.882Z</time>
      </trkpt>
      <trkpt lat="44.17485" lon="6.65443">
        <ele>2030</ele>
        <time>2020-03-21T15:00:09.882Z</time>
      </trkpt>
      <trkpt lat="44.17483" lon="6.65449">
        <ele>2032</ele>
        <time>2020-03-21T15:00:10.882Z</time>
      </trkpt>
      <trkpt lat="44.17476" lon="6.65448">
        <ele>2032</ele>
        <time>2020-03-21T15:00:11.882Z</time>
      </trkpt>
      <trkpt lat="44.17467" lon="6.6544">
        <ele>2031</ele>
        <time>2020-03-21T15:00:12.882Z</time>
      </trkpt>
      <trkpt lat="44.17463" lon="6.65439">
        <ele>2031</ele>
        <time>2020-03-21T15:00:13.882Z</time>
      </trkpt>
      <trkpt lat="44.17454" lon="6.65438">
        <ele>2032</ele>
        <time>2020-03-21T15:00:14.882Z</time>
      </trkpt>
      <trkpt lat="44.17445" lon="6.65448">
        <ele>2034</ele>
        <time>2020-03-21T15:00:15.882Z</time>
      </trkpt>
      <trkpt lat="44.17438" lon="6.65455">
        <ele>2036</ele>
        <time>2020-03-21T15:00:16.882Z</time>
      </trkpt>
      <trkpt lat="44.17437" lon="6.65454">
        <ele>2036</ele>
        <time>2020-03-21T15:00:17.882Z</time>
      </trkpt>
      <trkpt lat="44.17433" lon="6.65436">
        <ele>2033</ele>
        <time>2020-03-21T15:00:18.882Z</time>
      </trkpt>
      <trkpt lat="44.17431" lon="6.65425">
        <ele>2032</ele>
        <time>2020-03-21T15:00:19.882Z</time>
      </trkpt>
      <trkpt lat="44.17422" lon="6.65415">
        <ele>2031</ele>
        <time>2020-03-21T15:00:20.882Z</time>
      </trkpt>
      <trkpt lat="44.17414" lon="6.65422">
        <ele>2033</ele>
        <time>2020-03-21T15:00:21.882Z</time>
      </trkpt>
      <trkpt lat="44.17405" lon="6.65435">
        <ele>2037</ele>
        <time>2020-03-21T15:00:22.882Z</time>
      </trkpt>
      <trkpt lat="44.17398" lon="6.65446">
        <ele>2039</ele>
        <time>2020-03-21T15:00:23.882Z</time>
      </trkpt>
      <trkpt lat="44.17386" lon="6.65465">
        <ele>2043</ele>
        <time>2020-03-21T15:00:24.882Z</time>
      </trkpt>
      <trkpt lat="44.17374" lon="6.65486">
        <ele>2047</ele>
        <time>2020-03-21T15:00:25.882Z</time>
      </trkpt>
      <trkpt lat="44.17363" lon="6.65504">
        <ele>2051</ele>
        <time>2020-03-21T15:00:26.882Z</time>
      </trkpt>
      <trkpt lat="44.17354" lon="6.65517">
        <ele>2053</ele>
        <time>2020-03-21T15:00:27.882Z</time>
      </trkpt>
      <trkpt lat="44.17352" lon="6.65522">
        <ele>2054</ele>
        <time>2020-03-21T15:00:28.882Z</time>
      </trkpt>
      <trkpt lat="44.17346" lon="6.6552">
        <ele>2055</ele>
        <time>2020-03-21T15:00:29.882Z</time>
      </trkpt>
      <trkpt lat="44.17346" lon="6.65518">
        <ele>2054</ele>
        <time>2020-03-21T15:00:30.882Z</time>
      </trkpt>
      <trkpt lat="44.17344" lon="6.65504">
        <ele>2053</ele>
        <time>2020-03-21T15:00:31.882Z</time>
      </trkpt>
      <trkpt lat="44.17343" lon="6.65491">
        <ele>2052</ele>
        <time>2020-03-21T15:00:32.882Z</time>
      </trkpt>
      <trkpt lat="44.17342" lon="6.6549">
        <ele>2052</ele>
        <time>2020-03-21T15:00:33.882Z</time>
      </trkpt>
      <trkpt lat="44.17342" lon="6.6548">
        <ele>2051</ele>
        <time>2020-03-21T15:00:34.882Z</time>
      </trkpt>
      <trkpt lat="44.17344" lon="6.65472">
        <ele>2050</ele>
        <time>2020-03-21T15:00:35.882Z</time>
      </trkpt>
      <trkpt lat="44.17343" lon="6.65464">
        <ele>2050</ele>
        <time>2020-03-21T15:00:36.882Z</time>
      </trkpt>
      <trkpt lat="44.17342" lon="6.65454">
        <ele>2049</ele>
        <time>2020-03-21T15:00:37.882Z</time>
      </trkpt>
      <trkpt lat="44.17341" lon="6.65437">
        <ele>2047</ele>
        <time>2020-03-21T15:00:38.882Z</time>
      </trkpt>
      <trkpt lat="44.1734" lon="6.65428">
        <ele>2047</ele>
        <time>2020-03-21T15:00:39.882Z</time>
      </trkpt>
      <trkpt lat="44.17334" lon="6.65402">
        <ele>2044</ele>
        <time>2020-03-21T15:00:40.882Z</time>
      </trkpt>
      <trkpt lat="44.17332" lon="6.65397">
        <ele>2044</ele>
        <time>2020-03-21T15:00:41.882Z</time>
      </trkpt>
      <trkpt lat="44.17327" lon="6.65374">
        <ele>2042</ele>
        <time>2020-03-21T15:00:42.882Z</time>
      </trkpt>
      <trkpt lat="44.17322" lon="6.65364">
        <ele>2043</ele>
        <time>2020-03-21T15:00:43.882Z</time>
      </trkpt>
      <trkpt lat="44.17315" lon="6.65359">
        <ele>2045</ele>
        <time>2020-03-21T15:00:44.882Z</time>
      </trkpt>
      <trkpt lat="44.17314" lon="6.65342">
        <ele>2042</ele>
        <time>2020-03-21T15:00:45.882Z</time>
      </trkpt>
      <trkpt lat="44.17311" lon="6.65323">
        <ele>2038</ele>
        <time>2020-03-21T15:00:46.882Z</time>
      </trkpt>
      <trkpt lat="44.17309" lon="6.65317">
        <ele>2037</ele>
        <time>2020-03-21T15:00:47.882Z</time>
      </trkpt>
      <trkpt lat="44.17295" lon="6.65292">
        <ele>2035</ele>
        <time>2020-03-21T15:00:48.882Z</time>
      </trkpt>
      <trkpt lat="44.1729" lon="6.65283">
        <ele>2035</ele>
        <time>2020-03-21T15:00:49.882Z</time>
      </trkpt>
      <trkpt lat="44.17278" lon="6.65265">
        <ele>2034</ele>
        <time>2020-03-21T15:00:50.882Z</time>
      </trkpt>
      <trkpt lat="44.17266" lon="6.65244">
        <ele>2032</ele>
        <time>2020-03-21T15:00:51.882Z</time>
      </trkpt>
      <trkpt lat="44.17251" lon="6.6522">
        <ele>2029</ele>
        <time>2020-03-21T15:00:52.882Z</time>
      </trkpt>
      <trkpt lat="44.17241" lon="6.65199">
        <ele>2025</ele>
        <time>2020-03-21T15:00:53.882Z</time>
      </trkpt>
      <trkpt lat="44.17232" lon="6.65181">
        <ele>2022</ele>
        <time>2020-03-21T15:00:54.882Z</time>
      </trkpt>
      <trkpt lat="44.17224" lon="6.65165">
        <ele>2020</ele>
        <time>2020-03-21T15:00:55.882Z</time>
      </trkpt>
      <trkpt lat="44.17205" lon="6.65143">
        <ele>2018</ele>
        <time>2020-03-21T15:00:56.882Z</time>
      </trkpt>
      <trkpt lat="44.1719" lon="6.65121">
        <ele>2015</ele>
        <time>2020-03-21T15:00:57.882Z</time>
      </trkpt>
      <trkpt lat="44.17186" lon="6.65112">
        <ele>2013</ele>
        <time>2020-03-21T15:00:58.882Z</time>
      </trkpt>
      <trkpt lat="44.1718" lon="6.65103">
        <ele>2011</ele>
        <time>2020-03-21T15:00:59.882Z</time>
      </trkpt>
      <trkpt lat="44.17167" lon="6.65086">
        <ele>2010</ele>
        <time>2020-03-21T15:01:00.882Z</time>
      </trkpt>
      <trkpt lat="44.17156" lon="6.65079">
        <ele>2005</ele>
        <time>2020-03-21T15:01:01.882Z</time>
      </trkpt>
      <trkpt lat="44.17136" lon="6.65084">
        <ele>2002</ele>
        <time>2020-03-21T15:01:02.882Z</time>
      </trkpt>
      <trkpt lat="44.1712" lon="6.65097">
        <ele>2005</ele>
        <time>2020-03-21T15:01:03.882Z</time>
      </trkpt>
      <trkpt lat="44.1711" lon="6.65096">
        <ele>2002</ele>
        <time>2020-03-21T15:01:04.882Z</time>
      </trkpt>
      <trkpt lat="44.17086" lon="6.65109">
        <ele>2004</ele>
        <time>2020-03-21T15:01:05.882Z</time>
      </trkpt>
      <trkpt lat="44.17083" lon="6.65109">
        <ele>2003</ele>
        <time>2020-03-21T15:01:06.882Z</time>
      </trkpt>
      <trkpt lat="44.17067" lon="6.65116">
        <ele>2004</ele>
        <time>2020-03-21T15:01:07.882Z</time>
      </trkpt>
      <trkpt lat="44.17054" lon="6.65125">
        <ele>2006</ele>
        <time>2020-03-21T15:01:08.882Z</time>
      </trkpt>
      <trkpt lat="44.1703" lon="6.65122">
        <ele>2000</ele>
        <time>2020-03-21T15:01:09.882Z</time>
      </trkpt>
      <trkpt lat="44.17015" lon="6.65119">
        <ele>1996</ele>
        <time>2020-03-21T15:01:10.882Z</time>
      </trkpt>
      <trkpt lat="44.16999" lon="6.65124">
        <ele>1996</ele>
        <time>2020-03-21T15:01:11.882Z</time>
      </trkpt>
      <trkpt lat="44.16982" lon="6.65142">
        <ele>2000</ele>
        <time>2020-03-21T15:01:12.882Z</time>
      </trkpt>
      <trkpt lat="44.16976" lon="6.65152">
        <ele>2003</ele>
        <time>2020-03-21T15:01:13.882Z</time>
      </trkpt>
      <trkpt lat="44.16972" lon="6.65164">
        <ele>2007</ele>
        <time>2020-03-21T15:01:14.882Z</time>
      </trkpt>
      <trkpt lat="44.16962" lon="6.65187">
        <ele>2010</ele>
        <time>2020-03-21T15:01:15.882Z</time>
      </trkpt>
      <trkpt lat="44.16962" lon="6.65219">
        <ele>2017</ele>
        <time>2020-03-21T15:01:16.882Z</time>
      </trkpt>
      <trkpt lat="44.16961" lon="6.65224">
        <ele>2017</ele>
        <time>2020-03-21T15:01:17.882Z</time>
      </trkpt>
      <trkpt lat="44.16947" lon="6.65232">
        <ele>2016</ele>
        <time>2020-03-21T15:01:18.882Z</time>
      </trkpt>
      <trkpt lat="44.16945" lon="6.65237">
        <ele>2016</ele>
        <time>2020-03-21T15:01:19.882Z</time>
      </trkpt>
      <trkpt lat="44.16939" lon="6.65248">
        <ele>2018</ele>
        <time>2020-03-21T15:01:20.882Z</time>
      </trkpt>
      <trkpt lat="44.16936" lon="6.65258">
        <ele>2019</ele>
        <time>2020-03-21T15:01:21.882Z</time>
      </trkpt>
      <trkpt lat="44.16931" lon="6.65259">
        <ele>2019</ele>
        <time>2020-03-21T15:01:22.882Z</time>
      </trkpt>
      <trkpt lat="44.16929" lon="6.65252">
        <ele>2016</ele>
        <time>2020-03-21T15:01:23.882Z</time>
      </trkpt>
      <trkpt lat="44.16918" lon="6.65233">
        <ele>2009</ele>
        <time>2020-03-21T15:01:24.882Z</time>
      </trkpt>
      <trkpt lat="44.169" lon="6.6522">
        <ele>2003</ele>
        <time>2020-03-21T15:01:25.882Z</time>
      </trkpt>
      <trkpt lat="44.16881" lon="6.65208">
        <ele>1997</ele>
        <time>2020-03-21T15:01:26.882Z</time>
      </trkpt>
      <trkpt lat="44.16846" lon="6.65202">
        <ele>1989</ele>
        <time>2020-03-21T15:01:27.882Z</time>
      </trkpt>
      <trkpt lat="44.16818" lon="6.65212">
        <ele>1984</ele>
        <time>2020-03-21T15:01:28.882Z</time>
      </trkpt>
      <trkpt lat="44.16798" lon="6.65231">
        <ele>1982</ele>
        <time>2020-03-21T15:01:29.882Z</time>
      </trkpt>
      <trkpt lat="44.16782" lon="6.65246">
        <ele>1980</ele>
        <time>2020-03-21T15:01:30.882Z</time>
      </trkpt>
      <trkpt lat="44.16774" lon="6.65255">
        <ele>1978</ele>
        <time>2020-03-21T15:01:31.882Z</time>
      </trkpt>
      <trkpt lat="44.16759" lon="6.65276">
        <ele>1976</ele>
        <time>2020-03-21T15:01:32.882Z</time>
      </trkpt>
      <trkpt lat="44.1675" lon="6.65305">
        <ele>1977</ele>
        <time>2020-03-21T15:01:33.882Z</time>
      </trkpt>
      <trkpt lat="44.16752" lon="6.65319">
        <ele>1982</ele>
        <time>2020-03-21T15:01:34.882Z</time>
      </trkpt>
      <trkpt lat="44.16753" lon="6.6533">
        <ele>1985</ele>
        <time>2020-03-21T15:01:35.882Z</time>
      </trkpt>
      <trkpt lat="44.16755" lon="6.65348">
        <ele>1989</ele>
        <time>2020-03-21T15:01:36.882Z</time>
      </trkpt>
      <trkpt lat="44.16754" lon="6.65369">
        <ele>1990</ele>
        <time>2020-03-21T15:01:37.882Z</time>
      </trkpt>
      <trkpt lat="44.16751" lon="6.65396">
        <ele>1992</ele>
        <time>2020-03-21T15:01:38.882Z</time>
      </trkpt>
      <trkpt lat="44.16749" lon="6.65414">
        <ele>1993</ele>
        <time>2020-03-21T15:01:39.882Z</time>
      </trkpt>
      <trkpt lat="44.16748" lon="6.65436">
        <ele>1997</ele>
        <time>2020-03-21T15:01:40.882Z</time>
      </trkpt>
      <trkpt lat="44.16731" lon="6.65448">
        <ele>1991</ele>
        <time>2020-03-21T15:01:41.882Z</time>
      </trkpt>
      <trkpt lat="44.16725" lon="6.65454">
        <ele>1990</ele>
        <time>2020-03-21T15:01:42.882Z</time>
      </trkpt>
      <trkpt lat="44.16716" lon="6.65461">
        <ele>1988</ele>
        <time>2020-03-21T15:01:43.882Z</time>
      </trkpt>
      <trkpt lat="44.167" lon="6.6547">
        <ele>1984</ele>
        <time>2020-03-21T15:01:44.882Z</time>
      </trkpt>
      <trkpt lat="44.16678" lon="6.65472">
        <ele>1977</ele>
        <time>2020-03-21T15:01:45.882Z</time>
      </trkpt>
      <trkpt lat="44.16645" lon="6.6548">
        <ele>1972</ele>
        <time>2020-03-21T15:01:46.882Z</time>
      </trkpt>
      <trkpt lat="44.16628" lon="6.65487">
        <ele>1971</ele>
        <time>2020-03-21T15:01:47.882Z</time>
      </trkpt>
      <trkpt lat="44.16612" lon="6.65497">
        <ele>1972</ele>
        <time>2020-03-21T15:01:48.882Z</time>
      </trkpt>
      <trkpt lat="44.16584" lon="6.65519">
        <ele>1972</ele>
        <time>2020-03-21T15:01:49.882Z</time>
      </trkpt>
      <trkpt lat="44.16572" lon="6.65534">
        <ele>1968</ele>
        <time>2020-03-21T15:01:50.882Z</time>
      </trkpt>
      <trkpt lat="44.16562" lon="6.6555">
        <ele>1965</ele>
        <time>2020-03-21T15:01:51.882Z</time>
      </trkpt>
      <trkpt lat="44.16552" lon="6.65571">
        <ele>1964</ele>
        <time>2020-03-21T15:01:52.882Z</time>
      </trkpt>
      <trkpt lat="44.16549" lon="6.65592">
        <ele>1966</ele>
        <time>2020-03-21T15:01:53.882Z</time>
      </trkpt>
      <trkpt lat="44.16557" lon="6.65594">
        <ele>1970</ele>
        <time>2020-03-21T15:01:54.882Z</time>
      </trkpt>
      <trkpt lat="44.1657" lon="6.65595">
        <ele>1979</ele>
        <time>2020-03-21T15:01:55.882Z</time>
      </trkpt>
      <trkpt lat="44.16579" lon="6.65597">
        <ele>1984</ele>
        <time>2020-03-21T15:01:56.882Z</time>
      </trkpt>
      <trkpt lat="44.16588" lon="6.65598">
        <ele>1987</ele>
        <time>2020-03-21T15:01:57.882Z</time>
      </trkpt>
      <trkpt lat="44.166" lon="6.65605">
        <ele>1991</ele>
        <time>2020-03-21T15:01:58.882Z</time>
      </trkpt>
      <trkpt lat="44.16623" lon="6.65621">
        <ele>1997</ele>
        <time>2020-03-21T15:01:59.882Z</time>
      </trkpt>
      <trkpt lat="44.16635" lon="6.65631">
        <ele>2001</ele>
        <time>2020-03-21T15:02:00.882Z</time>
      </trkpt>
      <trkpt lat="44.16635" lon="6.65636">
        <ele>2001</ele>
        <time>2020-03-21T15:02:01.882Z</time>
      </trkpt>
      <trkpt lat="44.16633" lon="6.65639">
        <ele>2000</ele>
        <time>2020-03-21T15:02:02.882Z</time>
      </trkpt>
      <trkpt lat="44.16627" lon="6.65643">
        <ele>1998</ele>
        <time>2020-03-21T15:02:03.882Z</time>
      </trkpt>
      <trkpt lat="44.1662" lon="6.65644">
        <ele>1995</ele>
        <time>2020-03-21T15:02:04.882Z</time>
      </trkpt>
      <trkpt lat="44.16612" lon="6.65647">
        <ele>1992</ele>
        <time>2020-03-21T15:02:05.882Z</time>
      </trkpt>
      <trkpt lat="44.16601" lon="6.6565">
        <ele>1988</ele>
        <time>2020-03-21T15:02:06.882Z</time>
      </trkpt>
      <trkpt lat="44.1659" lon="6.65658">
        <ele>1984</ele>
        <time>2020-03-21T15:02:07.882Z</time>
      </trkpt>
      <trkpt lat="44.16575" lon="6.65674">
        <ele>1980</ele>
        <time>2020-03-21T15:02:08.882Z</time>
      </trkpt>
      <trkpt lat="44.16566" lon="6.65686">
        <ele>1981</ele>
        <time>2020-03-21T15:02:09.882Z</time>
      </trkpt>
      <trkpt lat="44.16559" lon="6.65707">
        <ele>1984</ele>
        <time>2020-03-21T15:02:10.882Z</time>
      </trkpt>
      <trkpt lat="44.1655" lon="6.65713">
        <ele>1984</ele>
        <time>2020-03-21T15:02:11.882Z</time>
      </trkpt>
      <trkpt lat="44.16543" lon="6.65721">
        <ele>1984</ele>
        <time>2020-03-21T15:02:12.882Z</time>
      </trkpt>
      <trkpt lat="44.16542" lon="6.65723">
        <ele>1984</ele>
        <time>2020-03-21T15:02:13.882Z</time>
      </trkpt>
      <trkpt lat="44.16538" lon="6.65735">
        <ele>1987</ele>
        <time>2020-03-21T15:02:14.882Z</time>
      </trkpt>
      <trkpt lat="44.16537" lon="6.65739">
        <ele>1988</ele>
        <time>2020-03-21T15:02:15.882Z</time>
      </trkpt>
      <trkpt lat="44.16537" lon="6.65743">
        <ele>1989</ele>
        <time>2020-03-21T15:02:16.882Z</time>
      </trkpt>
      <trkpt lat="44.16531" lon="6.65759">
        <ele>1992</ele>
        <time>2020-03-21T15:02:17.882Z</time>
      </trkpt>
      <trkpt lat="44.1653" lon="6.65764">
        <ele>1993</ele>
        <time>2020-03-21T15:02:18.882Z</time>
      </trkpt>
      <trkpt lat="44.16517" lon="6.65766">
        <ele>1991</ele>
        <time>2020-03-21T15:02:19.882Z</time>
      </trkpt>
      <trkpt lat="44.16514" lon="6.65767">
        <ele>1990</ele>
        <time>2020-03-21T15:02:20.882Z</time>
      </trkpt>
      <trkpt lat="44.165" lon="6.65781">
        <ele>1991</ele>
        <time>2020-03-21T15:02:21.882Z</time>
      </trkpt>
      <trkpt lat="44.16498" lon="6.65799">
        <ele>1995</ele>
        <time>2020-03-21T15:02:22.882Z</time>
      </trkpt>
      <trkpt lat="44.16496" lon="6.65815">
        <ele>1999</ele>
        <time>2020-03-21T15:02:23.882Z</time>
      </trkpt>
      <trkpt lat="44.16491" lon="6.65815">
        <ele>2000</ele>
        <time>2020-03-21T15:02:24.882Z</time>
      </trkpt>
      <trkpt lat="44.16482" lon="6.65797">
        <ele>1997</ele>
        <time>2020-03-21T15:02:25.882Z</time>
      </trkpt>
      <trkpt lat="44.16474" lon="6.6578">
        <ele>1994</ele>
        <time>2020-03-21T15:02:26.882Z</time>
      </trkpt>
      <trkpt lat="44.16464" lon="6.65762">
        <ele>1991</ele>
        <time>2020-03-21T15:02:27.882Z</time>
      </trkpt>
      <trkpt lat="44.16451" lon="6.6575">
        <ele>1989</ele>
        <time>2020-03-21T15:02:28.882Z</time>
      </trkpt>
      <trkpt lat="44.1644" lon="6.6574">
        <ele>1986</ele>
        <time>2020-03-21T15:02:29.882Z</time>
      </trkpt>
      <trkpt lat="44.16425" lon="6.65727">
        <ele>1981</ele>
        <time>2020-03-21T15:02:30.882Z</time>
      </trkpt>
      <trkpt lat="44.16414" lon="6.65715">
        <ele>1977</ele>
        <time>2020-03-21T15:02:31.882Z</time>
      </trkpt>
      <trkpt lat="44.164" lon="6.65712">
        <ele>1973</ele>
        <time>2020-03-21T15:02:32.882Z</time>
      </trkpt>
      <trkpt lat="44.16388" lon="6.65713">
        <ele>1971</ele>
        <time>2020-03-21T15:02:33.882Z</time>
      </trkpt>
      <trkpt lat="44.16379" lon="6.65722">
        <ele>1974</ele>
        <time>2020-03-21T15:02:34.882Z</time>
      </trkpt>
      <trkpt lat="44.16376" lon="6.65728">
        <ele>1976</ele>
        <time>2020-03-21T15:02:35.882Z</time>
      </trkpt>
      <trkpt lat="44.16363" lon="6.65734">
        <ele>1977</ele>
        <time>2020-03-21T15:02:36.882Z</time>
      </trkpt>
      <trkpt lat="44.16354" lon="6.65739">
        <ele>1979</ele>
        <time>2020-03-21T15:02:37.882Z</time>
      </trkpt>
      <trkpt lat="44.16347" lon="6.65738">
        <ele>1977</ele>
        <time>2020-03-21T15:02:38.882Z</time>
      </trkpt>
      <trkpt lat="44.16331" lon="6.65731">
        <ele>1971</ele>
        <time>2020-03-21T15:02:39.882Z</time>
      </trkpt>
      <trkpt lat="44.16313" lon="6.65734">
        <ele>1969</ele>
        <time>2020-03-21T15:02:40.882Z</time>
      </trkpt>
      <trkpt lat="44.16299" lon="6.65742">
        <ele>1971</ele>
        <time>2020-03-21T15:02:41.882Z</time>
      </trkpt>
      <trkpt lat="44.16287" lon="6.65754">
        <ele>1975</ele>
        <time>2020-03-21T15:02:42.882Z</time>
      </trkpt>
      <trkpt lat="44.16274" lon="6.6576">
        <ele>1975</ele>
        <time>2020-03-21T15:02:43.882Z</time>
      </trkpt>
      <trkpt lat="44.1626" lon="6.65762">
        <ele>1973</ele>
        <time>2020-03-21T15:02:44.882Z</time>
      </trkpt>
      <trkpt lat="44.16244" lon="6.65761">
        <ele>1967</ele>
        <time>2020-03-21T15:02:45.882Z</time>
      </trkpt>
      <trkpt lat="44.16232" lon="6.65758">
        <ele>1957</ele>
        <time>2020-03-21T15:02:46.882Z</time>
      </trkpt>
      <trkpt lat="44.16216" lon="6.65751">
        <ele>1944</ele>
        <time>2020-03-21T15:02:47.882Z</time>
      </trkpt>
      <trkpt lat="44.16212" lon="6.65768">
        <ele>1948</ele>
        <time>2020-03-21T15:02:48.882Z</time>
      </trkpt>
      <trkpt lat="44.16209" lon="6.65787">
        <ele>1953</ele>
        <time>2020-03-21T15:02:49.882Z</time>
      </trkpt>
      <trkpt lat="44.16201" lon="6.65807">
        <ele>1954</ele>
        <time>2020-03-21T15:02:50.882Z</time>
      </trkpt>
      <trkpt lat="44.16204" lon="6.65825">
        <ele>1963</ele>
        <time>2020-03-21T15:02:51.882Z</time>
      </trkpt>
      <trkpt lat="44.162" lon="6.65839">
        <ele>1963</ele>
        <time>2020-03-21T15:02:52.882Z</time>
      </trkpt>
      <trkpt lat="44.16196" lon="6.65845">
        <ele>1961</ele>
        <time>2020-03-21T15:02:53.882Z</time>
      </trkpt>
      <trkpt lat="44.16192" lon="6.65851">
        <ele>1958</ele>
        <time>2020-03-21T15:02:54.882Z</time>
      </trkpt>
      <trkpt lat="44.16194" lon="6.65867">
        <ele>1962</ele>
        <time>2020-03-21T15:02:55.882Z</time>
      </trkpt>
      <trkpt lat="44.16205" lon="6.65883">
        <ele>1972</ele>
        <time>2020-03-21T15:02:56.882Z</time>
      </trkpt>
      <trkpt lat="44.16213" lon="6.65898">
        <ele>1980</ele>
        <time>2020-03-21T15:02:57.882Z</time>
      </trkpt>
      <trkpt lat="44.16215" lon="6.65926">
        <ele>1984</ele>
        <time>2020-03-21T15:02:58.882Z</time>
      </trkpt>
      <trkpt lat="44.16209" lon="6.65942">
        <ele>1980</ele>
        <time>2020-03-21T15:02:59.882Z</time>
      </trkpt>
      <trkpt lat="44.16199" lon="6.6596">
        <ele>1974</ele>
        <time>2020-03-21T15:03:00.882Z</time>
      </trkpt>
      <trkpt lat="44.16195" lon="6.65979">
        <ele>1973</ele>
        <time>2020-03-21T15:03:01.882Z</time>
      </trkpt>
      <trkpt lat="44.16192" lon="6.66008">
        <ele>1971</ele>
        <time>2020-03-21T15:03:02.882Z</time>
      </trkpt>
      <trkpt lat="44.16194" lon="6.66033">
        <ele>1971</ele>
        <time>2020-03-21T15:03:03.882Z</time>
      </trkpt>
      <trkpt lat="44.16196" lon="6.66038">
        <ele>1972</ele>
        <time>2020-03-21T15:03:04.882Z</time>
      </trkpt>
      <trkpt lat="44.1621" lon="6.66064">
        <ele>1978</ele>
        <time>2020-03-21T15:03:05.882Z</time>
      </trkpt>
      <trkpt lat="44.16222" lon="6.66074">
        <ele>1985</ele>
        <time>2020-03-21T15:03:06.882Z</time>
      </trkpt>
      <trkpt lat="44.16228" lon="6.66077">
        <ele>1988</ele>
        <time>2020-03-21T15:03:07.882Z</time>
      </trkpt>
      <trkpt lat="44.16231" lon="6.6609">
        <ele>1989</ele>
        <time>2020-03-21T15:03:08.882Z</time>
      </trkpt>
      <trkpt lat="44.16232" lon="6.66102">
        <ele>1988</ele>
        <time>2020-03-21T15:03:09.882Z</time>
      </trkpt>
      <trkpt lat="44.16234" lon="6.66104">
        <ele>1989</ele>
        <time>2020-03-21T15:03:10.882Z</time>
      </trkpt>
      <trkpt lat="44.16244" lon="6.66119">
        <ele>1992</ele>
        <time>2020-03-21T15:03:11.882Z</time>
      </trkpt>
      <trkpt lat="44.16246" lon="6.66137">
        <ele>1990</ele>
        <time>2020-03-21T15:03:12.882Z</time>
      </trkpt>
      <trkpt lat="44.16252" lon="6.66163">
        <ele>1989</ele>
        <time>2020-03-21T15:03:13.882Z</time>
      </trkpt>
      <trkpt lat="44.16256" lon="6.66175">
        <ele>1990</ele>
        <time>2020-03-21T15:03:14.882Z</time>
      </trkpt>
      <trkpt lat="44.16264" lon="6.66186">
        <ele>1993</ele>
        <time>2020-03-21T15:03:15.882Z</time>
      </trkpt>
      <trkpt lat="44.16275" lon="6.66195">
        <ele>1997</ele>
        <time>2020-03-21T15:03:16.882Z</time>
      </trkpt>
      <trkpt lat="44.16278" lon="6.66205">
        <ele>1998</ele>
        <time>2020-03-21T15:03:17.882Z</time>
      </trkpt>
      <trkpt lat="44.16278" lon="6.66209">
        <ele>1998</ele>
        <time>2020-03-21T15:03:18.882Z</time>
      </trkpt>
      <trkpt lat="44.16276" lon="6.66212">
        <ele>1997</ele>
        <time>2020-03-21T15:03:19.882Z</time>
      </trkpt>
      <trkpt lat="44.16271" lon="6.66214">
        <ele>1995</ele>
        <time>2020-03-21T15:03:20.882Z</time>
      </trkpt>
      <trkpt lat="44.16261" lon="6.66217">
        <ele>1992</ele>
        <time>2020-03-21T15:03:21.882Z</time>
      </trkpt>
      <trkpt lat="44.16249" lon="6.66222">
        <ele>1988</ele>
        <time>2020-03-21T15:03:22.882Z</time>
      </trkpt>
      <trkpt lat="44.16237" lon="6.66236">
        <ele>1989</ele>
        <time>2020-03-21T15:03:23.882Z</time>
      </trkpt>
      <trkpt lat="44.16233" lon="6.6624">
        <ele>1989</ele>
        <time>2020-03-21T15:03:24.882Z</time>
      </trkpt>
      <trkpt lat="44.16232" lon="6.66239">
        <ele>1989</ele>
        <time>2020-03-21T15:03:25.882Z</time>
      </trkpt>
      <trkpt lat="44.16231" lon="6.66235">
        <ele>1988</ele>
        <time>2020-03-21T15:03:26.882Z</time>
      </trkpt>
      <trkpt lat="44.1623" lon="6.66234">
        <ele>1988</ele>
        <time>2020-03-21T15:03:27.882Z</time>
      </trkpt>
      <trkpt lat="44.16227" lon="6.6623">
        <ele>1988</ele>
        <time>2020-03-21T15:03:28.882Z</time>
      </trkpt>
      <trkpt lat="44.16224" lon="6.66228">
        <ele>1987</ele>
        <time>2020-03-21T15:03:29.882Z</time>
      </trkpt>
      <trkpt lat="44.16218" lon="6.66226">
        <ele>1987</ele>
        <time>2020-03-21T15:03:30.882Z</time>
      </trkpt>
      <trkpt lat="44.16208" lon="6.66224">
        <ele>1986</ele>
        <time>2020-03-21T15:03:31.882Z</time>
      </trkpt>
      <trkpt lat="44.16193" lon="6.6622">
        <ele>1984</ele>
        <time>2020-03-21T15:03:32.882Z</time>
      </trkpt>
      <trkpt lat="44.16181" lon="6.66213">
        <ele>1981</ele>
        <time>2020-03-21T15:03:33.882Z</time>
      </trkpt>
      <trkpt lat="44.16162" lon="6.66204">
        <ele>1975</ele>
        <time>2020-03-21T15:03:34.882Z</time>
      </trkpt>
      <trkpt lat="44.16145" lon="6.66192">
        <ele>1970</ele>
        <time>2020-03-21T15:03:35.882Z</time>
      </trkpt>
      <trkpt lat="44.16126" lon="6.66183">
        <ele>1966</ele>
        <time>2020-03-21T15:03:36.882Z</time>
      </trkpt>
      <trkpt lat="44.16107" lon="6.66192">
        <ele>1968</ele>
        <time>2020-03-21T15:03:37.882Z</time>
      </trkpt>
      <trkpt lat="44.16089" lon="6.66201">
        <ele>1971</ele>
        <time>2020-03-21T15:03:38.882Z</time>
      </trkpt>
      <trkpt lat="44.16078" lon="6.66204">
        <ele>1969</ele>
        <time>2020-03-21T15:03:39.882Z</time>
      </trkpt>
      <trkpt lat="44.16051" lon="6.66213">
        <ele>1958</ele>
        <time>2020-03-21T15:03:40.882Z</time>
      </trkpt>
      <trkpt lat="44.16034" lon="6.66222">
        <ele>1952</ele>
        <time>2020-03-21T15:03:41.882Z</time>
      </trkpt>
      <trkpt lat="44.16021" lon="6.66235">
        <ele>1949</ele>
        <time>2020-03-21T15:03:42.882Z</time>
      </trkpt>
      <trkpt lat="44.16014" lon="6.66244">
        <ele>1948</ele>
        <time>2020-03-21T15:03:43.882Z</time>
      </trkpt>
      <trkpt lat="44.1601" lon="6.66266">
        <ele>1952</ele>
        <time>2020-03-21T15:03:44.882Z</time>
      </trkpt>
      <trkpt lat="44.16012" lon="6.66286">
        <ele>1958</ele>
        <time>2020-03-21T15:03:45.882Z</time>
      </trkpt>
      <trkpt lat="44.1602" lon="6.66307">
        <ele>1968</ele>
        <time>2020-03-21T15:03:46.882Z</time>
      </trkpt>
      <trkpt lat="44.16021" lon="6.66315">
        <ele>1970</ele>
        <time>2020-03-21T15:03:47.882Z</time>
      </trkpt>
      <trkpt lat="44.16017" lon="6.66328">
        <ele>1971</ele>
        <time>2020-03-21T15:03:48.882Z</time>
      </trkpt>
      <trkpt lat="44.16004" lon="6.66341">
        <ele>1965</ele>
        <time>2020-03-21T15:03:49.882Z</time>
      </trkpt>
      <trkpt lat="44.15996" lon="6.66348">
        <ele>1962</ele>
        <time>2020-03-21T15:03:50.882Z</time>
      </trkpt>
      <trkpt lat="44.15989" lon="6.66368">
        <ele>1961</ele>
        <time>2020-03-21T15:03:51.882Z</time>
      </trkpt>
      <trkpt lat="44.15986" lon="6.66379">
        <ele>1961</ele>
        <time>2020-03-21T15:03:52.882Z</time>
      </trkpt>
      <trkpt lat="44.15983" lon="6.66401">
        <ele>1964</ele>
        <time>2020-03-21T15:03:53.882Z</time>
      </trkpt>
      <trkpt lat="44.15979" lon="6.66429">
        <ele>1967</ele>
        <time>2020-03-21T15:03:54.882Z</time>
      </trkpt>
      <trkpt lat="44.15982" lon="6.66456">
        <ele>1971</ele>
        <time>2020-03-21T15:03:55.882Z</time>
      </trkpt>
      <trkpt lat="44.15984" lon="6.66479">
        <ele>1974</ele>
        <time>2020-03-21T15:03:56.882Z</time>
      </trkpt>
      <trkpt lat="44.1598" lon="6.66507">
        <ele>1976</ele>
        <time>2020-03-21T15:03:57.882Z</time>
      </trkpt>
      <trkpt lat="44.15984" lon="6.66519">
        <ele>1977</ele>
        <time>2020-03-21T15:03:58.882Z</time>
      </trkpt>
      <trkpt lat="44.15984" lon="6.6652">
        <ele>1977</ele>
        <time>2020-03-21T15:03:59.882Z</time>
      </trkpt>
      <trkpt lat="44.15983" lon="6.66524">
        <ele>1978</ele>
        <time>2020-03-21T15:04:00.882Z</time>
      </trkpt>
      <trkpt lat="44.15987" lon="6.66535">
        <ele>1979</ele>
        <time>2020-03-21T15:04:01.882Z</time>
      </trkpt>
      <trkpt lat="44.15985" lon="6.66542">
        <ele>1979</ele>
        <time>2020-03-21T15:04:02.882Z</time>
      </trkpt>
      <trkpt lat="44.15979" lon="6.66535">
        <ele>1978</ele>
        <time>2020-03-21T15:04:03.882Z</time>
      </trkpt>
      <trkpt lat="44.15967" lon="6.66515">
        <ele>1975</ele>
        <time>2020-03-21T15:04:04.882Z</time>
      </trkpt>
      <trkpt lat="44.15961" lon="6.665">
        <ele>1972</ele>
        <time>2020-03-21T15:04:05.882Z</time>
      </trkpt>
      <trkpt lat="44.15956" lon="6.66488">
        <ele>1970</ele>
        <time>2020-03-21T15:04:06.882Z</time>
      </trkpt>
      <trkpt lat="44.15948" lon="6.66476">
        <ele>1966</ele>
        <time>2020-03-21T15:04:07.882Z</time>
      </trkpt>
      <trkpt lat="44.15936" lon="6.66468">
        <ele>1961</ele>
        <time>2020-03-21T15:04:08.882Z</time>
      </trkpt>
      <trkpt lat="44.15923" lon="6.66459">
        <ele>1956</ele>
        <time>2020-03-21T15:04:09.882Z</time>
      </trkpt>
      <trkpt lat="44.15909" lon="6.66451">
        <ele>1950</ele>
        <time>2020-03-21T15:04:10.882Z</time>
      </trkpt>
      <trkpt lat="44.15899" lon="6.66446">
        <ele>1945</ele>
        <time>2020-03-21T15:04:11.882Z</time>
      </trkpt>
      <trkpt lat="44.15882" lon="6.66448">
        <ele>1941</ele>
        <time>2020-03-21T15:04:12.882Z</time>
      </trkpt>
      <trkpt lat="44.1587" lon="6.66457">
        <ele>1940</ele>
        <time>2020-03-21T15:04:13.882Z</time>
      </trkpt>
      <trkpt lat="44.15865" lon="6.66476">
        <ele>1944</ele>
        <time>2020-03-21T15:04:14.882Z</time>
      </trkpt>
      <trkpt lat="44.15868" lon="6.66503">
        <ele>1952</ele>
        <time>2020-03-21T15:04:15.882Z</time>
      </trkpt>
      <trkpt lat="44.15863" lon="6.6652">
        <ele>1956</ele>
        <time>2020-03-21T15:04:16.882Z</time>
      </trkpt>
      <trkpt lat="44.15856" lon="6.66541">
        <ele>1961</ele>
        <time>2020-03-21T15:04:17.882Z</time>
      </trkpt>
      <trkpt lat="44.15837" lon="6.66566">
        <ele>1966</ele>
        <time>2020-03-21T15:04:18.882Z</time>
      </trkpt>
      <trkpt lat="44.15834" lon="6.6657">
        <ele>1966</ele>
        <time>2020-03-21T15:04:19.882Z</time>
      </trkpt>
      <trkpt lat="44.15816" lon="6.6659">
        <ele>1964</ele>
        <time>2020-03-21T15:04:20.882Z</time>
      </trkpt>
      <trkpt lat="44.15805" lon="6.666">
        <ele>1961</ele>
        <time>2020-03-21T15:04:21.882Z</time>
      </trkpt>
      <trkpt lat="44.15785" lon="6.66619">
        <ele>1956</ele>
        <time>2020-03-21T15:04:22.882Z</time>
      </trkpt>
      <trkpt lat="44.15774" lon="6.66642">
        <ele>1958</ele>
        <time>2020-03-21T15:04:23.882Z</time>
      </trkpt>
      <trkpt lat="44.1577" lon="6.6665">
        <ele>1958</ele>
        <time>2020-03-21T15:04:24.882Z</time>
      </trkpt>
      <trkpt lat="44.15765" lon="6.66671">
        <ele>1961</ele>
        <time>2020-03-21T15:04:25.882Z</time>
      </trkpt>
      <trkpt lat="44.1576" lon="6.66693">
        <ele>1963</ele>
        <time>2020-03-21T15:04:26.882Z</time>
      </trkpt>
      <trkpt lat="44.15752" lon="6.66714">
        <ele>1962</ele>
        <time>2020-03-21T15:04:27.882Z</time>
      </trkpt>
      <trkpt lat="44.15751" lon="6.66717">
        <ele>1962</ele>
        <time>2020-03-21T15:04:28.882Z</time>
      </trkpt>
      <trkpt lat="44.15751" lon="6.66734">
        <ele>1966</ele>
        <time>2020-03-21T15:04:29.882Z</time>
      </trkpt>
      <trkpt lat="44.15757" lon="6.66758">
        <ele>1974</ele>
        <time>2020-03-21T15:04:30.882Z</time>
      </trkpt>
      <trkpt lat="44.15757" lon="6.6676">
        <ele>1974</ele>
        <time>2020-03-21T15:04:31.882Z</time>
      </trkpt>
      <trkpt lat="44.15758" lon="6.66773">
        <ele>1976</ele>
        <time>2020-03-21T15:04:32.882Z</time>
      </trkpt>
      <trkpt lat="44.15757" lon="6.6679">
        <ele>1977</ele>
        <time>2020-03-21T15:04:33.882Z</time>
      </trkpt>
      <trkpt lat="44.15756" lon="6.66807">
        <ele>1978</ele>
        <time>2020-03-21T15:04:34.882Z</time>
      </trkpt>
      <trkpt lat="44.15758" lon="6.6682">
        <ele>1981</ele>
        <time>2020-03-21T15:04:35.882Z</time>
      </trkpt>
      <trkpt lat="44.15761" lon="6.66834">
        <ele>1985</ele>
        <time>2020-03-21T15:04:36.882Z</time>
      </trkpt>
      <trkpt lat="44.15761" lon="6.66837">
        <ele>1985</ele>
        <time>2020-03-21T15:04:37.882Z</time>
      </trkpt>
      <trkpt lat="44.15762" lon="6.66855">
        <ele>1986</ele>
        <time>2020-03-21T15:04:38.882Z</time>
      </trkpt>
      <trkpt lat="44.15761" lon="6.66867">
        <ele>1986</ele>
        <time>2020-03-21T15:04:39.882Z</time>
      </trkpt>
      <trkpt lat="44.15762" lon="6.66882">
        <ele>1987</ele>
        <time>2020-03-21T15:04:40.882Z</time>
      </trkpt>
      <trkpt lat="44.15762" lon="6.6691">
        <ele>1988</ele>
        <time>2020-03-21T15:04:41.882Z</time>
      </trkpt>
      <trkpt lat="44.15759" lon="6.66931">
        <ele>1987</ele>
        <time>2020-03-21T15:04:42.882Z</time>
      </trkpt>
      <trkpt lat="44.1575" lon="6.6697">
        <ele>1983</ele>
        <time>2020-03-21T15:04:43.882Z</time>
      </trkpt>
      <trkpt lat="44.15748" lon="6.66984">
        <ele>1982</ele>
        <time>2020-03-21T15:04:44.882Z</time>
      </trkpt>
      <trkpt lat="44.15744" lon="6.67006">
        <ele>1982</ele>
        <time>2020-03-21T15:04:45.882Z</time>
      </trkpt>
      <trkpt lat="44.15741" lon="6.67009">
        <ele>1980</ele>
        <time>2020-03-21T15:04:46.882Z</time>
      </trkpt>
      <trkpt lat="44.15737" lon="6.67014">
        <ele>1979</ele>
        <time>2020-03-21T15:04:47.882Z</time>
      </trkpt>
      <trkpt lat="44.15728" lon="6.6704">
        <ele>1977</ele>
        <time>2020-03-21T15:04:48.882Z</time>
      </trkpt>
      <trkpt lat="44.15726" lon="6.6707">
        <ele>1979</ele>
        <time>2020-03-21T15:04:49.882Z</time>
      </trkpt>
      <trkpt lat="44.15721" lon="6.67077">
        <ele>1977</ele>
        <time>2020-03-21T15:04:50.882Z</time>
      </trkpt>
      <trkpt lat="44.15708" lon="6.67087">
        <ele>1973</ele>
        <time>2020-03-21T15:04:51.882Z</time>
      </trkpt>
      <trkpt lat="44.15702" lon="6.67097">
        <ele>1972</ele>
        <time>2020-03-21T15:04:52.882Z</time>
      </trkpt>
      <trkpt lat="44.15696" lon="6.67109">
        <ele>1971</ele>
        <time>2020-03-21T15:04:53.882Z</time>
      </trkpt>
      <trkpt lat="44.15687" lon="6.67136">
        <ele>1971</ele>
        <time>2020-03-21T15:04:54.882Z</time>
      </trkpt>
      <trkpt lat="44.15682" lon="6.67148">
        <ele>1970</ele>
        <time>2020-03-21T15:04:55.882Z</time>
      </trkpt>
      <trkpt lat="44.1567" lon="6.67167">
        <ele>1967</ele>
        <time>2020-03-21T15:04:56.882Z</time>
      </trkpt>
      <trkpt lat="44.15668" lon="6.67172">
        <ele>1968</ele>
        <time>2020-03-21T15:04:57.882Z</time>
      </trkpt>
      <trkpt lat="44.15658" lon="6.67187">
        <ele>1966</ele>
        <time>2020-03-21T15:04:58.882Z</time>
      </trkpt>
      <trkpt lat="44.15654" lon="6.6719">
        <ele>1965</ele>
        <time>2020-03-21T15:04:59.882Z</time>
      </trkpt>
      <trkpt lat="44.15645" lon="6.67194">
        <ele>1963</ele>
        <time>2020-03-21T15:05:00.882Z</time>
      </trkpt>
      <trkpt lat="44.15642" lon="6.67197">
        <ele>1962</ele>
        <time>2020-03-21T15:05:01.882Z</time>
      </trkpt>
      <trkpt lat="44.1563" lon="6.67213">
        <ele>1960</ele>
        <time>2020-03-21T15:05:02.882Z</time>
      </trkpt>
      <trkpt lat="44.15624" lon="6.6722">
        <ele>1959</ele>
        <time>2020-03-21T15:05:03.882Z</time>
      </trkpt>
      <trkpt lat="44.15619" lon="6.67231">
        <ele>1959</ele>
        <time>2020-03-21T15:05:04.882Z</time>
      </trkpt>
      <trkpt lat="44.15619" lon="6.67234">
        <ele>1959</ele>
        <time>2020-03-21T15:05:05.882Z</time>
      </trkpt>
      <trkpt lat="44.1561" lon="6.67246">
        <ele>1958</ele>
        <time>2020-03-21T15:05:06.882Z</time>
      </trkpt>
      <trkpt lat="44.156" lon="6.67255">
        <ele>1956</ele>
        <time>2020-03-21T15:05:07.882Z</time>
      </trkpt>
      <trkpt lat="44.15598" lon="6.67257">
        <ele>1955</ele>
        <time>2020-03-21T15:05:08.882Z</time>
      </trkpt>
      <trkpt lat="44.1559" lon="6.67263">
        <ele>1953</ele>
        <time>2020-03-21T15:05:09.882Z</time>
      </trkpt>
      <trkpt lat="44.15579" lon="6.67274">
        <ele>1951</ele>
        <time>2020-03-21T15:05:10.882Z</time>
      </trkpt>
      <trkpt lat="44.15569" lon="6.67283">
        <ele>1947</ele>
        <time>2020-03-21T15:05:11.882Z</time>
      </trkpt>
      <trkpt lat="44.15559" lon="6.67292">
        <ele>1943</ele>
        <time>2020-03-21T15:05:12.882Z</time>
      </trkpt>
      <trkpt lat="44.15548" lon="6.673">
        <ele>1938</ele>
        <time>2020-03-21T15:05:13.882Z</time>
      </trkpt>
      <trkpt lat="44.15531" lon="6.67316">
        <ele>1932</ele>
        <time>2020-03-21T15:05:14.882Z</time>
      </trkpt>
      <trkpt lat="44.15517" lon="6.67341">
        <ele>1930</ele>
        <time>2020-03-21T15:05:15.882Z</time>
      </trkpt>
      <trkpt lat="44.15512" lon="6.67359">
        <ele>1932</ele>
        <time>2020-03-21T15:05:16.882Z</time>
      </trkpt>
      <trkpt lat="44.15503" lon="6.67373">
        <ele>1931</ele>
        <time>2020-03-21T15:05:17.882Z</time>
      </trkpt>
      <trkpt lat="44.15497" lon="6.67382">
        <ele>1929</ele>
        <time>2020-03-21T15:05:18.882Z</time>
      </trkpt>
      <trkpt lat="44.15485" lon="6.67399">
        <ele>1926</ele>
        <time>2020-03-21T15:05:19.882Z</time>
      </trkpt>
      <trkpt lat="44.15482" lon="6.67404">
        <ele>1925</ele>
        <time>2020-03-21T15:05:20.882Z</time>
      </trkpt>
      <trkpt lat="44.15478" lon="6.67416">
        <ele>1926</ele>
        <time>2020-03-21T15:05:21.882Z</time>
      </trkpt>
      <trkpt lat="44.15475" lon="6.67421">
        <ele>1925</ele>
        <time>2020-03-21T15:05:22.882Z</time>
      </trkpt>
      <trkpt lat="44.15473" lon="6.67425">
        <ele>1925</ele>
        <time>2020-03-21T15:05:23.882Z</time>
      </trkpt>
      <trkpt lat="44.15473" lon="6.67427">
        <ele>1925</ele>
        <time>2020-03-21T15:05:24.882Z</time>
      </trkpt>
      <trkpt lat="44.15472" lon="6.67429">
        <ele>1925</ele>
        <time>2020-03-21T15:05:25.882Z</time>
      </trkpt>
      <trkpt lat="44.15468" lon="6.67435">
        <ele>1924</ele>
        <time>2020-03-21T15:05:26.882Z</time>
      </trkpt>
      <trkpt lat="44.15463" lon="6.67441">
        <ele>1922</ele>
        <time>2020-03-21T15:05:27.882Z</time>
      </trkpt>
      <trkpt lat="44.15452" lon="6.67457">
        <ele>1919</ele>
        <time>2020-03-21T15:05:28.882Z</time>
      </trkpt>
      <trkpt lat="44.1545" lon="6.67461">
        <ele>1919</ele>
        <time>2020-03-21T15:05:29.882Z</time>
      </trkpt>
      <trkpt lat="44.15444" lon="6.67467">
        <ele>1916</ele>
        <time>2020-03-21T15:05:30.882Z</time>
      </trkpt>
      <trkpt lat="44.15424" lon="6.67486">
        <ele>1909</ele>
        <time>2020-03-21T15:05:31.882Z</time>
      </trkpt>
      <trkpt lat="44.1542" lon="6.67491">
        <ele>1909</ele>
        <time>2020-03-21T15:05:32.882Z</time>
      </trkpt>
      <trkpt lat="44.15412" lon="6.67502">
        <ele>1907</ele>
        <time>2020-03-21T15:05:33.882Z</time>
      </trkpt>
      <trkpt lat="44.15411" lon="6.67501">
        <ele>1906</ele>
        <time>2020-03-21T15:05:34.882Z</time>
      </trkpt>
      <trkpt lat="44.15406" lon="6.67497">
        <ele>1902</ele>
        <time>2020-03-21T15:05:35.882Z</time>
      </trkpt>
      <trkpt lat="44.15405" lon="6.67496">
        <ele>1901</ele>
        <time>2020-03-21T15:05:36.882Z</time>
      </trkpt>
      <trkpt lat="44.15401" lon="6.675">
        <ele>1901</ele>
        <time>2020-03-21T15:05:37.882Z</time>
      </trkpt>
      <trkpt lat="44.15386" lon="6.67517">
        <ele>1896</ele>
        <time>2020-03-21T15:05:38.882Z</time>
      </trkpt>
      <trkpt lat="44.15378" lon="6.67526">
        <ele>1894</ele>
        <time>2020-03-21T15:05:39.882Z</time>
      </trkpt>
      <trkpt lat="44.1537" lon="6.67544">
        <ele>1894</ele>
        <time>2020-03-21T15:05:40.882Z</time>
      </trkpt>
      <trkpt lat="44.15364" lon="6.67549">
        <ele>1892</ele>
        <time>2020-03-21T15:05:41.882Z</time>
      </trkpt>
      <trkpt lat="44.1535" lon="6.67564">
        <ele>1890</ele>
        <time>2020-03-21T15:05:42.882Z</time>
      </trkpt>
      <trkpt lat="44.1534" lon="6.67579">
        <ele>1889</ele>
        <time>2020-03-21T15:05:43.882Z</time>
      </trkpt>
      <trkpt lat="44.15332" lon="6.67588">
        <ele>1887</ele>
        <time>2020-03-21T15:05:44.882Z</time>
      </trkpt>
      <trkpt lat="44.15317" lon="6.67606">
        <ele>1883</ele>
        <time>2020-03-21T15:05:45.882Z</time>
      </trkpt>
      <trkpt lat="44.15312" lon="6.6762">
        <ele>1884</ele>
        <time>2020-03-21T15:05:46.882Z</time>
      </trkpt>
      <trkpt lat="44.15313" lon="6.67624">
        <ele>1885</ele>
        <time>2020-03-21T15:05:47.882Z</time>
      </trkpt>
      <trkpt lat="44.15311" lon="6.67639">
        <ele>1886</ele>
        <time>2020-03-21T15:05:48.882Z</time>
      </trkpt>
      <trkpt lat="44.15304" lon="6.67661">
        <ele>1886</ele>
        <time>2020-03-21T15:05:49.882Z</time>
      </trkpt>
      <trkpt lat="44.15303" lon="6.67665">
        <ele>1887</ele>
        <time>2020-03-21T15:05:50.882Z</time>
      </trkpt>
      <trkpt lat="44.15299" lon="6.67664">
        <ele>1885</ele>
        <time>2020-03-21T15:05:51.882Z</time>
      </trkpt>
      <trkpt lat="44.15295" lon="6.67655">
        <ele>1882</ele>
        <time>2020-03-21T15:05:52.882Z</time>
      </trkpt>
      <trkpt lat="44.15288" lon="6.6763">
        <ele>1876</ele>
        <time>2020-03-21T15:05:53.882Z</time>
      </trkpt>
      <trkpt lat="44.15284" lon="6.67605">
        <ele>1870</ele>
        <time>2020-03-21T15:05:54.882Z</time>
      </trkpt>
      <trkpt lat="44.15282" lon="6.67601">
        <ele>1869</ele>
        <time>2020-03-21T15:05:55.882Z</time>
      </trkpt>
      <trkpt lat="44.15271" lon="6.6761">
        <ele>1866</ele>
        <time>2020-03-21T15:05:56.882Z</time>
      </trkpt>
      <trkpt lat="44.1525" lon="6.67615">
        <ele>1858</ele>
        <time>2020-03-21T15:05:57.882Z</time>
      </trkpt>
      <trkpt lat="44.15247" lon="6.67618">
        <ele>1858</ele>
        <time>2020-03-21T15:05:58.882Z</time>
      </trkpt>
      <trkpt lat="44.1524" lon="6.67632">
        <ele>1858</ele>
        <time>2020-03-21T15:05:59.882Z</time>
      </trkpt>
      <trkpt lat="44.15232" lon="6.67638">
        <ele>1858</ele>
        <time>2020-03-21T15:06:00.882Z</time>
      </trkpt>
      <trkpt lat="44.15218" lon="6.67651">
        <ele>1857</ele>
        <time>2020-03-21T15:06:01.882Z</time>
      </trkpt>
      <trkpt lat="44.15207" lon="6.6765">
        <ele>1854</ele>
        <time>2020-03-21T15:06:02.882Z</time>
      </trkpt>
      <trkpt lat="44.15197" lon="6.67651">
        <ele>1851</ele>
        <time>2020-03-21T15:06:03.882Z</time>
      </trkpt>
      <trkpt lat="44.15196" lon="6.67651">
        <ele>1851</ele>
        <time>2020-03-21T15:06:04.882Z</time>
      </trkpt>
      <trkpt lat="44.15195" lon="6.6765">
        <ele>1851</ele>
        <time>2020-03-21T15:06:05.882Z</time>
      </trkpt>
      <trkpt lat="44.15193" lon="6.67649">
        <ele>1850</ele>
        <time>2020-03-21T15:06:06.882Z</time>
      </trkpt>
      <trkpt lat="44.15184" lon="6.67652">
        <ele>1849</ele>
        <time>2020-03-21T15:06:07.882Z</time>
      </trkpt>
      <trkpt lat="44.15169" lon="6.6765">
        <ele>1844</ele>
        <time>2020-03-21T15:06:08.882Z</time>
      </trkpt>
      <trkpt lat="44.15155" lon="6.67655">
        <ele>1843</ele>
        <time>2020-03-21T15:06:09.882Z</time>
      </trkpt>
      <trkpt lat="44.15148" lon="6.67659">
        <ele>1843</ele>
        <time>2020-03-21T15:06:10.882Z</time>
      </trkpt>
      <trkpt lat="44.15142" lon="6.67663">
        <ele>1843</ele>
        <time>2020-03-21T15:06:11.882Z</time>
      </trkpt>
      <trkpt lat="44.15141" lon="6.67666">
        <ele>1844</ele>
        <time>2020-03-21T15:06:12.882Z</time>
      </trkpt>
      <trkpt lat="44.15138" lon="6.67669">
        <ele>1844</ele>
        <time>2020-03-21T15:06:13.882Z</time>
      </trkpt>
      <trkpt lat="44.15138" lon="6.67669">
        <ele>1844</ele>
        <time>2020-03-21T15:06:14.882Z</time>
      </trkpt>
      <trkpt lat="44.15139" lon="6.67675">
        <ele>1846</ele>
        <time>2020-03-21T15:06:15.882Z</time>
      </trkpt>
      <trkpt lat="44.15139" lon="6.67676">
        <ele>1846</ele>
        <time>2020-03-21T15:06:16.882Z</time>
      </trkpt>
      <trkpt lat="44.15138" lon="6.67686">
        <ele>1848</ele>
        <time>2020-03-21T15:06:17.882Z</time>
      </trkpt>
      <trkpt lat="44.15137" lon="6.6769">
        <ele>1848</ele>
        <time>2020-03-21T15:06:18.882Z</time>
      </trkpt>
      <trkpt lat="44.15138" lon="6.6769">
        <ele>1849</ele>
        <time>2020-03-21T15:06:19.882Z</time>
      </trkpt>
      <trkpt lat="44.15137" lon="6.67687">
        <ele>1848</ele>
        <time>2020-03-21T15:06:20.882Z</time>
      </trkpt>
      <trkpt lat="44.15137" lon="6.67688">
        <ele>1848</ele>
        <time>2020-03-21T15:06:21.882Z</time>
      </trkpt>
      <trkpt lat="44.15133" lon="6.67688">
        <ele>1848</ele>
        <time>2020-03-21T15:06:22.882Z</time>
      </trkpt>
      <trkpt lat="44.15122" lon="6.67688">
        <ele>1846</ele>
        <time>2020-03-21T15:06:23.882Z</time>
      </trkpt>
      <trkpt lat="44.15103" lon="6.67696">
        <ele>1845</ele>
        <time>2020-03-21T15:06:24.882Z</time>
      </trkpt>
      <trkpt lat="44.15098" lon="6.67697">
        <ele>1845</ele>
        <time>2020-03-21T15:06:25.882Z</time>
      </trkpt>
      <trkpt lat="44.15086" lon="6.67698">
        <ele>1843</ele>
        <time>2020-03-21T15:06:26.882Z</time>
      </trkpt>
      <trkpt lat="44.15067" lon="6.67705">
        <ele>1843</ele>
        <time>2020-03-21T15:06:27.882Z</time>
      </trkpt>
      <trkpt lat="44.15048" lon="6.6771">
        <ele>1842</ele>
        <time>2020-03-21T15:06:28.882Z</time>
      </trkpt>
      <trkpt lat="44.1502" lon="6.67702">
        <ele>1838</ele>
        <time>2020-03-21T15:06:29.882Z</time>
      </trkpt>
      <trkpt lat="44.14985" lon="6.677">
        <ele>1834</ele>
        <time>2020-03-21T15:06:30.882Z</time>
      </trkpt>
      <trkpt lat="44.14981" lon="6.67701">
        <ele>1833</ele>
        <time>2020-03-21T15:06:31.882Z</time>
      </trkpt>
      <trkpt lat="44.1497" lon="6.67701">
        <ele>1832</ele>
        <time>2020-03-21T15:06:32.882Z</time>
      </trkpt>
      <trkpt lat="44.14961" lon="6.67706">
        <ele>1832</ele>
        <time>2020-03-21T15:06:33.882Z</time>
      </trkpt>
      <trkpt lat="44.14964" lon="6.67704">
        <ele>1832</ele>
        <time>2020-03-21T15:06:34.882Z</time>
      </trkpt>
      <trkpt lat="44.14959" lon="6.67704">
        <ele>1831</ele>
        <time>2020-03-21T15:06:35.882Z</time>
      </trkpt>
      <trkpt lat="44.14949" lon="6.67713">
        <ele>1832</ele>
        <time>2020-03-21T15:06:36.882Z</time>
      </trkpt>
      <trkpt lat="44.14931" lon="6.6772">
        <ele>1831</ele>
        <time>2020-03-21T15:06:37.882Z</time>
      </trkpt>
      <trkpt lat="44.14925" lon="6.67724">
        <ele>1831</ele>
        <time>2020-03-21T15:06:38.882Z</time>
      </trkpt>
      <trkpt lat="44.14923" lon="6.67726">
        <ele>1831</ele>
        <time>2020-03-21T15:06:39.882Z</time>
      </trkpt>
      <trkpt lat="44.14917" lon="6.67735">
        <ele>1832</ele>
        <time>2020-03-21T15:06:40.882Z</time>
      </trkpt>
      <trkpt lat="44.14914" lon="6.67739">
        <ele>1832</ele>
        <time>2020-03-21T15:06:41.882Z</time>
      </trkpt>
      <trkpt lat="44.14904" lon="6.67758">
        <ele>1834</ele>
        <time>2020-03-21T15:06:42.882Z</time>
      </trkpt>
      <trkpt lat="44.14896" lon="6.67766">
        <ele>1834</ele>
        <time>2020-03-21T15:06:43.882Z</time>
      </trkpt>
      <trkpt lat="44.14889" lon="6.67779">
        <ele>1836</ele>
        <time>2020-03-21T15:06:44.882Z</time>
      </trkpt>
      <trkpt lat="44.14883" lon="6.67787">
        <ele>1837</ele>
        <time>2020-03-21T15:06:45.882Z</time>
      </trkpt>
      <trkpt lat="44.14876" lon="6.67795">
        <ele>1838</ele>
        <time>2020-03-21T15:06:46.882Z</time>
      </trkpt>
      <trkpt lat="44.14867" lon="6.67804">
        <ele>1838</ele>
        <time>2020-03-21T15:06:47.882Z</time>
      </trkpt>
      <trkpt lat="44.14864" lon="6.6781">
        <ele>1839</ele>
        <time>2020-03-21T15:06:48.882Z</time>
      </trkpt>
      <trkpt lat="44.14856" lon="6.6782">
        <ele>1841</ele>
        <time>2020-03-21T15:06:49.882Z</time>
      </trkpt>
      <trkpt lat="44.14851" lon="6.6783">
        <ele>1843</ele>
        <time>2020-03-21T15:06:50.882Z</time>
      </trkpt>
      <trkpt lat="44.1485" lon="6.67833">
        <ele>1843</ele>
        <time>2020-03-21T15:06:51.882Z</time>
      </trkpt>
      <trkpt lat="44.14843" lon="6.67841">
        <ele>1845</ele>
        <time>2020-03-21T15:06:52.882Z</time>
      </trkpt>
      <trkpt lat="44.14839" lon="6.6785">
        <ele>1846</ele>
        <time>2020-03-21T15:06:53.882Z</time>
      </trkpt>
      <trkpt lat="44.14838" lon="6.67852">
        <ele>1847</ele>
        <time>2020-03-21T15:06:54.882Z</time>
      </trkpt>
      <trkpt lat="44.14836" lon="6.67855">
        <ele>1847</ele>
        <time>2020-03-21T15:06:55.882Z</time>
      </trkpt>
      <trkpt lat="44.14831" lon="6.67863">
        <ele>1849</ele>
        <time>2020-03-21T15:06:56.882Z</time>
      </trkpt>
      <trkpt lat="44.14827" lon="6.67872">
        <ele>1850</ele>
        <time>2020-03-21T15:06:57.882Z</time>
      </trkpt>
      <trkpt lat="44.14822" lon="6.67876">
        <ele>1851</ele>
        <time>2020-03-21T15:06:58.882Z</time>
      </trkpt>
      <trkpt lat="44.1482" lon="6.67879">
        <ele>1851</ele>
        <time>2020-03-21T15:06:59.882Z</time>
      </trkpt>
      <trkpt lat="44.14817" lon="6.67881">
        <ele>1851</ele>
        <time>2020-03-21T15:07:00.882Z</time>
      </trkpt>
      <trkpt lat="44.14809" lon="6.67886">
        <ele>1851</ele>
        <time>2020-03-21T15:07:01.882Z</time>
      </trkpt>
      <trkpt lat="44.14807" lon="6.67887">
        <ele>1851</ele>
        <time>2020-03-21T15:07:02.882Z</time>
      </trkpt>
      <trkpt lat="44.14803" lon="6.67891">
        <ele>1851</ele>
        <time>2020-03-21T15:07:03.882Z</time>
      </trkpt>
      <trkpt lat="44.14794" lon="6.67896">
        <ele>1851</ele>
        <time>2020-03-21T15:07:04.882Z</time>
      </trkpt>
      <trkpt lat="44.14792" lon="6.67897">
        <ele>1851</ele>
        <time>2020-03-21T15:07:05.882Z</time>
      </trkpt>
      <trkpt lat="44.14787" lon="6.67905">
        <ele>1852</ele>
        <time>2020-03-21T15:07:06.882Z</time>
      </trkpt>
      <trkpt lat="44.14779" lon="6.6791">
        <ele>1853</ele>
        <time>2020-03-21T15:07:07.882Z</time>
      </trkpt>
      <trkpt lat="44.14774" lon="6.67911">
        <ele>1852</ele>
        <time>2020-03-21T15:07:08.882Z</time>
      </trkpt>
      <trkpt lat="44.14767" lon="6.67921">
        <ele>1854</ele>
        <time>2020-03-21T15:07:09.882Z</time>
      </trkpt>
      <trkpt lat="44.14763" lon="6.67936">
        <ele>1858</ele>
        <time>2020-03-21T15:07:10.882Z</time>
      </trkpt>
      <trkpt lat="44.14761" lon="6.67942">
        <ele>1860</ele>
        <time>2020-03-21T15:07:11.882Z</time>
      </trkpt>
      <trkpt lat="44.14754" lon="6.67949">
        <ele>1861</ele>
        <time>2020-03-21T15:07:12.882Z</time>
      </trkpt>
      <trkpt lat="44.14753" lon="6.67951">
        <ele>1861</ele>
        <time>2020-03-21T15:07:13.882Z</time>
      </trkpt>
      <trkpt lat="44.14747" lon="6.67957">
        <ele>1862</ele>
        <time>2020-03-21T15:07:14.882Z</time>
      </trkpt>
      <trkpt lat="44.14741" lon="6.67966">
        <ele>1863</ele>
        <time>2020-03-21T15:07:15.882Z</time>
      </trkpt>
      <trkpt lat="44.14732" lon="6.67975">
        <ele>1864</ele>
        <time>2020-03-21T15:07:16.882Z</time>
      </trkpt>
      <trkpt lat="44.14722" lon="6.67982">
        <ele>1865</ele>
        <time>2020-03-21T15:07:17.882Z</time>
      </trkpt>
      <trkpt lat="44.14715" lon="6.67989">
        <ele>1866</ele>
        <time>2020-03-21T15:07:18.882Z</time>
      </trkpt>
      <trkpt lat="44.14708" lon="6.67999">
        <ele>1868</ele>
        <time>2020-03-21T15:07:19.882Z</time>
      </trkpt>
      <trkpt lat="44.14704" lon="6.68003">
        <ele>1868</ele>
        <time>2020-03-21T15:07:20.882Z</time>
      </trkpt>
      <trkpt lat="44.14698" lon="6.6801">
        <ele>1870</ele>
        <time>2020-03-21T15:07:21.882Z</time>
      </trkpt>
      <trkpt lat="44.14691" lon="6.68016">
        <ele>1871</ele>
        <time>2020-03-21T15:07:22.882Z</time>
      </trkpt>
      <trkpt lat="44.1469" lon="6.68017">
        <ele>1871</ele>
        <time>2020-03-21T15:07:23.882Z</time>
      </trkpt>
      <trkpt lat="44.14685" lon="6.68022">
        <ele>1873</ele>
        <time>2020-03-21T15:07:24.882Z</time>
      </trkpt>
      <trkpt lat="44.1468" lon="6.68026">
        <ele>1874</ele>
        <time>2020-03-21T15:07:25.882Z</time>
      </trkpt>
      <trkpt lat="44.14677" lon="6.68029">
        <ele>1874</ele>
        <time>2020-03-21T15:07:26.882Z</time>
      </trkpt>
      <trkpt lat="44.14675" lon="6.6803">
        <ele>1875</ele>
        <time>2020-03-21T15:07:27.882Z</time>
      </trkpt>
      <trkpt lat="44.14673" lon="6.68034">
        <ele>1876</ele>
        <time>2020-03-21T15:07:28.882Z</time>
      </trkpt>
      <trkpt lat="44.14667" lon="6.6804">
        <ele>1878</ele>
        <time>2020-03-21T15:07:29.882Z</time>
      </trkpt>
      <trkpt lat="44.14661" lon="6.68042">
        <ele>1878</ele>
        <time>2020-03-21T15:07:30.882Z</time>
      </trkpt>
      <trkpt lat="44.14657" lon="6.68043">
        <ele>1878</ele>
        <time>2020-03-21T15:07:31.882Z</time>
      </trkpt>
      <trkpt lat="44.14653" lon="6.68045">
        <ele>1878</ele>
        <time>2020-03-21T15:07:32.882Z</time>
      </trkpt>
      <trkpt lat="44.14648" lon="6.68047">
        <ele>1879</ele>
        <time>2020-03-21T15:07:33.882Z</time>
      </trkpt>
      <trkpt lat="44.14641" lon="6.68053">
        <ele>1881</ele>
        <time>2020-03-21T15:07:34.882Z</time>
      </trkpt>
      <trkpt lat="44.14634" lon="6.68063">
        <ele>1885</ele>
        <time>2020-03-21T15:07:35.882Z</time>
      </trkpt>
      <trkpt lat="44.14626" lon="6.68076">
        <ele>1890</ele>
        <time>2020-03-21T15:07:36.882Z</time>
      </trkpt>
      <trkpt lat="44.14621" lon="6.68087">
        <ele>1894</ele>
        <time>2020-03-21T15:07:37.882Z</time>
      </trkpt>
      <trkpt lat="44.14614" lon="6.68099">
        <ele>1899</ele>
        <time>2020-03-21T15:07:38.882Z</time>
      </trkpt>
      <trkpt lat="44.14608" lon="6.68108">
        <ele>1902</ele>
        <time>2020-03-21T15:07:39.882Z</time>
      </trkpt>
      <trkpt lat="44.14605" lon="6.6811">
        <ele>1903</ele>
        <time>2020-03-21T15:07:40.882Z</time>
      </trkpt>
      <trkpt lat="44.14607" lon="6.6811">
        <ele>1903</ele>
        <time>2020-03-21T15:07:41.882Z</time>
      </trkpt>
      <trkpt lat="44.14606" lon="6.6811">
        <ele>1903</ele>
        <time>2020-03-21T15:07:42.882Z</time>
      </trkpt>
      <trkpt lat="44.14599" lon="6.68109">
        <ele>1902</ele>
        <time>2020-03-21T15:07:43.882Z</time>
      </trkpt>
      <trkpt lat="44.14592" lon="6.68111">
        <ele>1902</ele>
        <time>2020-03-21T15:07:44.882Z</time>
      </trkpt>
      <trkpt lat="44.14588" lon="6.68111">
        <ele>1902</ele>
        <time>2020-03-21T15:07:45.882Z</time>
      </trkpt>
      <trkpt lat="44.14586" lon="6.68111">
        <ele>1902</ele>
        <time>2020-03-21T15:07:46.882Z</time>
      </trkpt>
      <trkpt lat="44.14582" lon="6.68109">
        <ele>1900</ele>
        <time>2020-03-21T15:07:47.882Z</time>
      </trkpt>
      <trkpt lat="44.14581" lon="6.68108">
        <ele>1900</ele>
        <time>2020-03-21T15:07:48.882Z</time>
      </trkpt>
      <trkpt lat="44.14578" lon="6.68106">
        <ele>1900</ele>
        <time>2020-03-21T15:07:49.882Z</time>
      </trkpt>
      <trkpt lat="44.14572" lon="6.68106">
        <ele>1900</ele>
        <time>2020-03-21T15:07:50.882Z</time>
      </trkpt>
      <trkpt lat="44.14567" lon="6.68106">
        <ele>1900</ele>
        <time>2020-03-21T15:07:51.882Z</time>
      </trkpt>
      <trkpt lat="44.14558" lon="6.68111">
        <ele>1903</ele>
        <time>2020-03-21T15:07:52.882Z</time>
      </trkpt>
      <trkpt lat="44.14546" lon="6.68125">
        <ele>1908</ele>
        <time>2020-03-21T15:07:53.882Z</time>
      </trkpt>
      <trkpt lat="44.14537" lon="6.68133">
        <ele>1912</ele>
        <time>2020-03-21T15:07:54.882Z</time>
      </trkpt>
      <trkpt lat="44.14529" lon="6.68143">
        <ele>1915</ele>
        <time>2020-03-21T15:07:55.882Z</time>
      </trkpt>
      <trkpt lat="44.14521" lon="6.6815">
        <ele>1917</ele>
        <time>2020-03-21T15:07:56.882Z</time>
      </trkpt>
      <trkpt lat="44.14517" lon="6.68154">
        <ele>1918</ele>
        <time>2020-03-21T15:07:57.882Z</time>
      </trkpt>
      <trkpt lat="44.14509" lon="6.68161">
        <ele>1920</ele>
        <time>2020-03-21T15:07:58.882Z</time>
      </trkpt>
      <trkpt lat="44.14498" lon="6.68167">
        <ele>1921</ele>
        <time>2020-03-21T15:07:59.882Z</time>
      </trkpt>
      <trkpt lat="44.14491" lon="6.68174">
        <ele>1923</ele>
        <time>2020-03-21T15:08:00.882Z</time>
      </trkpt>
      <trkpt lat="44.14483" lon="6.68184">
        <ele>1926</ele>
        <time>2020-03-21T15:08:01.882Z</time>
      </trkpt>
      <trkpt lat="44.14476" lon="6.68193">
        <ele>1928</ele>
        <time>2020-03-21T15:08:02.882Z</time>
      </trkpt>
      <trkpt lat="44.14469" lon="6.68202">
        <ele>1929</ele>
        <time>2020-03-21T15:08:03.882Z</time>
      </trkpt>
      <trkpt lat="44.14464" lon="6.68209">
        <ele>1931</ele>
        <time>2020-03-21T15:08:04.882Z</time>
      </trkpt>
      <trkpt lat="44.14457" lon="6.68213">
        <ele>1931</ele>
        <time>2020-03-21T15:08:05.882Z</time>
      </trkpt>
      <trkpt lat="44.14444" lon="6.68221">
        <ele>1932</ele>
        <time>2020-03-21T15:08:06.882Z</time>
      </trkpt>
      <trkpt lat="44.14427" lon="6.68236">
        <ele>1933</ele>
        <time>2020-03-21T15:08:07.882Z</time>
      </trkpt>
      <trkpt lat="44.14408" lon="6.68257">
        <ele>1935</ele>
        <time>2020-03-21T15:08:08.882Z</time>
      </trkpt>
      <trkpt lat="44.14393" lon="6.68279">
        <ele>1938</ele>
        <time>2020-03-21T15:08:09.882Z</time>
      </trkpt>
      <trkpt lat="44.14379" lon="6.68293">
        <ele>1939</ele>
        <time>2020-03-21T15:08:10.882Z</time>
      </trkpt>
      <trkpt lat="44.14361" lon="6.68305">
        <ele>1940</ele>
        <time>2020-03-21T15:08:11.882Z</time>
      </trkpt>
      <trkpt lat="44.14347" lon="6.68318">
        <ele>1940</ele>
        <time>2020-03-21T15:08:12.882Z</time>
      </trkpt>
      <trkpt lat="44.14334" lon="6.68334">
        <ele>1940</ele>
        <time>2020-03-21T15:08:13.882Z</time>
      </trkpt>
      <trkpt lat="44.14324" lon="6.68346">
        <ele>1942</ele>
        <time>2020-03-21T15:08:14.882Z</time>
      </trkpt>
      <trkpt lat="44.14321" lon="6.68348">
        <ele>1943</ele>
        <time>2020-03-21T15:08:15.882Z</time>
      </trkpt>
      <trkpt lat="44.14312" lon="6.68348">
        <ele>1943</ele>
        <time>2020-03-21T15:08:16.882Z</time>
      </trkpt>
      <trkpt lat="44.14308" lon="6.68347">
        <ele>1944</ele>
        <time>2020-03-21T15:08:17.882Z</time>
      </trkpt>
      <trkpt lat="44.14302" lon="6.68347">
        <ele>1944</ele>
        <time>2020-03-21T15:08:18.882Z</time>
      </trkpt>
      <trkpt lat="44.14296" lon="6.68346">
        <ele>1945</ele>
        <time>2020-03-21T15:08:19.882Z</time>
      </trkpt>
      <trkpt lat="44.1429" lon="6.68348">
        <ele>1945</ele>
        <time>2020-03-21T15:08:20.882Z</time>
      </trkpt>
      <trkpt lat="44.14285" lon="6.6835">
        <ele>1946</ele>
        <time>2020-03-21T15:08:21.882Z</time>
      </trkpt>
      <trkpt lat="44.14284" lon="6.6835">
        <ele>1946</ele>
        <time>2020-03-21T15:08:22.882Z</time>
      </trkpt>
      <trkpt lat="44.1428" lon="6.68352">
        <ele>1947</ele>
        <time>2020-03-21T15:08:23.882Z</time>
      </trkpt>
      <trkpt lat="44.14272" lon="6.68355">
        <ele>1948</ele>
        <time>2020-03-21T15:08:24.882Z</time>
      </trkpt>
      <trkpt lat="44.14263" lon="6.68354">
        <ele>1948</ele>
        <time>2020-03-21T15:08:25.882Z</time>
      </trkpt>
      <trkpt lat="44.14247" lon="6.68356">
        <ele>1950</ele>
        <time>2020-03-21T15:08:26.882Z</time>
      </trkpt>
      <trkpt lat="44.14231" lon="6.68361">
        <ele>1949</ele>
        <time>2020-03-21T15:08:27.882Z</time>
      </trkpt>
      <trkpt lat="44.14213" lon="6.68366">
        <ele>1949</ele>
        <time>2020-03-21T15:08:28.882Z</time>
      </trkpt>
      <trkpt lat="44.14201" lon="6.68373">
        <ele>1949</ele>
        <time>2020-03-21T15:08:29.882Z</time>
      </trkpt>
      <trkpt lat="44.14179" lon="6.68384">
        <ele>1950</ele>
        <time>2020-03-21T15:08:30.882Z</time>
      </trkpt>
      <trkpt lat="44.14166" lon="6.68394">
        <ele>1951</ele>
        <time>2020-03-21T15:08:31.882Z</time>
      </trkpt>
      <trkpt lat="44.1415" lon="6.68399">
        <ele>1950</ele>
        <time>2020-03-21T15:08:32.882Z</time>
      </trkpt>
      <trkpt lat="44.14138" lon="6.68401">
        <ele>1949</ele>
        <time>2020-03-21T15:08:33.882Z</time>
      </trkpt>
      <trkpt lat="44.14121" lon="6.68403">
        <ele>1947</ele>
        <time>2020-03-21T15:08:34.882Z</time>
      </trkpt>
      <trkpt lat="44.14112" lon="6.68404">
        <ele>1946</ele>
        <time>2020-03-21T15:08:35.882Z</time>
      </trkpt>
      <trkpt lat="44.14095" lon="6.6841">
        <ele>1944</ele>
        <time>2020-03-21T15:08:36.882Z</time>
      </trkpt>
      <trkpt lat="44.14085" lon="6.68411">
        <ele>1943</ele>
        <time>2020-03-21T15:08:37.882Z</time>
      </trkpt>
      <trkpt lat="44.14069" lon="6.68415">
        <ele>1942</ele>
        <time>2020-03-21T15:08:38.882Z</time>
      </trkpt>
      <trkpt lat="44.14063" lon="6.68419">
        <ele>1943</ele>
        <time>2020-03-21T15:08:39.882Z</time>
      </trkpt>
      <trkpt lat="44.14055" lon="6.68425">
        <ele>1944</ele>
        <time>2020-03-21T15:08:40.882Z</time>
      </trkpt>
      <trkpt lat="44.14033" lon="6.68436">
        <ele>1945</ele>
        <time>2020-03-21T15:08:41.882Z</time>
      </trkpt>
      <trkpt lat="44.14012" lon="6.68438">
        <ele>1944</ele>
        <time>2020-03-21T15:08:42.882Z</time>
      </trkpt>
      <trkpt lat="44.13995" lon="6.68438">
        <ele>1943</ele>
        <time>2020-03-21T15:08:43.882Z</time>
      </trkpt>
      <trkpt lat="44.13964" lon="6.68447">
        <ele>1943</ele>
        <time>2020-03-21T15:08:44.882Z</time>
      </trkpt>
      <trkpt lat="44.13938" lon="6.68461">
        <ele>1943</ele>
        <time>2020-03-21T15:08:45.882Z</time>
      </trkpt>
      <trkpt lat="44.13925" lon="6.68476">
        <ele>1942</ele>
        <time>2020-03-21T15:08:46.882Z</time>
      </trkpt>
      <trkpt lat="44.13915" lon="6.68493">
        <ele>1941</ele>
        <time>2020-03-21T15:08:47.882Z</time>
      </trkpt>
      <trkpt lat="44.13903" lon="6.68498">
        <ele>1942</ele>
        <time>2020-03-21T15:08:48.882Z</time>
      </trkpt>
      <trkpt lat="44.13888" lon="6.68503">
        <ele>1943</ele>
        <time>2020-03-21T15:08:49.882Z</time>
      </trkpt>
      <trkpt lat="44.13869" lon="6.68508">
        <ele>1945</ele>
        <time>2020-03-21T15:08:50.882Z</time>
      </trkpt>
      <trkpt lat="44.13847" lon="6.68519">
        <ele>1946</ele>
        <time>2020-03-21T15:08:51.882Z</time>
      </trkpt>
      <trkpt lat="44.13831" lon="6.68531">
        <ele>1948</ele>
        <time>2020-03-21T15:08:52.882Z</time>
      </trkpt>
      <trkpt lat="44.13815" lon="6.68548">
        <ele>1952</ele>
        <time>2020-03-21T15:08:53.882Z</time>
      </trkpt>
      <trkpt lat="44.13804" lon="6.68557">
        <ele>1954</ele>
        <time>2020-03-21T15:08:54.882Z</time>
      </trkpt>
      <trkpt lat="44.13798" lon="6.6856">
        <ele>1955</ele>
        <time>2020-03-21T15:08:55.882Z</time>
      </trkpt>
      <trkpt lat="44.13798" lon="6.68559">
        <ele>1955</ele>
        <time>2020-03-21T15:08:56.882Z</time>
      </trkpt>
      <trkpt lat="44.13795" lon="6.68557">
        <ele>1956</ele>
        <time>2020-03-21T15:08:57.882Z</time>
      </trkpt>
      <trkpt lat="44.13791" lon="6.68558">
        <ele>1957</ele>
        <time>2020-03-21T15:08:58.882Z</time>
      </trkpt>
      <trkpt lat="44.13785" lon="6.68561">
        <ele>1957</ele>
        <time>2020-03-21T15:08:59.882Z</time>
      </trkpt>
      <trkpt lat="44.13785" lon="6.68564">
        <ele>1957</ele>
        <time>2020-03-21T15:09:00.882Z</time>
      </trkpt>
      <trkpt lat="44.13782" lon="6.68569">
        <ele>1957</ele>
        <time>2020-03-21T15:09:01.882Z</time>
      </trkpt>
      <trkpt lat="44.13777" lon="6.68578">
        <ele>1957</ele>
        <time>2020-03-21T15:09:02.882Z</time>
      </trkpt>
      <trkpt lat="44.1377" lon="6.68579">
        <ele>1957</ele>
        <time>2020-03-21T15:09:03.882Z</time>
      </trkpt>
      <trkpt lat="44.13767" lon="6.68583">
        <ele>1957</ele>
        <time>2020-03-21T15:09:04.882Z</time>
      </trkpt>
      <trkpt lat="44.13763" lon="6.68585">
        <ele>1958</ele>
        <time>2020-03-21T15:09:05.882Z</time>
      </trkpt>
      <trkpt lat="44.13752" lon="6.68595">
        <ele>1959</ele>
        <time>2020-03-21T15:09:06.882Z</time>
      </trkpt>
      <trkpt lat="44.13745" lon="6.68601">
        <ele>1961</ele>
        <time>2020-03-21T15:09:07.882Z</time>
      </trkpt>
      <trkpt lat="44.13742" lon="6.68611">
        <ele>1961</ele>
        <time>2020-03-21T15:09:08.882Z</time>
      </trkpt>
      <trkpt lat="44.13735" lon="6.6862">
        <ele>1963</ele>
        <time>2020-03-21T15:09:09.882Z</time>
      </trkpt>
      <trkpt lat="44.1373" lon="6.68625">
        <ele>1964</ele>
        <time>2020-03-21T15:09:10.882Z</time>
      </trkpt>
      <trkpt lat="44.13724" lon="6.68629">
        <ele>1965</ele>
        <time>2020-03-21T15:09:11.882Z</time>
      </trkpt>
      <trkpt lat="44.13716" lon="6.68621">
        <ele>1968</ele>
        <time>2020-03-21T15:09:12.882Z</time>
      </trkpt>
      <trkpt lat="44.13718" lon="6.68629">
        <ele>1967</ele>
        <time>2020-03-21T15:09:13.882Z</time>
      </trkpt>
      <trkpt lat="44.13716" lon="6.68633">
        <ele>1967</ele>
        <time>2020-03-21T15:09:14.882Z</time>
      </trkpt>
      <trkpt lat="44.13714" lon="6.68636">
        <ele>1967</ele>
        <time>2020-03-21T15:09:15.882Z</time>
      </trkpt>
      <trkpt lat="44.1371" lon="6.68644">
        <ele>1967</ele>
        <time>2020-03-21T15:09:16.882Z</time>
      </trkpt>
      <trkpt lat="44.13701" lon="6.6866">
        <ele>1967</ele>
        <time>2020-03-21T15:09:17.882Z</time>
      </trkpt>
      <trkpt lat="44.13693" lon="6.68669">
        <ele>1968</ele>
        <time>2020-03-21T15:09:18.882Z</time>
      </trkpt>
      <trkpt lat="44.13681" lon="6.68683">
        <ele>1970</ele>
        <time>2020-03-21T15:09:19.882Z</time>
      </trkpt>
      <trkpt lat="44.13675" lon="6.68688">
        <ele>1971</ele>
        <time>2020-03-21T15:09:20.882Z</time>
      </trkpt>
      <trkpt lat="44.13673" lon="6.68689">
        <ele>1971</ele>
        <time>2020-03-21T15:09:21.882Z</time>
      </trkpt>
      <trkpt lat="44.13669" lon="6.68695">
        <ele>1971</ele>
        <time>2020-03-21T15:09:22.882Z</time>
      </trkpt>
      <trkpt lat="44.13669" lon="6.68697">
        <ele>1972</ele>
        <time>2020-03-21T15:09:23.882Z</time>
      </trkpt>
      <trkpt lat="44.13662" lon="6.68708">
        <ele>1973</ele>
        <time>2020-03-21T15:09:24.882Z</time>
      </trkpt>
      <trkpt lat="44.13661" lon="6.68709">
        <ele>1973</ele>
        <time>2020-03-21T15:09:25.882Z</time>
      </trkpt>
      <trkpt lat="44.13652" lon="6.68717">
        <ele>1975</ele>
        <time>2020-03-21T15:09:26.882Z</time>
      </trkpt>
      <trkpt lat="44.13644" lon="6.68723">
        <ele>1976</ele>
        <time>2020-03-21T15:09:27.882Z</time>
      </trkpt>
      <trkpt lat="44.13637" lon="6.68731">
        <ele>1977</ele>
        <time>2020-03-21T15:09:28.882Z</time>
      </trkpt>
      <trkpt lat="44.13633" lon="6.68736">
        <ele>1978</ele>
        <time>2020-03-21T15:09:29.882Z</time>
      </trkpt>
      <trkpt lat="44.1363" lon="6.68737">
        <ele>1978</ele>
        <time>2020-03-21T15:09:30.882Z</time>
      </trkpt>
      <trkpt lat="44.13622" lon="6.68739">
        <ele>1979</ele>
        <time>2020-03-21T15:09:31.882Z</time>
      </trkpt>
      <trkpt lat="44.13618" lon="6.6874">
        <ele>1980</ele>
        <time>2020-03-21T15:09:32.882Z</time>
      </trkpt>
      <trkpt lat="44.13609" lon="6.68748">
        <ele>1980</ele>
        <time>2020-03-21T15:09:33.882Z</time>
      </trkpt>
      <trkpt lat="44.13595" lon="6.6876">
        <ele>1981</ele>
        <time>2020-03-21T15:09:34.882Z</time>
      </trkpt>
      <trkpt lat="44.13582" lon="6.6877">
        <ele>1982</ele>
        <time>2020-03-21T15:09:35.882Z</time>
      </trkpt>
      <trkpt lat="44.13572" lon="6.68778">
        <ele>1985</ele>
        <time>2020-03-21T15:09:36.882Z</time>
      </trkpt>
      <trkpt lat="44.13563" lon="6.68787">
        <ele>1986</ele>
        <time>2020-03-21T15:09:37.882Z</time>
      </trkpt>
      <trkpt lat="44.13552" lon="6.68797">
        <ele>1988</ele>
        <time>2020-03-21T15:09:38.882Z</time>
      </trkpt>
      <trkpt lat="44.13543" lon="6.68804">
        <ele>1989</ele>
        <time>2020-03-21T15:09:39.882Z</time>
      </trkpt>
      <trkpt lat="44.13533" lon="6.6881">
        <ele>1990</ele>
        <time>2020-03-21T15:09:40.882Z</time>
      </trkpt>
      <trkpt lat="44.13525" lon="6.68817">
        <ele>1991</ele>
        <time>2020-03-21T15:09:41.882Z</time>
      </trkpt>
      <trkpt lat="44.13516" lon="6.68819">
        <ele>1992</ele>
        <time>2020-03-21T15:09:42.882Z</time>
      </trkpt>
      <trkpt lat="44.13512" lon="6.68821">
        <ele>1992</ele>
        <time>2020-03-21T15:09:43.882Z</time>
      </trkpt>
      <trkpt lat="44.13504" lon="6.68827">
        <ele>1992</ele>
        <time>2020-03-21T15:09:44.882Z</time>
      </trkpt>
      <trkpt lat="44.13492" lon="6.68832">
        <ele>1995</ele>
        <time>2020-03-21T15:09:45.882Z</time>
      </trkpt>
      <trkpt lat="44.13484" lon="6.68839">
        <ele>1996</ele>
        <time>2020-03-21T15:09:46.882Z</time>
      </trkpt>
      <trkpt lat="44.13479" lon="6.6884">
        <ele>1998</ele>
        <time>2020-03-21T15:09:47.882Z</time>
      </trkpt>
      <trkpt lat="44.13473" lon="6.68843">
        <ele>1999</ele>
        <time>2020-03-21T15:09:48.882Z</time>
      </trkpt>
      <trkpt lat="44.13464" lon="6.68847">
        <ele>2002</ele>
        <time>2020-03-21T15:09:49.882Z</time>
      </trkpt>
      <trkpt lat="44.13455" lon="6.68857">
        <ele>2003</ele>
        <time>2020-03-21T15:09:50.882Z</time>
      </trkpt>
      <trkpt lat="44.13454" lon="6.68858">
        <ele>2004</ele>
        <time>2020-03-21T15:09:51.882Z</time>
      </trkpt>
      <trkpt lat="44.13445" lon="6.68865">
        <ele>2005</ele>
        <time>2020-03-21T15:09:52.882Z</time>
      </trkpt>
      <trkpt lat="44.13438" lon="6.6887">
        <ele>2007</ele>
        <time>2020-03-21T15:09:53.882Z</time>
      </trkpt>
      <trkpt lat="44.13434" lon="6.68872">
        <ele>2007</ele>
        <time>2020-03-21T15:09:54.882Z</time>
      </trkpt>
      <trkpt lat="44.13426" lon="6.68878">
        <ele>2009</ele>
        <time>2020-03-21T15:09:55.882Z</time>
      </trkpt>
      <trkpt lat="44.13418" lon="6.68886">
        <ele>2009</ele>
        <time>2020-03-21T15:09:56.882Z</time>
      </trkpt>
      <trkpt lat="44.13411" lon="6.68893">
        <ele>2010</ele>
        <time>2020-03-21T15:09:57.882Z</time>
      </trkpt>
      <trkpt lat="44.13403" lon="6.68899">
        <ele>2011</ele>
        <time>2020-03-21T15:09:58.882Z</time>
      </trkpt>
      <trkpt lat="44.13396" lon="6.68905">
        <ele>2012</ele>
        <time>2020-03-21T15:09:59.882Z</time>
      </trkpt>
      <trkpt lat="44.13382" lon="6.68916">
        <ele>2013</ele>
        <time>2020-03-21T15:10:00.882Z</time>
      </trkpt>
      <trkpt lat="44.13375" lon="6.68922">
        <ele>2015</ele>
        <time>2020-03-21T15:10:01.882Z</time>
      </trkpt>
      <trkpt lat="44.13366" lon="6.68929">
        <ele>2016</ele>
        <time>2020-03-21T15:10:02.882Z</time>
      </trkpt>
      <trkpt lat="44.13364" lon="6.68929">
        <ele>2016</ele>
        <time>2020-03-21T15:10:03.882Z</time>
      </trkpt>
      <trkpt lat="44.13356" lon="6.68931">
        <ele>2018</ele>
        <time>2020-03-21T15:10:04.882Z</time>
      </trkpt>
      <trkpt lat="44.13352" lon="6.68934">
        <ele>2019</ele>
        <time>2020-03-21T15:10:05.882Z</time>
      </trkpt>
      <trkpt lat="44.13338" lon="6.68933">
        <ele>2022</ele>
        <time>2020-03-21T15:10:06.882Z</time>
      </trkpt>
      <trkpt lat="44.13334" lon="6.68935">
        <ele>2022</ele>
        <time>2020-03-21T15:10:07.882Z</time>
      </trkpt>
      <trkpt lat="44.13335" lon="6.68935">
        <ele>2022</ele>
        <time>2020-03-21T15:10:08.882Z</time>
      </trkpt>
      <trkpt lat="44.13354" lon="6.68944">
        <ele>2017</ele>
        <time>2020-03-21T15:10:09.882Z</time>
      </trkpt>
      <trkpt lat="44.13347" lon="6.68948">
        <ele>2018</ele>
        <time>2020-03-21T15:10:10.882Z</time>
      </trkpt>
      <trkpt lat="44.1333" lon="6.6896">
        <ele>2020</ele>
        <time>2020-03-21T15:10:11.882Z</time>
      </trkpt>
      <trkpt lat="44.13319" lon="6.68969">
        <ele>2021</ele>
        <time>2020-03-21T15:10:12.882Z</time>
      </trkpt>
      <trkpt lat="44.13308" lon="6.6898">
        <ele>2021</ele>
        <time>2020-03-21T15:10:13.882Z</time>
      </trkpt>
      <trkpt lat="44.13303" lon="6.68988">
        <ele>2020</ele>
        <time>2020-03-21T15:10:14.882Z</time>
      </trkpt>
      <trkpt lat="44.13289" lon="6.68998">
        <ele>2020</ele>
        <time>2020-03-21T15:10:15.882Z</time>
      </trkpt>
      <trkpt lat="44.13277" lon="6.69007">
        <ele>2021</ele>
        <time>2020-03-21T15:10:16.882Z</time>
      </trkpt>
      <trkpt lat="44.13266" lon="6.69016">
        <ele>2021</ele>
        <time>2020-03-21T15:10:17.882Z</time>
      </trkpt>
      <trkpt lat="44.13255" lon="6.69025">
        <ele>2022</ele>
        <time>2020-03-21T15:10:18.882Z</time>
      </trkpt>
      <trkpt lat="44.13245" lon="6.69034">
        <ele>2023</ele>
        <time>2020-03-21T15:10:19.882Z</time>
      </trkpt>
      <trkpt lat="44.13234" lon="6.69042">
        <ele>2023</ele>
        <time>2020-03-21T15:10:20.882Z</time>
      </trkpt>
      <trkpt lat="44.13221" lon="6.69051">
        <ele>2024</ele>
        <time>2020-03-21T15:10:21.882Z</time>
      </trkpt>
      <trkpt lat="44.13212" lon="6.69059">
        <ele>2024</ele>
        <time>2020-03-21T15:10:22.882Z</time>
      </trkpt>
      <trkpt lat="44.13199" lon="6.69073">
        <ele>2023</ele>
        <time>2020-03-21T15:10:23.882Z</time>
      </trkpt>
      <trkpt lat="44.13189" lon="6.69076">
        <ele>2024</ele>
        <time>2020-03-21T15:10:24.882Z</time>
      </trkpt>
      <trkpt lat="44.13178" lon="6.69085">
        <ele>2023</ele>
        <time>2020-03-21T15:10:25.882Z</time>
      </trkpt>
      <trkpt lat="44.13166" lon="6.69089">
        <ele>2024</ele>
        <time>2020-03-21T15:10:26.882Z</time>
      </trkpt>
      <trkpt lat="44.13153" lon="6.69097">
        <ele>2026</ele>
        <time>2020-03-21T15:10:27.882Z</time>
      </trkpt>
      <trkpt lat="44.13145" lon="6.69105">
        <ele>2027</ele>
        <time>2020-03-21T15:10:28.882Z</time>
      </trkpt>
      <trkpt lat="44.13136" lon="6.69113">
        <ele>2028</ele>
        <time>2020-03-21T15:10:29.882Z</time>
      </trkpt>
      <trkpt lat="44.13126" lon="6.69121">
        <ele>2029</ele>
        <time>2020-03-21T15:10:30.882Z</time>
      </trkpt>
      <trkpt lat="44.13114" lon="6.69126">
        <ele>2031</ele>
        <time>2020-03-21T15:10:31.882Z</time>
      </trkpt>
      <trkpt lat="44.13104" lon="6.69136">
        <ele>2031</ele>
        <time>2020-03-21T15:10:32.882Z</time>
      </trkpt>
      <trkpt lat="44.13094" lon="6.69143">
        <ele>2032</ele>
        <time>2020-03-21T15:10:33.882Z</time>
      </trkpt>
      <trkpt lat="44.13087" lon="6.69149">
        <ele>2033</ele>
        <time>2020-03-21T15:10:34.882Z</time>
      </trkpt>
      <trkpt lat="44.13078" lon="6.69154">
        <ele>2033</ele>
        <time>2020-03-21T15:10:35.882Z</time>
      </trkpt>
      <trkpt lat="44.13069" lon="6.69159">
        <ele>2034</ele>
        <time>2020-03-21T15:10:36.882Z</time>
      </trkpt>
      <trkpt lat="44.13068" lon="6.69159">
        <ele>2034</ele>
        <time>2020-03-21T15:10:37.882Z</time>
      </trkpt>
      <trkpt lat="44.13056" lon="6.69166">
        <ele>2034</ele>
        <time>2020-03-21T15:10:38.882Z</time>
      </trkpt>
      <trkpt lat="44.13045" lon="6.6917">
        <ele>2035</ele>
        <time>2020-03-21T15:10:39.882Z</time>
      </trkpt>
      <trkpt lat="44.13034" lon="6.69173">
        <ele>2036</ele>
        <time>2020-03-21T15:10:40.882Z</time>
      </trkpt>
      <trkpt lat="44.13023" lon="6.69174">
        <ele>2037</ele>
        <time>2020-03-21T15:10:41.882Z</time>
      </trkpt>
      <trkpt lat="44.1301" lon="6.69174">
        <ele>2038</ele>
        <time>2020-03-21T15:10:42.882Z</time>
      </trkpt>
      <trkpt lat="44.12997" lon="6.69173">
        <ele>2040</ele>
        <time>2020-03-21T15:10:43.882Z</time>
      </trkpt>
      <trkpt lat="44.12989" lon="6.69174">
        <ele>2041</ele>
        <time>2020-03-21T15:10:44.882Z</time>
      </trkpt>
      <trkpt lat="44.12978" lon="6.69172">
        <ele>2042</ele>
        <time>2020-03-21T15:10:45.882Z</time>
      </trkpt>
      <trkpt lat="44.12963" lon="6.69173">
        <ele>2043</ele>
        <time>2020-03-21T15:10:46.882Z</time>
      </trkpt>
      <trkpt lat="44.12955" lon="6.69179">
        <ele>2044</ele>
        <time>2020-03-21T15:10:47.882Z</time>
      </trkpt>
      <trkpt lat="44.12945" lon="6.69182">
        <ele>2044</ele>
        <time>2020-03-21T15:10:48.882Z</time>
      </trkpt>
      <trkpt lat="44.12935" lon="6.69185">
        <ele>2045</ele>
        <time>2020-03-21T15:10:49.882Z</time>
      </trkpt>
      <trkpt lat="44.12926" lon="6.69188">
        <ele>2045</ele>
        <time>2020-03-21T15:10:50.882Z</time>
      </trkpt>
      <trkpt lat="44.12914" lon="6.69196">
        <ele>2046</ele>
        <time>2020-03-21T15:10:51.882Z</time>
      </trkpt>
      <trkpt lat="44.12902" lon="6.692">
        <ele>2048</ele>
        <time>2020-03-21T15:10:52.882Z</time>
      </trkpt>
      <trkpt lat="44.12891" lon="6.69208">
        <ele>2049</ele>
        <time>2020-03-21T15:10:53.882Z</time>
      </trkpt>
      <trkpt lat="44.12888" lon="6.6921">
        <ele>2049</ele>
        <time>2020-03-21T15:10:54.882Z</time>
      </trkpt>
      <trkpt lat="44.12883" lon="6.69214">
        <ele>2050</ele>
        <time>2020-03-21T15:10:55.882Z</time>
      </trkpt>
      <trkpt lat="44.1288" lon="6.69214">
        <ele>2050</ele>
        <time>2020-03-21T15:10:56.882Z</time>
      </trkpt>
      <trkpt lat="44.12876" lon="6.69214">
        <ele>2051</ele>
        <time>2020-03-21T15:10:57.882Z</time>
      </trkpt>
      <trkpt lat="44.12872" lon="6.69216">
        <ele>2052</ele>
        <time>2020-03-21T15:10:58.882Z</time>
      </trkpt>
      <trkpt lat="44.12871" lon="6.69217">
        <ele>2052</ele>
        <time>2020-03-21T15:10:59.882Z</time>
      </trkpt>
      <trkpt lat="44.12863" lon="6.69221">
        <ele>2053</ele>
        <time>2020-03-21T15:11:00.882Z</time>
      </trkpt>
      <trkpt lat="44.12856" lon="6.69229">
        <ele>2053</ele>
        <time>2020-03-21T15:11:01.882Z</time>
      </trkpt>
      <trkpt lat="44.12853" lon="6.69232">
        <ele>2053</ele>
        <time>2020-03-21T15:11:02.882Z</time>
      </trkpt>
      <trkpt lat="44.12847" lon="6.69239">
        <ele>2052</ele>
        <time>2020-03-21T15:11:03.882Z</time>
      </trkpt>
      <trkpt lat="44.12843" lon="6.69253">
        <ele>2051</ele>
        <time>2020-03-21T15:11:04.882Z</time>
      </trkpt>
      <trkpt lat="44.12836" lon="6.69259">
        <ele>2051</ele>
        <time>2020-03-21T15:11:05.882Z</time>
      </trkpt>
      <trkpt lat="44.12828" lon="6.69268">
        <ele>2052</ele>
        <time>2020-03-21T15:11:06.882Z</time>
      </trkpt>
      <trkpt lat="44.12821" lon="6.69282">
        <ele>2051</ele>
        <time>2020-03-21T15:11:07.882Z</time>
      </trkpt>
      <trkpt lat="44.12813" lon="6.69291">
        <ele>2051</ele>
        <time>2020-03-21T15:11:08.882Z</time>
      </trkpt>
      <trkpt lat="44.12806" lon="6.69296">
        <ele>2052</ele>
        <time>2020-03-21T15:11:09.882Z</time>
      </trkpt>
      <trkpt lat="44.12801" lon="6.69302">
        <ele>2052</ele>
        <time>2020-03-21T15:11:10.882Z</time>
      </trkpt>
      <trkpt lat="44.12795" lon="6.69307">
        <ele>2052</ele>
        <time>2020-03-21T15:11:11.882Z</time>
      </trkpt>
      <trkpt lat="44.12785" lon="6.69319">
        <ele>2052</ele>
        <time>2020-03-21T15:11:12.882Z</time>
      </trkpt>
      <trkpt lat="44.12774" lon="6.69329">
        <ele>2052</ele>
        <time>2020-03-21T15:11:13.882Z</time>
      </trkpt>
      <trkpt lat="44.12763" lon="6.69345">
        <ele>2052</ele>
        <time>2020-03-21T15:11:14.882Z</time>
      </trkpt>
      <trkpt lat="44.12753" lon="6.69359">
        <ele>2052</ele>
        <time>2020-03-21T15:11:15.882Z</time>
      </trkpt>
      <trkpt lat="44.12742" lon="6.69376">
        <ele>2051</ele>
        <time>2020-03-21T15:11:16.882Z</time>
      </trkpt>
      <trkpt lat="44.12736" lon="6.69386">
        <ele>2051</ele>
        <time>2020-03-21T15:11:17.882Z</time>
      </trkpt>
      <trkpt lat="44.12735" lon="6.69388">
        <ele>2051</ele>
        <time>2020-03-21T15:11:18.882Z</time>
      </trkpt>
      <trkpt lat="44.12726" lon="6.69396">
        <ele>2051</ele>
        <time>2020-03-21T15:11:19.882Z</time>
      </trkpt>
      <trkpt lat="44.12718" lon="6.69411">
        <ele>2050</ele>
        <time>2020-03-21T15:11:20.882Z</time>
      </trkpt>
      <trkpt lat="44.12709" lon="6.69425">
        <ele>2050</ele>
        <time>2020-03-21T15:11:21.882Z</time>
      </trkpt>
      <trkpt lat="44.12702" lon="6.69433">
        <ele>2051</ele>
        <time>2020-03-21T15:11:22.882Z</time>
      </trkpt>
      <trkpt lat="44.12699" lon="6.69434">
        <ele>2051</ele>
        <time>2020-03-21T15:11:23.882Z</time>
      </trkpt>
      <trkpt lat="44.12694" lon="6.69443">
        <ele>2051</ele>
        <time>2020-03-21T15:11:24.882Z</time>
      </trkpt>
      <trkpt lat="44.12684" lon="6.69452">
        <ele>2052</ele>
        <time>2020-03-21T15:11:25.882Z</time>
      </trkpt>
      <trkpt lat="44.12667" lon="6.69463">
        <ele>2053</ele>
        <time>2020-03-21T15:11:26.882Z</time>
      </trkpt>
      <trkpt lat="44.12645" lon="6.69471">
        <ele>2055</ele>
        <time>2020-03-21T15:11:27.882Z</time>
      </trkpt>
      <trkpt lat="44.12628" lon="6.69478">
        <ele>2056</ele>
        <time>2020-03-21T15:11:28.882Z</time>
      </trkpt>
      <trkpt lat="44.12605" lon="6.69491">
        <ele>2057</ele>
        <time>2020-03-21T15:11:29.882Z</time>
      </trkpt>
      <trkpt lat="44.12591" lon="6.69498">
        <ele>2057</ele>
        <time>2020-03-21T15:11:30.882Z</time>
      </trkpt>
      <trkpt lat="44.12577" lon="6.69503">
        <ele>2058</ele>
        <time>2020-03-21T15:11:31.882Z</time>
      </trkpt>
      <trkpt lat="44.12561" lon="6.69515">
        <ele>2060</ele>
        <time>2020-03-21T15:11:32.882Z</time>
      </trkpt>
      <trkpt lat="44.12545" lon="6.69519">
        <ele>2061</ele>
        <time>2020-03-21T15:11:33.882Z</time>
      </trkpt>
      <trkpt lat="44.1252" lon="6.69517">
        <ele>2062</ele>
        <time>2020-03-21T15:11:34.882Z</time>
      </trkpt>
      <trkpt lat="44.12503" lon="6.69521">
        <ele>2063</ele>
        <time>2020-03-21T15:11:35.882Z</time>
      </trkpt>
      <trkpt lat="44.12487" lon="6.69531">
        <ele>2064</ele>
        <time>2020-03-21T15:11:36.882Z</time>
      </trkpt>
      <trkpt lat="44.12471" lon="6.6954">
        <ele>2064</ele>
        <time>2020-03-21T15:11:37.882Z</time>
      </trkpt>
      <trkpt lat="44.12453" lon="6.69549">
        <ele>2064</ele>
        <time>2020-03-21T15:11:38.882Z</time>
      </trkpt>
      <trkpt lat="44.12437" lon="6.69563">
        <ele>2062</ele>
        <time>2020-03-21T15:11:39.882Z</time>
      </trkpt>
      <trkpt lat="44.12414" lon="6.69579">
        <ele>2060</ele>
        <time>2020-03-21T15:11:40.882Z</time>
      </trkpt>
      <trkpt lat="44.12394" lon="6.69594">
        <ele>2060</ele>
        <time>2020-03-21T15:11:41.882Z</time>
      </trkpt>
      <trkpt lat="44.12383" lon="6.69602">
        <ele>2060</ele>
        <time>2020-03-21T15:11:42.882Z</time>
      </trkpt>
      <trkpt lat="44.12378" lon="6.69604">
        <ele>2060</ele>
        <time>2020-03-21T15:11:43.882Z</time>
      </trkpt>
      <trkpt lat="44.12367" lon="6.69602">
        <ele>2061</ele>
        <time>2020-03-21T15:11:44.882Z</time>
      </trkpt>
      <trkpt lat="44.12352" lon="6.69602">
        <ele>2061</ele>
        <time>2020-03-21T15:11:45.882Z</time>
      </trkpt>
      <trkpt lat="44.12337" lon="6.69599">
        <ele>2062</ele>
        <time>2020-03-21T15:11:46.882Z</time>
      </trkpt>
      <trkpt lat="44.12321" lon="6.69607">
        <ele>2062</ele>
        <time>2020-03-21T15:11:47.882Z</time>
      </trkpt>
      <trkpt lat="44.12308" lon="6.69622">
        <ele>2061</ele>
        <time>2020-03-21T15:11:48.882Z</time>
      </trkpt>
      <trkpt lat="44.12297" lon="6.69631">
        <ele>2061</ele>
        <time>2020-03-21T15:11:49.882Z</time>
      </trkpt>
      <trkpt lat="44.12295" lon="6.69631">
        <ele>2061</ele>
        <time>2020-03-21T15:11:50.882Z</time>
      </trkpt>
      <trkpt lat="44.12283" lon="6.69634">
        <ele>2061</ele>
        <time>2020-03-21T15:11:51.882Z</time>
      </trkpt>
      <trkpt lat="44.12275" lon="6.69636">
        <ele>2061</ele>
        <time>2020-03-21T15:11:52.882Z</time>
      </trkpt>
      <trkpt lat="44.12269" lon="6.69639">
        <ele>2061</ele>
        <time>2020-03-21T15:11:53.882Z</time>
      </trkpt>
      <trkpt lat="44.12259" lon="6.69643">
        <ele>2061</ele>
        <time>2020-03-21T15:11:54.882Z</time>
      </trkpt>
      <trkpt lat="44.12246" lon="6.69645">
        <ele>2061</ele>
        <time>2020-03-21T15:11:55.882Z</time>
      </trkpt>
      <trkpt lat="44.12229" lon="6.69652">
        <ele>2061</ele>
        <time>2020-03-21T15:11:56.882Z</time>
      </trkpt>
      <trkpt lat="44.12214" lon="6.69656">
        <ele>2061</ele>
        <time>2020-03-21T15:11:57.882Z</time>
      </trkpt>
      <trkpt lat="44.12201" lon="6.69662">
        <ele>2060</ele>
        <time>2020-03-21T15:11:58.882Z</time>
      </trkpt>
      <trkpt lat="44.12197" lon="6.69664">
        <ele>2060</ele>
        <time>2020-03-21T15:11:59.882Z</time>
      </trkpt>
      <trkpt lat="44.12185" lon="6.69659">
        <ele>2060</ele>
        <time>2020-03-21T15:12:00.882Z</time>
      </trkpt>
      <trkpt lat="44.12176" lon="6.69664">
        <ele>2060</ele>
        <time>2020-03-21T15:12:01.882Z</time>
      </trkpt>
      <trkpt lat="44.12173" lon="6.69665">
        <ele>2060</ele>
        <time>2020-03-21T15:12:02.882Z</time>
      </trkpt>
      <trkpt lat="44.12167" lon="6.69667">
        <ele>2060</ele>
        <time>2020-03-21T15:12:03.882Z</time>
      </trkpt>
      <trkpt lat="44.12164" lon="6.69672">
        <ele>2061</ele>
        <time>2020-03-21T15:12:04.882Z</time>
      </trkpt>
      <trkpt lat="44.12158" lon="6.6968">
        <ele>2061</ele>
        <time>2020-03-21T15:12:05.882Z</time>
      </trkpt>
      <trkpt lat="44.1215" lon="6.69687">
        <ele>2062</ele>
        <time>2020-03-21T15:12:06.882Z</time>
      </trkpt>
      <trkpt lat="44.12145" lon="6.69691">
        <ele>2063</ele>
        <time>2020-03-21T15:12:07.882Z</time>
      </trkpt>
      <trkpt lat="44.12136" lon="6.69702">
        <ele>2064</ele>
        <time>2020-03-21T15:12:08.882Z</time>
      </trkpt>
      <trkpt lat="44.12131" lon="6.6971">
        <ele>2064</ele>
        <time>2020-03-21T15:12:09.882Z</time>
      </trkpt>
      <trkpt lat="44.1213" lon="6.69711">
        <ele>2064</ele>
        <time>2020-03-21T15:12:10.882Z</time>
      </trkpt>
      <trkpt lat="44.12128" lon="6.69715">
        <ele>2065</ele>
        <time>2020-03-21T15:12:11.882Z</time>
      </trkpt>
      <trkpt lat="44.12127" lon="6.69712">
        <ele>2065</ele>
        <time>2020-03-21T15:12:12.882Z</time>
      </trkpt>
      <trkpt lat="44.12125" lon="6.69719">
        <ele>2065</ele>
        <time>2020-03-21T15:12:13.882Z</time>
      </trkpt>
      <trkpt lat="44.12123" lon="6.69733">
        <ele>2065</ele>
        <time>2020-03-21T15:12:14.882Z</time>
      </trkpt>
      <trkpt lat="44.12123" lon="6.69737">
        <ele>2066</ele>
        <time>2020-03-21T15:12:15.882Z</time>
      </trkpt>
      <trkpt lat="44.12115" lon="6.69746">
        <ele>2066</ele>
        <time>2020-03-21T15:12:16.882Z</time>
      </trkpt>
      <trkpt lat="44.12107" lon="6.69757">
        <ele>2068</ele>
        <time>2020-03-21T15:12:17.882Z</time>
      </trkpt>
      <trkpt lat="44.12102" lon="6.69763">
        <ele>2070</ele>
        <time>2020-03-21T15:12:18.882Z</time>
      </trkpt>
      <trkpt lat="44.12096" lon="6.69772">
        <ele>2071</ele>
        <time>2020-03-21T15:12:19.882Z</time>
      </trkpt>
      <trkpt lat="44.12097" lon="6.69773">
        <ele>2072</ele>
        <time>2020-03-21T15:12:20.882Z</time>
      </trkpt>
      <trkpt lat="44.12098" lon="6.69773">
        <ele>2072</ele>
        <time>2020-03-21T15:12:21.882Z</time>
      </trkpt>
      <trkpt lat="44.12101" lon="6.69773">
        <ele>2072</ele>
        <time>2020-03-21T15:12:22.882Z</time>
      </trkpt>
      <trkpt lat="44.12105" lon="6.69774">
        <ele>2072</ele>
        <time>2020-03-21T15:12:23.882Z</time>
      </trkpt>
      <trkpt lat="44.12105" lon="6.69777">
        <ele>2073</ele>
        <time>2020-03-21T15:12:24.882Z</time>
      </trkpt>
      <trkpt lat="44.12102" lon="6.6978">
        <ele>2074</ele>
        <time>2020-03-21T15:12:25.882Z</time>
      </trkpt>
      <trkpt lat="44.12095" lon="6.6979">
        <ele>2075</ele>
        <time>2020-03-21T15:12:26.882Z</time>
      </trkpt>
      <trkpt lat="44.12088" lon="6.698">
        <ele>2077</ele>
        <time>2020-03-21T15:12:27.882Z</time>
      </trkpt>
      <trkpt lat="44.1208" lon="6.69808">
        <ele>2079</ele>
        <time>2020-03-21T15:12:28.882Z</time>
      </trkpt>
      <trkpt lat="44.12077" lon="6.69812">
        <ele>2080</ele>
        <time>2020-03-21T15:12:29.882Z</time>
      </trkpt>
      <trkpt lat="44.1207" lon="6.69821">
        <ele>2082</ele>
        <time>2020-03-21T15:12:30.882Z</time>
      </trkpt>
      <trkpt lat="44.12067" lon="6.69823">
        <ele>2083</ele>
        <time>2020-03-21T15:12:31.882Z</time>
      </trkpt>
      <trkpt lat="44.12069" lon="6.69823">
        <ele>2083</ele>
        <time>2020-03-21T15:12:32.882Z</time>
      </trkpt>
      <trkpt lat="44.12073" lon="6.69822">
        <ele>2082</ele>
        <time>2020-03-21T15:12:33.882Z</time>
      </trkpt>
      <trkpt lat="44.12077" lon="6.69822">
        <ele>2082</ele>
        <time>2020-03-21T15:12:34.882Z</time>
      </trkpt>
      <trkpt lat="44.12083" lon="6.69821">
        <ele>2081</ele>
        <time>2020-03-21T15:12:35.882Z</time>
      </trkpt>
      <trkpt lat="44.1209" lon="6.69821">
        <ele>2082</ele>
        <time>2020-03-21T15:12:36.882Z</time>
      </trkpt>
      <trkpt lat="44.12095" lon="6.6982">
        <ele>2082</ele>
        <time>2020-03-21T15:12:37.882Z</time>
      </trkpt>
      <trkpt lat="44.12103" lon="6.69824">
        <ele>2084</ele>
        <time>2020-03-21T15:12:38.882Z</time>
      </trkpt>
      <trkpt lat="44.12106" lon="6.6983">
        <ele>2086</ele>
        <time>2020-03-21T15:12:39.882Z</time>
      </trkpt>
      <trkpt lat="44.12104" lon="6.69838">
        <ele>2087</ele>
        <time>2020-03-21T15:12:40.882Z</time>
      </trkpt>
      <trkpt lat="44.12103" lon="6.6984">
        <ele>2088</ele>
        <time>2020-03-21T15:12:41.882Z</time>
      </trkpt>
      <trkpt lat="44.12098" lon="6.69848">
        <ele>2090</ele>
        <time>2020-03-21T15:12:42.882Z</time>
      </trkpt>
      <trkpt lat="44.12096" lon="6.69849">
        <ele>2090</ele>
        <time>2020-03-21T15:12:43.882Z</time>
      </trkpt>
      <trkpt lat="44.12089" lon="6.69855">
        <ele>2090</ele>
        <time>2020-03-21T15:12:44.882Z</time>
      </trkpt>
      <trkpt lat="44.12082" lon="6.69861">
        <ele>2091</ele>
        <time>2020-03-21T15:12:45.882Z</time>
      </trkpt>
      <trkpt lat="44.12079" lon="6.69863">
        <ele>2092</ele>
        <time>2020-03-21T15:12:46.882Z</time>
      </trkpt>
      <trkpt lat="44.12078" lon="6.69865">
        <ele>2093</ele>
        <time>2020-03-21T15:12:47.882Z</time>
      </trkpt>
      <trkpt lat="44.12078" lon="6.6987">
        <ele>2094</ele>
        <time>2020-03-21T15:12:48.882Z</time>
      </trkpt>
      <trkpt lat="44.12077" lon="6.69875">
        <ele>2095</ele>
        <time>2020-03-21T15:12:49.882Z</time>
      </trkpt>
      <trkpt lat="44.12076" lon="6.69876">
        <ele>2096</ele>
        <time>2020-03-21T15:12:50.882Z</time>
      </trkpt>
      <trkpt lat="44.12068" lon="6.69882">
        <ele>2098</ele>
        <time>2020-03-21T15:12:51.882Z</time>
      </trkpt>
      <trkpt lat="44.12067" lon="6.69883">
        <ele>2098</ele>
        <time>2020-03-21T15:12:52.882Z</time>
      </trkpt>
      <trkpt lat="44.12067" lon="6.69883">
        <ele>2099</ele>
        <time>2020-03-21T15:12:53.882Z</time>
      </trkpt>
      <trkpt lat="44.12061" lon="6.69893">
        <ele>2102</ele>
        <time>2020-03-21T15:12:54.882Z</time>
      </trkpt>
      <trkpt lat="44.12061" lon="6.69894">
        <ele>2102</ele>
        <time>2020-03-21T15:12:55.882Z</time>
      </trkpt>
      <trkpt lat="44.12059" lon="6.69899">
        <ele>2103</ele>
        <time>2020-03-21T15:12:56.882Z</time>
      </trkpt>
      <trkpt lat="44.12057" lon="6.69902">
        <ele>2105</ele>
        <time>2020-03-21T15:12:57.882Z</time>
      </trkpt>
      <trkpt lat="44.1205" lon="6.69914">
        <ele>2109</ele>
        <time>2020-03-21T15:12:58.882Z</time>
      </trkpt>
      <trkpt lat="44.12048" lon="6.6992">
        <ele>2111</ele>
        <time>2020-03-21T15:12:59.882Z</time>
      </trkpt>
      <trkpt lat="44.12046" lon="6.69922">
        <ele>2112</ele>
        <time>2020-03-21T15:13:00.882Z</time>
      </trkpt>
      <trkpt lat="44.12039" lon="6.69928">
        <ele>2114</ele>
        <time>2020-03-21T15:13:01.882Z</time>
      </trkpt>
      <trkpt lat="44.12039" lon="6.69929">
        <ele>2115</ele>
        <time>2020-03-21T15:13:02.882Z</time>
      </trkpt>
      <trkpt lat="44.12035" lon="6.69933">
        <ele>2116</ele>
        <time>2020-03-21T15:13:03.882Z</time>
      </trkpt>
      <trkpt lat="44.12031" lon="6.69931">
        <ele>2116</ele>
        <time>2020-03-21T15:13:04.882Z</time>
      </trkpt>
      <trkpt lat="44.1203" lon="6.69936">
        <ele>2118</ele>
        <time>2020-03-21T15:13:05.882Z</time>
      </trkpt>
      <trkpt lat="44.1203" lon="6.69939">
        <ele>2119</ele>
        <time>2020-03-21T15:13:06.882Z</time>
      </trkpt>
      <trkpt lat="44.12026" lon="6.69937">
        <ele>2119</ele>
        <time>2020-03-21T15:13:07.882Z</time>
      </trkpt>
      <trkpt lat="44.12023" lon="6.6994">
        <ele>2120</ele>
        <time>2020-03-21T15:13:08.882Z</time>
      </trkpt>
      <trkpt lat="44.12022" lon="6.69944">
        <ele>2122</ele>
        <time>2020-03-21T15:13:09.882Z</time>
      </trkpt>
      <trkpt lat="44.12018" lon="6.69948">
        <ele>2124</ele>
        <time>2020-03-21T15:13:10.882Z</time>
      </trkpt>
      <trkpt lat="44.12016" lon="6.69952">
        <ele>2126</ele>
        <time>2020-03-21T15:13:11.882Z</time>
      </trkpt>
      <trkpt lat="44.12016" lon="6.69957">
        <ele>2127</ele>
        <time>2020-03-21T15:13:12.882Z</time>
      </trkpt>
      <trkpt lat="44.12012" lon="6.69959">
        <ele>2129</ele>
        <time>2020-03-21T15:13:13.882Z</time>
      </trkpt>
      <trkpt lat="44.12011" lon="6.6996">
        <ele>2129</ele>
        <time>2020-03-21T15:13:14.882Z</time>
      </trkpt>
      <trkpt lat="44.12009" lon="6.69961">
        <ele>2130</ele>
        <time>2020-03-21T15:13:15.882Z</time>
      </trkpt>
      <trkpt lat="44.12004" lon="6.69965">
        <ele>2132</ele>
        <time>2020-03-21T15:13:16.882Z</time>
      </trkpt>
      <trkpt lat="44.12001" lon="6.69972">
        <ele>2135</ele>
        <time>2020-03-21T15:13:17.882Z</time>
      </trkpt>
      <trkpt lat="44.11995" lon="6.69973">
        <ele>2137</ele>
        <time>2020-03-21T15:13:18.882Z</time>
      </trkpt>
      <trkpt lat="44.1199" lon="6.69976">
        <ele>2139</ele>
        <time>2020-03-21T15:13:19.882Z</time>
      </trkpt>
      <trkpt lat="44.11988" lon="6.69979">
        <ele>2141</ele>
        <time>2020-03-21T15:13:20.882Z</time>
      </trkpt>
      <trkpt lat="44.11982" lon="6.69979">
        <ele>2143</ele>
        <time>2020-03-21T15:13:21.882Z</time>
      </trkpt>
      <trkpt lat="44.1198" lon="6.69979">
        <ele>2143</ele>
        <time>2020-03-21T15:13:22.882Z</time>
      </trkpt>
      <trkpt lat="44.11978" lon="6.6998">
        <ele>2144</ele>
        <time>2020-03-21T15:13:23.882Z</time>
      </trkpt>
      <trkpt lat="44.11976" lon="6.69983">
        <ele>2146</ele>
        <time>2020-03-21T15:13:24.882Z</time>
      </trkpt>
      <trkpt lat="44.11979" lon="6.6999">
        <ele>2147</ele>
        <time>2020-03-21T15:13:25.882Z</time>
      </trkpt>
      <trkpt lat="44.11977" lon="6.6999">
        <ele>2148</ele>
        <time>2020-03-21T15:13:26.882Z</time>
      </trkpt>
      <trkpt lat="44.11976" lon="6.69991">
        <ele>2148</ele>
        <time>2020-03-21T15:13:27.882Z</time>
      </trkpt>
      <trkpt lat="44.11973" lon="6.69991">
        <ele>2149</ele>
        <time>2020-03-21T15:13:28.882Z</time>
      </trkpt>
      <trkpt lat="44.11968" lon="6.69992">
        <ele>2151</ele>
        <time>2020-03-21T15:13:29.882Z</time>
      </trkpt>
      <trkpt lat="44.11966" lon="6.69994">
        <ele>2152</ele>
        <time>2020-03-21T15:13:30.882Z</time>
      </trkpt>
      <trkpt lat="44.11964" lon="6.69999">
        <ele>2155</ele>
        <time>2020-03-21T15:13:31.882Z</time>
      </trkpt>
      <trkpt lat="44.11961" lon="6.69998">
        <ele>2155</ele>
        <time>2020-03-21T15:13:32.882Z</time>
      </trkpt>
      <trkpt lat="44.11948" lon="6.69995">
        <ele>2157</ele>
        <time>2020-03-21T15:13:33.882Z</time>
      </trkpt>
      <trkpt lat="44.11941" lon="6.69993">
        <ele>2158</ele>
        <time>2020-03-21T15:13:34.882Z</time>
      </trkpt>
      <trkpt lat="44.11937" lon="6.69992">
        <ele>2159</ele>
        <time>2020-03-21T15:13:35.882Z</time>
      </trkpt>
      <trkpt lat="44.11933" lon="6.69995">
        <ele>2161</ele>
        <time>2020-03-21T15:13:36.882Z</time>
      </trkpt>
      <trkpt lat="44.11933" lon="6.69997">
        <ele>2162</ele>
        <time>2020-03-21T15:13:37.882Z</time>
      </trkpt>
      <trkpt lat="44.11934" lon="6.7">
        <ele>2163</ele>
        <time>2020-03-21T15:13:38.882Z</time>
      </trkpt>
      <trkpt lat="44.11935" lon="6.70009">
        <ele>2164</ele>
        <time>2020-03-21T15:13:39.882Z</time>
      </trkpt>
      <trkpt lat="44.11937" lon="6.70016">
        <ele>2166</ele>
        <time>2020-03-21T15:13:40.882Z</time>
      </trkpt>
      <trkpt lat="44.11938" lon="6.70019">
        <ele>2166</ele>
        <time>2020-03-21T15:13:41.882Z</time>
      </trkpt>
      <trkpt lat="44.11938" lon="6.70023">
        <ele>2167</ele>
        <time>2020-03-21T15:13:42.882Z</time>
      </trkpt>
      <trkpt lat="44.1194" lon="6.70033">
        <ele>2169</ele>
        <time>2020-03-21T15:13:43.882Z</time>
      </trkpt>
      <trkpt lat="44.11938" lon="6.70041">
        <ele>2171</ele>
        <time>2020-03-21T15:13:44.882Z</time>
      </trkpt>
      <trkpt lat="44.11951" lon="6.70051">
        <ele>2169</ele>
        <time>2020-03-21T15:13:45.882Z</time>
      </trkpt>
      <trkpt lat="44.1195" lon="6.70053">
        <ele>2170</ele>
        <time>2020-03-21T15:13:46.882Z</time>
      </trkpt>
      <trkpt lat="44.11948" lon="6.70061">
        <ele>2173</ele>
        <time>2020-03-21T15:13:47.882Z</time>
      </trkpt>
      <trkpt lat="44.11943" lon="6.70073">
        <ele>2176</ele>
        <time>2020-03-21T15:13:48.882Z</time>
      </trkpt>
      <trkpt lat="44.11942" lon="6.70076">
        <ele>2177</ele>
        <time>2020-03-21T15:13:49.882Z</time>
      </trkpt>
      <trkpt lat="44.11942" lon="6.70079">
        <ele>2178</ele>
        <time>2020-03-21T15:13:50.882Z</time>
      </trkpt>
      <trkpt lat="44.1194" lon="6.7009">
        <ele>2180</ele>
        <time>2020-03-21T15:13:51.882Z</time>
      </trkpt>
      <trkpt lat="44.11938" lon="6.70098">
        <ele>2181</ele>
        <time>2020-03-21T15:13:52.882Z</time>
      </trkpt>
      <trkpt lat="44.11935" lon="6.70104">
        <ele>2181</ele>
        <time>2020-03-21T15:13:53.882Z</time>
      </trkpt>
      <trkpt lat="44.11932" lon="6.7011">
        <ele>2182</ele>
        <time>2020-03-21T15:13:54.882Z</time>
      </trkpt>
      <trkpt lat="44.11935" lon="6.70122">
        <ele>2182</ele>
        <time>2020-03-21T15:13:55.882Z</time>
      </trkpt>
      <trkpt lat="44.11935" lon="6.70127">
        <ele>2182</ele>
        <time>2020-03-21T15:13:56.882Z</time>
      </trkpt>
      <trkpt lat="44.11929" lon="6.70129">
        <ele>2184</ele>
        <time>2020-03-21T15:13:57.882Z</time>
      </trkpt>
      <trkpt lat="44.11927" lon="6.70131">
        <ele>2184</ele>
        <time>2020-03-21T15:13:58.882Z</time>
      </trkpt>
      <trkpt lat="44.11917" lon="6.70139">
        <ele>2187</ele>
        <time>2020-03-21T15:13:59.882Z</time>
      </trkpt>
      <trkpt lat="44.1191" lon="6.70145">
        <ele>2189</ele>
        <time>2020-03-21T15:14:00.882Z</time>
      </trkpt>
      <trkpt lat="44.11904" lon="6.70153">
        <ele>2191</ele>
        <time>2020-03-21T15:14:01.882Z</time>
      </trkpt>
      <trkpt lat="44.11901" lon="6.70157">
        <ele>2192</ele>
        <time>2020-03-21T15:14:02.882Z</time>
      </trkpt>
      <trkpt lat="44.11896" lon="6.7016">
        <ele>2193</ele>
        <time>2020-03-21T15:14:03.882Z</time>
      </trkpt>
      <trkpt lat="44.11889" lon="6.70162">
        <ele>2195</ele>
        <time>2020-03-21T15:14:04.882Z</time>
      </trkpt>
      <trkpt lat="44.11886" lon="6.70166">
        <ele>2196</ele>
        <time>2020-03-21T15:14:05.882Z</time>
      </trkpt>
      <trkpt lat="44.11883" lon="6.7017">
        <ele>2197</ele>
        <time>2020-03-21T15:14:06.882Z</time>
      </trkpt>
      <trkpt lat="44.11881" lon="6.70173">
        <ele>2197</ele>
        <time>2020-03-21T15:14:07.882Z</time>
      </trkpt>
      <trkpt lat="44.11874" lon="6.70185">
        <ele>2199</ele>
        <time>2020-03-21T15:14:08.882Z</time>
      </trkpt>
      <trkpt lat="44.11866" lon="6.70196">
        <ele>2201</ele>
        <time>2020-03-21T15:14:09.882Z</time>
      </trkpt>
      <trkpt lat="44.11859" lon="6.70207">
        <ele>2202</ele>
        <time>2020-03-21T15:14:10.882Z</time>
      </trkpt>
      <trkpt lat="44.11854" lon="6.7022">
        <ele>2203</ele>
        <time>2020-03-21T15:14:11.882Z</time>
      </trkpt>
      <trkpt lat="44.11847" lon="6.70237">
        <ele>2204</ele>
        <time>2020-03-21T15:14:12.882Z</time>
      </trkpt>
      <trkpt lat="44.11841" lon="6.70251">
        <ele>2204</ele>
        <time>2020-03-21T15:14:13.882Z</time>
      </trkpt>
      <trkpt lat="44.11833" lon="6.70268">
        <ele>2205</ele>
        <time>2020-03-21T15:14:14.882Z</time>
      </trkpt>
      <trkpt lat="44.11824" lon="6.70286">
        <ele>2206</ele>
        <time>2020-03-21T15:14:15.882Z</time>
      </trkpt>
      <trkpt lat="44.11815" lon="6.70303">
        <ele>2206</ele>
        <time>2020-03-21T15:14:16.882Z</time>
      </trkpt>
      <trkpt lat="44.11805" lon="6.70318">
        <ele>2206</ele>
        <time>2020-03-21T15:14:17.882Z</time>
      </trkpt>
      <trkpt lat="44.11798" lon="6.70331">
        <ele>2206</ele>
        <time>2020-03-21T15:14:18.882Z</time>
      </trkpt>
      <trkpt lat="44.11794" lon="6.70343">
        <ele>2207</ele>
        <time>2020-03-21T15:14:19.882Z</time>
      </trkpt>
      <trkpt lat="44.11783" lon="6.7036">
        <ele>2209</ele>
        <time>2020-03-21T15:14:20.882Z</time>
      </trkpt>
      <trkpt lat="44.11769" lon="6.70373">
        <ele>2210</ele>
        <time>2020-03-21T15:14:21.882Z</time>
      </trkpt>
      <trkpt lat="44.11759" lon="6.7038">
        <ele>2211</ele>
        <time>2020-03-21T15:14:22.882Z</time>
      </trkpt>
      <trkpt lat="44.11757" lon="6.70381">
        <ele>2211</ele>
        <time>2020-03-21T15:14:23.882Z</time>
      </trkpt>
      <trkpt lat="44.1176" lon="6.70379">
        <ele>2211</ele>
        <time>2020-03-21T15:14:24.882Z</time>
      </trkpt>
      <trkpt lat="44.11754" lon="6.70383">
        <ele>2212</ele>
        <time>2020-03-21T15:14:25.882Z</time>
      </trkpt>
      <trkpt lat="44.11742" lon="6.70394">
        <ele>2213</ele>
        <time>2020-03-21T15:14:26.882Z</time>
      </trkpt>
      <trkpt lat="44.11729" lon="6.70399">
        <ele>2215</ele>
        <time>2020-03-21T15:14:27.882Z</time>
      </trkpt>
      <trkpt lat="44.11714" lon="6.70406">
        <ele>2216</ele>
        <time>2020-03-21T15:14:28.882Z</time>
      </trkpt>
      <trkpt lat="44.117" lon="6.70411">
        <ele>2218</ele>
        <time>2020-03-21T15:14:29.882Z</time>
      </trkpt>
      <trkpt lat="44.11686" lon="6.70417">
        <ele>2219</ele>
        <time>2020-03-21T15:14:30.882Z</time>
      </trkpt>
      <trkpt lat="44.1167" lon="6.70423">
        <ele>2221</ele>
        <time>2020-03-21T15:14:31.882Z</time>
      </trkpt>
      <trkpt lat="44.11664" lon="6.70424">
        <ele>2222</ele>
        <time>2020-03-21T15:14:32.882Z</time>
      </trkpt>
      <trkpt lat="44.11653" lon="6.70432">
        <ele>2226</ele>
        <time>2020-03-21T15:14:33.882Z</time>
      </trkpt>
      <trkpt lat="44.11642" lon="6.70434">
        <ele>2228</ele>
        <time>2020-03-21T15:14:34.882Z</time>
      </trkpt>
      <trkpt lat="44.11631" lon="6.70442">
        <ele>2230</ele>
        <time>2020-03-21T15:14:35.882Z</time>
      </trkpt>
      <trkpt lat="44.11628" lon="6.70443">
        <ele>2231</ele>
        <time>2020-03-21T15:14:36.882Z</time>
      </trkpt>
      <trkpt lat="44.11619" lon="6.70452">
        <ele>2233</ele>
        <time>2020-03-21T15:14:37.882Z</time>
      </trkpt>
      <trkpt lat="44.11605" lon="6.70458">
        <ele>2235</ele>
        <time>2020-03-21T15:14:38.882Z</time>
      </trkpt>
      <trkpt lat="44.11593" lon="6.70456">
        <ele>2237</ele>
        <time>2020-03-21T15:14:39.882Z</time>
      </trkpt>
      <trkpt lat="44.11582" lon="6.70459">
        <ele>2239</ele>
        <time>2020-03-21T15:14:40.882Z</time>
      </trkpt>
      <trkpt lat="44.11569" lon="6.70473">
        <ele>2240</ele>
        <time>2020-03-21T15:14:41.882Z</time>
      </trkpt>
      <trkpt lat="44.11565" lon="6.70478">
        <ele>2240</ele>
        <time>2020-03-21T15:14:42.882Z</time>
      </trkpt>
      <trkpt lat="44.11556" lon="6.70484">
        <ele>2241</ele>
        <time>2020-03-21T15:14:43.882Z</time>
      </trkpt>
      <trkpt lat="44.1154" lon="6.70499">
        <ele>2240</ele>
        <time>2020-03-21T15:14:44.882Z</time>
      </trkpt>
      <trkpt lat="44.11533" lon="6.70504">
        <ele>2241</ele>
        <time>2020-03-21T15:14:45.882Z</time>
      </trkpt>
      <trkpt lat="44.11532" lon="6.70504">
        <ele>2241</ele>
        <time>2020-03-21T15:14:46.882Z</time>
      </trkpt>
      <trkpt lat="44.11524" lon="6.70498">
        <ele>2241</ele>
        <time>2020-03-21T15:14:47.882Z</time>
      </trkpt>
      <trkpt lat="44.1151" lon="6.70493">
        <ele>2243</ele>
        <time>2020-03-21T15:14:48.882Z</time>
      </trkpt>
      <trkpt lat="44.11496" lon="6.70496">
        <ele>2243</ele>
        <time>2020-03-21T15:14:49.882Z</time>
      </trkpt>
      <trkpt lat="44.11487" lon="6.70502">
        <ele>2244</ele>
        <time>2020-03-21T15:14:50.882Z</time>
      </trkpt>
      <trkpt lat="44.11474" lon="6.70515">
        <ele>2247</ele>
        <time>2020-03-21T15:14:51.882Z</time>
      </trkpt>
      <trkpt lat="44.11471" lon="6.70519">
        <ele>2247</ele>
        <time>2020-03-21T15:14:52.882Z</time>
      </trkpt>
      <trkpt lat="44.1146" lon="6.70522">
        <ele>2249</ele>
        <time>2020-03-21T15:14:53.882Z</time>
      </trkpt>
      <trkpt lat="44.11443" lon="6.70522">
        <ele>2252</ele>
        <time>2020-03-21T15:14:54.882Z</time>
      </trkpt>
      <trkpt lat="44.11428" lon="6.70523">
        <ele>2254</ele>
        <time>2020-03-21T15:14:55.882Z</time>
      </trkpt>
      <trkpt lat="44.11416" lon="6.70527">
        <ele>2255</ele>
        <time>2020-03-21T15:14:56.882Z</time>
      </trkpt>
      <trkpt lat="44.11404" lon="6.70535">
        <ele>2257</ele>
        <time>2020-03-21T15:14:57.882Z</time>
      </trkpt>
      <trkpt lat="44.1139" lon="6.7054">
        <ele>2259</ele>
        <time>2020-03-21T15:14:58.882Z</time>
      </trkpt>
      <trkpt lat="44.11375" lon="6.7054">
        <ele>2261</ele>
        <time>2020-03-21T15:14:59.882Z</time>
      </trkpt>
      <trkpt lat="44.11366" lon="6.70539">
        <ele>2263</ele>
        <time>2020-03-21T15:15:00.882Z</time>
      </trkpt>
      <trkpt lat="44.1136" lon="6.70541">
        <ele>2263</ele>
        <time>2020-03-21T15:15:01.882Z</time>
      </trkpt>
      <trkpt lat="44.11354" lon="6.70541">
        <ele>2264</ele>
        <time>2020-03-21T15:15:02.882Z</time>
      </trkpt>
      <trkpt lat="44.11348" lon="6.70537">
        <ele>2265</ele>
        <time>2020-03-21T15:15:03.882Z</time>
      </trkpt>
      <trkpt lat="44.11337" lon="6.70532">
        <ele>2268</ele>
        <time>2020-03-21T15:15:04.882Z</time>
      </trkpt>
      <trkpt lat="44.11321" lon="6.70533">
        <ele>2270</ele>
        <time>2020-03-21T15:15:05.882Z</time>
      </trkpt>
      <trkpt lat="44.11312" lon="6.70537">
        <ele>2270</ele>
        <time>2020-03-21T15:15:06.882Z</time>
      </trkpt>
      <trkpt lat="44.1131" lon="6.70538">
        <ele>2270</ele>
        <time>2020-03-21T15:15:07.882Z</time>
      </trkpt>
      <trkpt lat="44.11303" lon="6.70548">
        <ele>2270</ele>
        <time>2020-03-21T15:15:08.882Z</time>
      </trkpt>
      <trkpt lat="44.11299" lon="6.70549">
        <ele>2271</ele>
        <time>2020-03-21T15:15:09.882Z</time>
      </trkpt>
      <trkpt lat="44.11286" lon="6.7055">
        <ele>2273</ele>
        <time>2020-03-21T15:15:10.882Z</time>
      </trkpt>
      <trkpt lat="44.11279" lon="6.70551">
        <ele>2273</ele>
        <time>2020-03-21T15:15:11.882Z</time>
      </trkpt>
      <trkpt lat="44.11271" lon="6.70555">
        <ele>2274</ele>
        <time>2020-03-21T15:15:12.882Z</time>
      </trkpt>
      <trkpt lat="44.11263" lon="6.7056">
        <ele>2275</ele>
        <time>2020-03-21T15:15:13.882Z</time>
      </trkpt>
      <trkpt lat="44.11254" lon="6.70563">
        <ele>2276</ele>
        <time>2020-03-21T15:15:14.882Z</time>
      </trkpt>
      <trkpt lat="44.11246" lon="6.70561">
        <ele>2277</ele>
        <time>2020-03-21T15:15:15.882Z</time>
      </trkpt>
      <trkpt lat="44.11241" lon="6.70565">
        <ele>2277</ele>
        <time>2020-03-21T15:15:16.882Z</time>
      </trkpt>
      <trkpt lat="44.1124" lon="6.70572">
        <ele>2277</ele>
        <time>2020-03-21T15:15:17.882Z</time>
      </trkpt>
      <trkpt lat="44.11237" lon="6.70575">
        <ele>2277</ele>
        <time>2020-03-21T15:15:18.882Z</time>
      </trkpt>
      <trkpt lat="44.11235" lon="6.70576">
        <ele>2277</ele>
        <time>2020-03-21T15:15:19.882Z</time>
      </trkpt>
      <trkpt lat="44.11235" lon="6.70577">
        <ele>2277</ele>
        <time>2020-03-21T15:15:20.882Z</time>
      </trkpt>
      <trkpt lat="44.11229" lon="6.70579">
        <ele>2277</ele>
        <time>2020-03-21T15:15:21.882Z</time>
      </trkpt>
      <trkpt lat="44.11224" lon="6.70581">
        <ele>2277</ele>
        <time>2020-03-21T15:15:22.882Z</time>
      </trkpt>
      <trkpt lat="44.11221" lon="6.70583">
        <ele>2277</ele>
        <time>2020-03-21T15:15:23.882Z</time>
      </trkpt>
      <trkpt lat="44.11205" lon="6.70587">
        <ele>2278</ele>
        <time>2020-03-21T15:15:24.882Z</time>
      </trkpt>
      <trkpt lat="44.11191" lon="6.70592">
        <ele>2278</ele>
        <time>2020-03-21T15:15:25.882Z</time>
      </trkpt>
      <trkpt lat="44.1118" lon="6.70597">
        <ele>2279</ele>
        <time>2020-03-21T15:15:26.882Z</time>
      </trkpt>
      <trkpt lat="44.11164" lon="6.70601">
        <ele>2279</ele>
        <time>2020-03-21T15:15:27.882Z</time>
      </trkpt>
      <trkpt lat="44.11152" lon="6.70598">
        <ele>2278</ele>
        <time>2020-03-21T15:15:28.882Z</time>
      </trkpt>
      <trkpt lat="44.11139" lon="6.70602">
        <ele>2277</ele>
        <time>2020-03-21T15:15:29.882Z</time>
      </trkpt>
      <trkpt lat="44.11123" lon="6.70612">
        <ele>2275</ele>
        <time>2020-03-21T15:15:30.882Z</time>
      </trkpt>
      <trkpt lat="44.11113" lon="6.70617">
        <ele>2274</ele>
        <time>2020-03-21T15:15:31.882Z</time>
      </trkpt>
      <trkpt lat="44.11086" lon="6.70611">
        <ele>2272</ele>
        <time>2020-03-21T15:15:32.882Z</time>
      </trkpt>
      <trkpt lat="44.11063" lon="6.70611">
        <ele>2271</ele>
        <time>2020-03-21T15:15:33.882Z</time>
      </trkpt>
      <trkpt lat="44.11058" lon="6.70613">
        <ele>2271</ele>
        <time>2020-03-21T15:15:34.882Z</time>
      </trkpt>
      <trkpt lat="44.11035" lon="6.70616">
        <ele>2271</ele>
        <time>2020-03-21T15:15:35.882Z</time>
      </trkpt>
      <trkpt lat="44.11018" lon="6.70618">
        <ele>2270</ele>
        <time>2020-03-21T15:15:36.882Z</time>
      </trkpt>
      <trkpt lat="44.11014" lon="6.70618">
        <ele>2270</ele>
        <time>2020-03-21T15:15:37.882Z</time>
      </trkpt>
      <trkpt lat="44.11015" lon="6.70617">
        <ele>2270</ele>
        <time>2020-03-21T15:15:38.882Z</time>
      </trkpt>
      <trkpt lat="44.11007" lon="6.70611">
        <ele>2270</ele>
        <time>2020-03-21T15:15:39.882Z</time>
      </trkpt>
      <trkpt lat="44.11003" lon="6.7061">
        <ele>2270</ele>
        <time>2020-03-21T15:15:40.882Z</time>
      </trkpt>
      <trkpt lat="44.10994" lon="6.7061">
        <ele>2270</ele>
        <time>2020-03-21T15:15:41.882Z</time>
      </trkpt>
      <trkpt lat="44.10986" lon="6.70611">
        <ele>2270</ele>
        <time>2020-03-21T15:15:42.882Z</time>
      </trkpt>
      <trkpt lat="44.10972" lon="6.70612">
        <ele>2270</ele>
        <time>2020-03-21T15:15:43.882Z</time>
      </trkpt>
      <trkpt lat="44.10958" lon="6.70617">
        <ele>2270</ele>
        <time>2020-03-21T15:15:44.882Z</time>
      </trkpt>
      <trkpt lat="44.10929" lon="6.70629">
        <ele>2270</ele>
        <time>2020-03-21T15:15:45.882Z</time>
      </trkpt>
      <trkpt lat="44.10887" lon="6.70644">
        <ele>2270</ele>
        <time>2020-03-21T15:15:46.882Z</time>
      </trkpt>
      <trkpt lat="44.10876" lon="6.70648">
        <ele>2270</ele>
        <time>2020-03-21T15:15:47.882Z</time>
      </trkpt>
      <trkpt lat="44.10855" lon="6.70655">
        <ele>2270</ele>
        <time>2020-03-21T15:15:48.882Z</time>
      </trkpt>
      <trkpt lat="44.1084" lon="6.70654">
        <ele>2270</ele>
        <time>2020-03-21T15:15:49.882Z</time>
      </trkpt>
      <trkpt lat="44.10825" lon="6.70653">
        <ele>2270</ele>
        <time>2020-03-21T15:15:50.882Z</time>
      </trkpt>
      <trkpt lat="44.10799" lon="6.70655">
        <ele>2271</ele>
        <time>2020-03-21T15:15:51.882Z</time>
      </trkpt>
      <trkpt lat="44.10781" lon="6.7066">
        <ele>2271</ele>
        <time>2020-03-21T15:15:52.882Z</time>
      </trkpt>
      <trkpt lat="44.10773" lon="6.7066">
        <ele>2271</ele>
        <time>2020-03-21T15:15:53.882Z</time>
      </trkpt>
      <trkpt lat="44.10759" lon="6.70656">
        <ele>2272</ele>
        <time>2020-03-21T15:15:54.882Z</time>
      </trkpt>
      <trkpt lat="44.10746" lon="6.70656">
        <ele>2272</ele>
        <time>2020-03-21T15:15:55.882Z</time>
      </trkpt>
      <trkpt lat="44.10725" lon="6.70654">
        <ele>2274</ele>
        <time>2020-03-21T15:15:56.882Z</time>
      </trkpt>
      <trkpt lat="44.10706" lon="6.7065">
        <ele>2275</ele>
        <time>2020-03-21T15:15:57.882Z</time>
      </trkpt>
      <trkpt lat="44.10693" lon="6.70641">
        <ele>2275</ele>
        <time>2020-03-21T15:15:58.882Z</time>
      </trkpt>
      <trkpt lat="44.10681" lon="6.70637">
        <ele>2276</ele>
        <time>2020-03-21T15:15:59.882Z</time>
      </trkpt>
      <trkpt lat="44.10663" lon="6.70628">
        <ele>2277</ele>
        <time>2020-03-21T15:16:00.882Z</time>
      </trkpt>
      <trkpt lat="44.10641" lon="6.70621">
        <ele>2277</ele>
        <time>2020-03-21T15:16:01.882Z</time>
      </trkpt>
      <trkpt lat="44.10616" lon="6.70614">
        <ele>2277</ele>
        <time>2020-03-21T15:16:02.882Z</time>
      </trkpt>
      <trkpt lat="44.10605" lon="6.70611">
        <ele>2278</ele>
        <time>2020-03-21T15:16:03.882Z</time>
      </trkpt>
      <trkpt lat="44.10584" lon="6.70605">
        <ele>2278</ele>
        <time>2020-03-21T15:16:04.882Z</time>
      </trkpt>
      <trkpt lat="44.10565" lon="6.70606">
        <ele>2278</ele>
        <time>2020-03-21T15:16:05.882Z</time>
      </trkpt>
      <trkpt lat="44.10552" lon="6.70608">
        <ele>2278</ele>
        <time>2020-03-21T15:16:06.882Z</time>
      </trkpt>
      <trkpt lat="44.10518" lon="6.70611">
        <ele>2279</ele>
        <time>2020-03-21T15:16:07.882Z</time>
      </trkpt>
      <trkpt lat="44.10506" lon="6.7062">
        <ele>2279</ele>
        <time>2020-03-21T15:16:08.882Z</time>
      </trkpt>
      <trkpt lat="44.10499" lon="6.70624">
        <ele>2279</ele>
        <time>2020-03-21T15:16:09.882Z</time>
      </trkpt>
      <trkpt lat="44.10501" lon="6.70622">
        <ele>2276.6</ele>
      </trkpt>
      <trkpt lat="44.10509" lon="6.70563">
        <ele>2276.6</ele>
      </trkpt>
      <trkpt lat="44.10504" lon="6.70526">
        <ele>2278.5</ele>
      </trkpt>
      <trkpt lat="44.10508" lon="6.70435">
        <ele>2284.9</ele>
      </trkpt>
      <trkpt lat="44.10512" lon="6.7041">
        <ele>2287.4</ele>
      </trkpt>
      <trkpt lat="44.10534" lon="6.70369">
        <ele>2287</ele>
      </trkpt>
      <trkpt lat="44.10585" lon="6.70314">
        <ele>2284.1</ele>
      </trkpt>
      <trkpt lat="44.10596" lon="6.70289">
        <ele>2283.1</ele>
      </trkpt>
      <trkpt lat="44.10598" lon="6.70267">
        <ele>2282.8</ele>
      </trkpt>
      <trkpt lat="44.10592" lon="6.70239">
        <ele>2281</ele>
      </trkpt>
      <trkpt lat="44.10554" lon="6.70233">
        <ele>2281.5</ele>
      </trkpt>
      <trkpt lat="44.10518" lon="6.7024">
        <ele>2282.7</ele>
      </trkpt>
      <trkpt lat="44.10486" lon="6.70176">
        <ele>2280.2</ele>
      </trkpt>
      <trkpt lat="44.10484" lon="6.70119">
        <ele>2279.4</ele>
      </trkpt>
      <trkpt lat="44.10495" lon="6.7008">
        <ele>2280.5</ele>
      </trkpt>
      <trkpt lat="44.10505" lon="6.7002">
        <ele>2284.1</ele>
      </trkpt>
      <trkpt lat="44.10532" lon="6.69982">
        <ele>2290.3</ele>
      </trkpt>
      <trkpt lat="44.10568" lon="6.69964">
        <ele>2291.6</ele>
      </trkpt>
      <trkpt lat="44.10577" lon="6.6998">
        <ele>2289.7</ele>
      </trkpt>
      <trkpt lat="44.10604" lon="6.69982">
        <ele>2291.3</ele>
      </trkpt>
      <trkpt lat="44.10611" lon="6.69969">
        <ele>2292.8</ele>
      </trkpt>
      <trkpt lat="44.10615" lon="6.69981">
        <ele>2292</ele>
      </trkpt>
      <trkpt lat="44.10646" lon="6.69987">
        <ele>2291.9</ele>
      </trkpt>
      <trkpt lat="44.10701" lon="6.69972">
        <ele>2291.5</ele>
      </trkpt>
      <trkpt lat="44.10753" lon="6.69925">
        <ele>2292.6</ele>
      </trkpt>
      <trkpt lat="44.10775" lon="6.69916">
        <ele>2296.2</ele>
      </trkpt>
      <trkpt lat="44.1081" lon="6.69874">
        <ele>2296.8</ele>
      </trkpt>
      <trkpt lat="44.10816" lon="6.69843">
        <ele>2297.8</ele>
      </trkpt>
      <trkpt lat="44.10834" lon="6.69816">
        <ele>2295.9</ele>
      </trkpt>
      <trkpt lat="44.10854" lon="6.69772">
        <ele>2296.2</ele>
      </trkpt>
      <trkpt lat="44.10865" lon="6.69698">
        <ele>2296.2</ele>
      </trkpt>
      <trkpt lat="44.10866" lon="6.69641">
        <ele>2293.8</ele>
      </trkpt>
      <trkpt lat="44.10826" lon="6.6962">
        <ele>2300.8</ele>
      </trkpt>
      <trkpt lat="44.10798" lon="6.69583">
        <ele>2296.8</ele>
      </trkpt>
      <trkpt lat="44.10772" lon="6.69597">
        <ele>2303.3</ele>
      </trkpt>
      <trkpt lat="44.10754" lon="6.69592">
        <ele>2304.3</ele>
      </trkpt>
      <trkpt lat="44.10746" lon="6.6956">
        <ele>2305.5</ele>
      </trkpt>
      <trkpt lat="44.10705" lon="6.69516">
        <ele>2306.3</ele>
      </trkpt>
      <trkpt lat="44.1067" lon="6.69462">
        <ele>2304.5</ele>
      </trkpt>
      <trkpt lat="44.10657" lon="6.69401">
        <ele>2314.2</ele>
      </trkpt>
      <trkpt lat="44.10654" lon="6.69367">
        <ele>2316.4</ele>
      </trkpt>
      <trkpt lat="44.1067" lon="6.69336">
        <ele>2309.1</ele>
      </trkpt>
      <trkpt lat="44.10682" lon="6.69299">
        <ele>2302.4</ele>
      </trkpt>
      <trkpt lat="44.1068" lon="6.6928">
        <ele>2302.7</ele>
      </trkpt>
      <trkpt lat="44.1067" lon="6.69252">
        <ele>2308.4</ele>
      </trkpt>
      <trkpt lat="44.10672" lon="6.69226">
        <ele>2304.8</ele>
      </trkpt>
      <trkpt lat="44.10661" lon="6.6921">
        <ele>2318.7</ele>
      </trkpt>
      <trkpt lat="44.10658" lon="6.69177">
        <ele>2317</ele>
      </trkpt>
      <trkpt lat="44.10663" lon="6.69128">
        <ele>2320.9</ele>
      </trkpt>
      <trkpt lat="44.10668" lon="6.69109">
        <ele>2308.6</ele>
      </trkpt>
      <trkpt lat="44.1067" lon="6.6908">
        <ele>2313.2</ele>
      </trkpt>
      <trkpt lat="44.10681" lon="6.69043">
        <ele>2311.2</ele>
      </trkpt>
      <trkpt lat="44.10673" lon="6.69003">
        <ele>2315.9</ele>
      </trkpt>
      <trkpt lat="44.1069" lon="6.68966">
        <ele>2318.2</ele>
      </trkpt>
      <trkpt lat="44.10698" lon="6.68959">
        <ele>2318.2</ele>
      </trkpt>
      <trkpt lat="44.10703" lon="6.68965">
        <ele>2317.4</ele>
      </trkpt>
      <trkpt lat="44.10708" lon="6.68963">
        <ele>2317.2</ele>
      </trkpt>
      <trkpt lat="44.10711" lon="6.68916">
        <ele>2325</ele>
      </trkpt>
      <trkpt lat="44.10713" lon="6.68843">
        <ele>2327.6</ele>
      </trkpt>
      <trkpt lat="44.10699" lon="6.68822">
        <ele>2333.5</ele>
      </trkpt>
      <trkpt lat="44.10692" lon="6.68795">
        <ele>2334.5</ele>
      </trkpt>
      <trkpt lat="44.10682" lon="6.68771">
        <ele>2336.4</ele>
      </trkpt>
      <trkpt lat="44.10645" lon="6.68728">
        <ele>2346.4</ele>
      </trkpt>
      <trkpt lat="44.10641" lon="6.68713">
        <ele>2347.8</ele>
      </trkpt>
      <trkpt lat="44.10651" lon="6.68694">
        <ele>2349.1</ele>
      </trkpt>
      <trkpt lat="44.10625" lon="6.68697">
        <ele>2349.2</ele>
      </trkpt>
      <trkpt lat="44.1063" lon="6.68672">
        <ele>2350.3</ele>
      </trkpt>
      <trkpt lat="44.1064" lon="6.68657">
        <ele>2355.4</ele>
      </trkpt>
      <trkpt lat="44.10658" lon="6.68641">
        <ele>2355.5</ele>
      </trkpt>
      <trkpt lat="44.10672" lon="6.68641">
        <ele>2352.1</ele>
      </trkpt>
      <trkpt lat="44.10698" lon="6.68619">
        <ele>2352.2</ele>
      </trkpt>
      <trkpt lat="44.10706" lon="6.68597">
        <ele>2352.7</ele>
      </trkpt>
      <trkpt lat="44.10703" lon="6.68579">
        <ele>2356.4</ele>
      </trkpt>
      <trkpt lat="44.10684" lon="6.6857">
        <ele>2357.7</ele>
      </trkpt>
      <trkpt lat="44.10663" lon="6.68529">
        <ele>2360.3</ele>
      </trkpt>
      <trkpt lat="44.10662" lon="6.68505">
        <ele>2360.7</ele>
      </trkpt>
      <trkpt lat="44.10636" lon="6.68443">
        <ele>2365.4</ele>
      </trkpt>
      <trkpt lat="44.10622" lon="6.68388">
        <ele>2374.7</ele>
      </trkpt>
      <trkpt lat="44.10624" lon="6.68346">
        <ele>2378.2</ele>
      </trkpt>
      <trkpt lat="44.10598" lon="6.68282">
        <ele>2388.2</ele>
      </trkpt>
      <trkpt lat="44.10569" lon="6.68261">
        <ele>2388.8</ele>
      </trkpt>
      <trkpt lat="44.10585" lon="6.68258">
        <ele>2390.2</ele>
      </trkpt>
      <trkpt lat="44.10608" lon="6.68269">
        <ele>2389.2</ele>
      </trkpt>
      <trkpt lat="44.10634" lon="6.6827">
        <ele>2390.2</ele>
      </trkpt>
      <trkpt lat="44.10662" lon="6.68232">
        <ele>2398.7</ele>
      </trkpt>
      <trkpt lat="44.10677" lon="6.68225">
        <ele>2399.7</ele>
      </trkpt>
      <trkpt lat="44.10678" lon="6.68221">
        <ele>2400.1</ele>
      </trkpt>
      <trkpt lat="44.10696" lon="6.68185">
        <ele>2402</ele>
      </trkpt>
      <trkpt lat="44.10719" lon="6.68154">
        <ele>2409.4</ele>
      </trkpt>
      <trkpt lat="44.10746" lon="6.68132">
        <ele>2410.2</ele>
      </trkpt>
      <trkpt lat="44.10753" lon="6.68116">
        <ele>2410.1</ele>
      </trkpt>
      <trkpt lat="44.10766" lon="6.68079">
        <ele>2417.1</ele>
      </trkpt>
      <trkpt lat="44.1077" lon="6.68063">
        <ele>2419.7</ele>
      </trkpt>
      <trkpt lat="44.10775" lon="6.68053">
        <ele>2421.4</ele>
      </trkpt>
      <trkpt lat="44.10783" lon="6.68046">
        <ele>2422.4</ele>
      </trkpt>
      <trkpt lat="44.10826" lon="6.68056">
        <ele>2420.7</ele>
      </trkpt>
      <trkpt lat="44.10845" lon="6.68066">
        <ele>2422.5</ele>
      </trkpt>
      <trkpt lat="44.10876" lon="6.68041">
        <ele>2429.1</ele>
      </trkpt>
      <trkpt lat="44.10887" lon="6.6804">
        <ele>2430.1</ele>
      </trkpt>
      <trkpt lat="44.10876" lon="6.68015">
        <ele>2431.8</ele>
      </trkpt>
      <trkpt lat="44.10853" lon="6.67988">
        <ele>2443</ele>
      </trkpt>
      <trkpt lat="44.10871" lon="6.67981">
        <ele>2447.1</ele>
      </trkpt>
      <trkpt lat="44.10861" lon="6.67966">
        <ele>2448.2</ele>
      </trkpt>
      <trkpt lat="44.10886" lon="6.67961">
        <ele>2450.9</ele>
      </trkpt>
      <trkpt lat="44.10867" lon="6.6794">
        <ele>2452.5</ele>
      </trkpt>
      <trkpt lat="44.10875" lon="6.67937">
        <ele>2453.4</ele>
      </trkpt>
      <trkpt lat="44.10836" lon="6.67898">
        <ele>2465.4</ele>
      </trkpt>
      <trkpt lat="44.10811" lon="6.67885">
        <ele>2461.9</ele>
      </trkpt>
      <trkpt lat="44.10771" lon="6.67858">
        <ele>2461.7</ele>
      </trkpt>
      <trkpt lat="44.10758" lon="6.67849">
        <ele>2461.1</ele>
      </trkpt>
      <trkpt lat="44.10771" lon="6.67829">
        <ele>2457.7</ele>
      </trkpt>
      <trkpt lat="44.1078" lon="6.67817">
        <ele>2457</ele>
      </trkpt>
      <trkpt lat="44.10795" lon="6.67816">
        <ele>2458.6</ele>
      </trkpt>
      <trkpt lat="44.10812" lon="6.67801">
        <ele>2458.9</ele>
      </trkpt>
      <trkpt lat="44.10848" lon="6.67741">
        <ele>2465.6</ele>
      </trkpt>
      <trkpt lat="44.10849" lon="6.67678">
        <ele>2458.8</ele>
      </trkpt>
      <trkpt lat="44.10845" lon="6.67637">
        <ele>2455</ele>
      </trkpt>
      <trkpt lat="44.10843" lon="6.6754">
        <ele>2448.2</ele>
      </trkpt>
      <trkpt lat="44.10821" lon="6.67447">
        <ele>2415.2</ele>
      </trkpt>
      <trkpt lat="44.10764" lon="6.67312">
        <ele>2405.8</ele>
      </trkpt>
      <trkpt lat="44.10738" lon="6.67221">
        <ele>2381.3</ele>
      </trkpt>
      <trkpt lat="44.10715" lon="6.67163">
        <ele>2383.6</ele>
      </trkpt>
      <trkpt lat="44.10679" lon="6.67106">
        <ele>2375.3</ele>
      </trkpt>
      <trkpt lat="44.10619" lon="6.67034">
        <ele>2344.9</ele>
      </trkpt>
      <trkpt lat="44.106" lon="6.66994">
        <ele>2337.6</ele>
      </trkpt>
      <trkpt lat="44.10591" lon="6.66898">
        <ele>2329.4</ele>
      </trkpt>
      <trkpt lat="44.10598" lon="6.66874">
        <ele>2330.4</ele>
      </trkpt>
      <trkpt lat="44.10592" lon="6.66854">
        <ele>2325.3</ele>
      </trkpt>
      <trkpt lat="44.10577" lon="6.66841">
        <ele>2308.7</ele>
      </trkpt>
      <trkpt lat="44.10569" lon="6.66824">
        <ele>2305.3</ele>
      </trkpt>
      <trkpt lat="44.10543" lon="6.66798">
        <ele>2299.5</ele>
      </trkpt>
      <trkpt lat="44.10532" lon="6.66767">
        <ele>2298.4</ele>
      </trkpt>
      <trkpt lat="44.10516" lon="6.66753">
        <ele>2297.3</ele>
      </trkpt>
      <trkpt lat="44.10498" lon="6.66706">
        <ele>2283.4</ele>
      </trkpt>
      <trkpt lat="44.10488" lon="6.6667">
        <ele>2284.3</ele>
      </trkpt>
      <trkpt lat="44.10481" lon="6.6665">
        <ele>2281.1</ele>
      </trkpt>
      <trkpt lat="44.1048" lon="6.66637">
        <ele>2280.1</ele>
      </trkpt>
      <trkpt lat="44.10487" lon="6.6661">
        <ele>2280.3</ele>
      </trkpt>
      <trkpt lat="44.10487" lon="6.66588">
        <ele>2281.5</ele>
      </trkpt>
      <trkpt lat="44.10499" lon="6.66567">
        <ele>2280.4</ele>
      </trkpt>
      <trkpt lat="44.10511" lon="6.66513">
        <ele>2274.8</ele>
      </trkpt>
      <trkpt lat="44.10491" lon="6.66499">
        <ele>2273.7</ele>
      </trkpt>
      <trkpt lat="44.10399" lon="6.66437">
        <ele>2256.5</ele>
      </trkpt>
      <trkpt lat="44.10374" lon="6.66448">
        <ele>2252.2</ele>
      </trkpt>
      <trkpt lat="44.1037" lon="6.66388">
        <ele>2250.8</ele>
      </trkpt>
      <trkpt lat="44.10321" lon="6.66284">
        <ele>2231.8</ele>
      </trkpt>
      <trkpt lat="44.10308" lon="6.66221">
        <ele>2225.8</ele>
      </trkpt>
      <trkpt lat="44.10316" lon="6.66192">
        <ele>2223</ele>
      </trkpt>
      <trkpt lat="44.10343" lon="6.66179">
        <ele>2222.3</ele>
      </trkpt>
      <trkpt lat="44.10385" lon="6.66175">
        <ele>2218.2</ele>
      </trkpt>
      <trkpt lat="44.10479" lon="6.66224">
        <ele>2196.2</ele>
      </trkpt>
      <trkpt lat="44.10536" lon="6.66294">
        <ele>2193.2</ele>
      </trkpt>
      <trkpt lat="44.10662" lon="6.66365">
        <ele>2186.3</ele>
      </trkpt>
      <trkpt lat="44.1052" lon="6.66085">
        <ele>2135.5</ele>
      </trkpt>
      <trkpt lat="44.10522" lon="6.66023">
        <ele>2119.6</ele>
      </trkpt>
      <trkpt lat="44.10517" lon="6.65983">
        <ele>2110.5</ele>
      </trkpt>
      <trkpt lat="44.10505" lon="6.65919">
        <ele>2094.4</ele>
      </trkpt>
      <trkpt lat="44.10501" lon="6.65907">
        <ele>2092.9</ele>
      </trkpt>
      <trkpt lat="44.1046" lon="6.6586">
        <ele>2091.1</ele>
      </trkpt>
      <trkpt lat="44.10446" lon="6.65857">
        <ele>2091.7</ele>
      </trkpt>
      <trkpt lat="44.10388" lon="6.65797">
        <ele>2082.6</ele>
      </trkpt>
      <trkpt lat="44.1033" lon="6.65726">
        <ele>2070.2</ele>
      </trkpt>
      <trkpt lat="44.10316" lon="6.65696">
        <ele>2064.8</ele>
      </trkpt>
      <trkpt lat="44.10212" lon="6.65582">
        <ele>2043.5</ele>
      </trkpt>
      <trkpt lat="44.10166" lon="6.65517">
        <ele>2046.5</ele>
      </trkpt>
      <trkpt lat="44.1005" lon="6.65412">
        <ele>2015.7</ele>
      </trkpt>
      <trkpt lat="44.10002" lon="6.65388">
        <ele>2012.8</ele>
      </trkpt>
      <trkpt lat="44.09978" lon="6.65397">
        <ele>2001.5</ele>
      </trkpt>
      <trkpt lat="44.09967" lon="6.65539">
        <ele>2017.7</ele>
      </trkpt>
      <trkpt lat="44.09941" lon="6.65618">
        <ele>2021.4</ele>
      </trkpt>
      <trkpt lat="44.09874" lon="6.65778">
        <ele>2004.6</ele>
      </trkpt>
      <trkpt lat="44.09853" lon="6.65838">
        <ele>2000.1</ele>
      </trkpt>
      <trkpt lat="44.09836" lon="6.65854">
        <ele>1998.6</ele>
      </trkpt>
      <trkpt lat="44.09847" lon="6.65893">
        <ele>1996.3</ele>
      </trkpt>
      <trkpt lat="44.09852" lon="6.6594">
        <ele>1996</ele>
      </trkpt>
      <trkpt lat="44.09841" lon="6.65943">
        <ele>1994.8</ele>
      </trkpt>
      <trkpt lat="44.09801" lon="6.65921">
        <ele>1980.6</ele>
      </trkpt>
      <trkpt lat="44.09774" lon="6.65984">
        <ele>1981.4</ele>
      </trkpt>
      <trkpt lat="44.09757" lon="6.66005">
        <ele>1983.9</ele>
      </trkpt>
      <trkpt lat="44.09742" lon="6.66042">
        <ele>1996.4</ele>
      </trkpt>
      <trkpt lat="44.09702" lon="6.66006">
        <ele>1999.7</ele>
      </trkpt>
      <trkpt lat="44.09651" lon="6.65918">
        <ele>2003.2</ele>
      </trkpt>
      <trkpt lat="44.0964" lon="6.65883">
        <ele>2004.2</ele>
      </trkpt>
      <trkpt lat="44.09619" lon="6.65849">
        <ele>2008.6</ele>
      </trkpt>
      <trkpt lat="44.09597" lon="6.65795">
        <ele>2013.3</ele>
      </trkpt>
      <trkpt lat="44.09593" lon="6.65777">
        <ele>2016</ele>
      </trkpt>
      <trkpt lat="44.09579" lon="6.65759">
        <ele>2029.4</ele>
      </trkpt>
      <trkpt lat="44.09576" lon="6.65737">
        <ele>2030.7</ele>
      </trkpt>
      <trkpt lat="44.09558" lon="6.65699">
        <ele>2031</ele>
      </trkpt>
      <trkpt lat="44.09542" lon="6.65657">
        <ele>2034</ele>
      </trkpt>
      <trkpt lat="44.09507" lon="6.65622">
        <ele>2034.7</ele>
      </trkpt>
      <trkpt lat="44.09466" lon="6.65601">
        <ele>2033.7</ele>
      </trkpt>
      <trkpt lat="44.09393" lon="6.65578">
        <ele>2043.2</ele>
      </trkpt>
      <trkpt lat="44.0927" lon="6.65506">
        <ele>2042.9</ele>
      </trkpt>
      <trkpt lat="44.0916" lon="6.6544">
        <ele>2047</ele>
      </trkpt>
      <trkpt lat="44.09132" lon="6.6541">
        <ele>2051.2</ele>
      </trkpt>
      <trkpt lat="44.09134" lon="6.65386">
        <ele>2051.6</ele>
      </trkpt>
      <trkpt lat="44.09134" lon="6.65329">
        <ele>2054</ele>
      </trkpt>
      <trkpt lat="44.09122" lon="6.65255">
        <ele>2051.8</ele>
      </trkpt>
      <trkpt lat="44.09148" lon="6.65214">
        <ele>2052.2</ele>
      </trkpt>
      <trkpt lat="44.09153" lon="6.65175">
        <ele>2053.3</ele>
      </trkpt>
      <trkpt lat="44.09162" lon="6.65133">
        <ele>2050.6</ele>
      </trkpt>
      <trkpt lat="44.09184" lon="6.65083">
        <ele>2062.1</ele>
      </trkpt>
      <trkpt lat="44.09185" lon="6.6507">
        <ele>2063.2</ele>
      </trkpt>
      <trkpt lat="44.09162" lon="6.65038">
        <ele>2055.7</ele>
      </trkpt>
      <trkpt lat="44.09124" lon="6.64939">
        <ele>2065.5</ele>
      </trkpt>
      <trkpt lat="44.091" lon="6.64901">
        <ele>2072.1</ele>
      </trkpt>
      <trkpt lat="44.09076" lon="6.64885">
        <ele>2070.4</ele>
      </trkpt>
      <trkpt lat="44.0903" lon="6.64842">
        <ele>2072.3</ele>
      </trkpt>
      <trkpt lat="44.0899" lon="6.64786">
        <ele>2072.3</ele>
      </trkpt>
      <trkpt lat="44.08885" lon="6.64585">
        <ele>2070.1</ele>
      </trkpt>
      <trkpt lat="44.0874" lon="6.64372">
        <ele>2051.9</ele>
      </trkpt>
      <trkpt lat="44.08706" lon="6.6433">
        <ele>2051.8</ele>
      </trkpt>
      <trkpt lat="44.0866" lon="6.64324">
        <ele>2045.7</ele>
      </trkpt>
      <trkpt lat="44.08652" lon="6.64328">
        <ele>2045</ele>
      </trkpt>
      <trkpt lat="44.08623" lon="6.64315">
        <ele>2041.6</ele>
      </trkpt>
      <trkpt lat="44.08612" lon="6.64302">
        <ele>2041.3</ele>
      </trkpt>
      <trkpt lat="44.08582" lon="6.6429">
        <ele>2027.5</ele>
      </trkpt>
      <trkpt lat="44.08575" lon="6.64274">
        <ele>2030.7</ele>
      </trkpt>
      <trkpt lat="44.08557" lon="6.64267">
        <ele>2028.4</ele>
      </trkpt>
      <trkpt lat="44.08537" lon="6.64246">
        <ele>2036.4</ele>
      </trkpt>
      <trkpt lat="44.08521" lon="6.6424">
        <ele>2032.1</ele>
      </trkpt>
      <trkpt lat="44.08501" lon="6.64172">
        <ele>2039.3</ele>
      </trkpt>
      <trkpt lat="44.08489" lon="6.64169">
        <ele>2033.3</ele>
      </trkpt>
      <trkpt lat="44.08471" lon="6.6419">
        <ele>2026.2</ele>
      </trkpt>
      <trkpt lat="44.08457" lon="6.64179">
        <ele>2026.4</ele>
      </trkpt>
      <trkpt lat="44.08438" lon="6.64189">
        <ele>2024.8</ele>
      </trkpt>
      <trkpt lat="44.08416" lon="6.64188">
        <ele>2021.6</ele>
      </trkpt>
      <trkpt lat="44.08406" lon="6.64192">
        <ele>2019.6</ele>
      </trkpt>
      <trkpt lat="44.08394" lon="6.64177">
        <ele>2021.5</ele>
      </trkpt>
      <trkpt lat="44.08352" lon="6.64176">
        <ele>2020</ele>
      </trkpt>
      <trkpt lat="44.08324" lon="6.64192">
        <ele>2017.5</ele>
      </trkpt>
      <trkpt lat="44.08268" lon="6.64187">
        <ele>2019.6</ele>
      </trkpt>
      <trkpt lat="44.0823" lon="6.64175">
        <ele>2020.8</ele>
      </trkpt>
      <trkpt lat="44.08209" lon="6.64137">
        <ele>2046.2</ele>
      </trkpt>
      <trkpt lat="44.08175" lon="6.64126">
        <ele>2048.1</ele>
      </trkpt>
      <trkpt lat="44.08154" lon="6.64138">
        <ele>2041.5</ele>
      </trkpt>
      <trkpt lat="44.0807" lon="6.64126">
        <ele>2040.8</ele>
      </trkpt>
      <trkpt lat="44.08059" lon="6.64103">
        <ele>2043.6</ele>
      </trkpt>
      <trkpt lat="44.08056" lon="6.64072">
        <ele>2050.1</ele>
      </trkpt>
      <trkpt lat="44.08023" lon="6.6402">
        <ele>2046.3</ele>
      </trkpt>
      <trkpt lat="44.07984" lon="6.63975">
        <ele>2034.1</ele>
      </trkpt>
      <trkpt lat="44.07967" lon="6.63936">
        <ele>2033</ele>
      </trkpt>
      <trkpt lat="44.07869" lon="6.63912">
        <ele>2016.5</ele>
      </trkpt>
      <trkpt lat="44.07833" lon="6.63883">
        <ele>2000.7</ele>
      </trkpt>
      <trkpt lat="44.07752" lon="6.63855">
        <ele>1992</ele>
      </trkpt>
      <trkpt lat="44.07747" lon="6.63839">
        <ele>1983.4</ele>
      </trkpt>
      <trkpt lat="44.07704" lon="6.63826">
        <ele>1970.3</ele>
      </trkpt>
      <trkpt lat="44.07707" lon="6.63777">
        <ele>1973.4</ele>
      </trkpt>
      <trkpt lat="44.07647" lon="6.63728">
        <ele>1958.7</ele>
      </trkpt>
      <trkpt lat="44.07647" lon="6.63712">
        <ele>1958</ele>
      </trkpt>
      <trkpt lat="44.07664" lon="6.63686">
        <ele>1961.7</ele>
      </trkpt>
      <trkpt lat="44.07664" lon="6.63662">
        <ele>1966.8</ele>
      </trkpt>
      <trkpt lat="44.07644" lon="6.63642">
        <ele>1963.5</ele>
      </trkpt>
      <trkpt lat="44.07579" lon="6.63593">
        <ele>1949.7</ele>
      </trkpt>
      <trkpt lat="44.07565" lon="6.63592">
        <ele>1944.3</ele>
      </trkpt>
      <trkpt lat="44.07546" lon="6.63586">
        <ele>1937.7</ele>
      </trkpt>
      <trkpt lat="44.07527" lon="6.63571">
        <ele>1940.4</ele>
      </trkpt>
      <trkpt lat="44.07525" lon="6.63542">
        <ele>1942.6</ele>
      </trkpt>
      <trkpt lat="44.07504" lon="6.6353">
        <ele>1941.5</ele>
      </trkpt>
      <trkpt lat="44.07502" lon="6.63518">
        <ele>1941.5</ele>
      </trkpt>
      <trkpt lat="44.07487" lon="6.63502">
        <ele>1929.5</ele>
      </trkpt>
      <trkpt lat="44.07489" lon="6.63491">
        <ele>1931.9</ele>
      </trkpt>
      <trkpt lat="44.0746" lon="6.63478">
        <ele>1923.4</ele>
      </trkpt>
      <trkpt lat="44.07433" lon="6.63479">
        <ele>1919.8</ele>
      </trkpt>
      <trkpt lat="44.07414" lon="6.63465">
        <ele>1901</ele>
      </trkpt>
      <trkpt lat="44.07408" lon="6.6345">
        <ele>1899.9</ele>
      </trkpt>
      <trkpt lat="44.07386" lon="6.63441">
        <ele>1896.7</ele>
      </trkpt>
      <trkpt lat="44.07388" lon="6.63422">
        <ele>1898.3</ele>
      </trkpt>
      <trkpt lat="44.07328" lon="6.63404">
        <ele>1880.5</ele>
      </trkpt>
      <trkpt lat="44.07333" lon="6.63383">
        <ele>1875.6</ele>
      </trkpt>
      <trkpt lat="44.07318" lon="6.63378">
        <ele>1873.8</ele>
      </trkpt>
      <trkpt lat="44.07337" lon="6.63318">
        <ele>1873.3</ele>
      </trkpt>
      <trkpt lat="44.07316" lon="6.63308">
        <ele>1863</ele>
      </trkpt>
      <trkpt lat="44.07286" lon="6.63304">
        <ele>1859</ele>
      </trkpt>
      <trkpt lat="44.07276" lon="6.63262">
        <ele>1854.1</ele>
      </trkpt>
      <trkpt lat="44.07278" lon="6.63229">
        <ele>1845.3</ele>
      </trkpt>
      <trkpt lat="44.07263" lon="6.63222">
        <ele>1844.3</ele>
      </trkpt>
      <trkpt lat="44.07268" lon="6.63199">
        <ele>1842.7</ele>
      </trkpt>
      <trkpt lat="44.07253" lon="6.63191">
        <ele>1840.9</ele>
      </trkpt>
      <trkpt lat="44.07228" lon="6.63191">
        <ele>1834.4</ele>
      </trkpt>
      <trkpt lat="44.07213" lon="6.63178">
        <ele>1832.6</ele>
      </trkpt>
      <trkpt lat="44.07215" lon="6.6315">
        <ele>1824.5</ele>
      </trkpt>
      <trkpt lat="44.07208" lon="6.63131">
        <ele>1822.6</ele>
      </trkpt>
      <trkpt lat="44.072" lon="6.63124">
        <ele>1821.5</ele>
      </trkpt>
      <trkpt lat="44.07199" lon="6.63107">
        <ele>1820.2</ele>
      </trkpt>
      <trkpt lat="44.07203" lon="6.63082">
        <ele>1815.8</ele>
      </trkpt>
      <trkpt lat="44.07157" lon="6.63061">
        <ele>1805</ele>
      </trkpt>
      <trkpt lat="44.07143" lon="6.63026">
        <ele>1802.8</ele>
      </trkpt>
      <trkpt lat="44.07111" lon="6.63008">
        <ele>1798.9</ele>
      </trkpt>
      <trkpt lat="44.07072" lon="6.63005">
        <ele>1789.2</ele>
      </trkpt>
      <trkpt lat="44.07068" lon="6.62993">
        <ele>1786.7</ele>
      </trkpt>
      <trkpt lat="44.07057" lon="6.62985">
        <ele>1784.3</ele>
      </trkpt>
      <trkpt lat="44.07058" lon="6.62962">
        <ele>1782.6</ele>
      </trkpt>
      <trkpt lat="44.07026" lon="6.62951">
        <ele>1779.7</ele>
      </trkpt>
      <trkpt lat="44.06944" lon="6.62867">
        <ele>1756.1</ele>
      </trkpt>
      <trkpt lat="44.06941" lon="6.62853">
        <ele>1754.7</ele>
      </trkpt>
      <trkpt lat="44.06928" lon="6.6284">
        <ele>1751.3</ele>
      </trkpt>
      <trkpt lat="44.06929" lon="6.62832">
        <ele>1746.8</ele>
      </trkpt>
      <trkpt lat="44.06878" lon="6.62773">
        <ele>1733.5</ele>
      </trkpt>
      <trkpt lat="44.06843" lon="6.6275">
        <ele>1727.2</ele>
      </trkpt>
      <trkpt lat="44.06819" lon="6.6272">
        <ele>1713.6</ele>
      </trkpt>
      <trkpt lat="44.06814" lon="6.62696">
        <ele>1711.4</ele>
      </trkpt>
      <trkpt lat="44.06761" lon="6.62632">
        <ele>1696.3</ele>
      </trkpt>
      <trkpt lat="44.06747" lon="6.6259">
        <ele>1680.6</ele>
      </trkpt>
      <trkpt lat="44.06762" lon="6.62526">
        <ele>1678.1</ele>
      </trkpt>
      <trkpt lat="44.06786" lon="6.62496">
        <ele>1670.2</ele>
      </trkpt>
      <trkpt lat="44.06779" lon="6.62477">
        <ele>1668.6</ele>
      </trkpt>
      <trkpt lat="44.06785" lon="6.62458">
        <ele>1667.7</ele>
      </trkpt>
      <trkpt lat="44.06768" lon="6.62419">
        <ele>1660</ele>
      </trkpt>
      <trkpt lat="44.06746" lon="6.62411">
        <ele>1643.6</ele>
      </trkpt>
      <trkpt lat="44.06735" lon="6.62378">
        <ele>1627.6</ele>
      </trkpt>
      <trkpt lat="44.06739" lon="6.62356">
        <ele>1627.9</ele>
      </trkpt>
      <trkpt lat="44.0673" lon="6.6233">
        <ele>1622.2</ele>
      </trkpt>
      <trkpt lat="44.06715" lon="6.62297">
        <ele>1612.9</ele>
      </trkpt>
      <trkpt lat="44.06717" lon="6.62282">
        <ele>1612.9</ele>
      </trkpt>
      <trkpt lat="44.06713" lon="6.62274">
        <ele>1611.8</ele>
      </trkpt>
      <trkpt lat="44.06721" lon="6.62255">
        <ele>1614.4</ele>
      </trkpt>
      <trkpt lat="44.06713" lon="6.62239">
        <ele>1604.5</ele>
      </trkpt>
      <trkpt lat="44.06728" lon="6.62215">
        <ele>1605</ele>
      </trkpt>
      <trkpt lat="44.06724" lon="6.62206">
        <ele>1603</ele>
      </trkpt>
      <trkpt lat="44.06729" lon="6.62194">
        <ele>1602.5</ele>
      </trkpt>
      <trkpt lat="44.06708" lon="6.6219">
        <ele>1598.8</ele>
      </trkpt>
      <trkpt lat="44.06685" lon="6.62218">
        <ele>1597.1</ele>
      </trkpt>
      <trkpt lat="44.06681" lon="6.6222">
        <ele>1596.6</ele>
      </trkpt>
      <trkpt lat="44.06686" lon="6.62198">
        <ele>1595.4</ele>
      </trkpt>
      <trkpt lat="44.06696" lon="6.62183">
        <ele>1595.5</ele>
      </trkpt>
      <trkpt lat="44.06703" lon="6.62162">
        <ele>1583</ele>
      </trkpt>
      <trkpt lat="44.06709" lon="6.62154">
        <ele>1583.4</ele>
      </trkpt>
      <trkpt lat="44.06713" lon="6.62124">
        <ele>1579.6</ele>
      </trkpt>
      <trkpt lat="44.06728" lon="6.62093">
        <ele>1576.3</ele>
      </trkpt>
      <trkpt lat="44.06769" lon="6.62053">
        <ele>1572</ele>
      </trkpt>
      <trkpt lat="44.06784" lon="6.62025">
        <ele>1570.3</ele>
      </trkpt>
      <trkpt lat="44.0679" lon="6.62008">
        <ele>1570.1</ele>
      </trkpt>
      <trkpt lat="44.06786" lon="6.62">
        <ele>1568.7</ele>
      </trkpt>
      <trkpt lat="44.06783" lon="6.61998">
        <ele>1561</ele>
      </trkpt>
      <trkpt lat="44.06778" lon="6.61986">
        <ele>1559.9</ele>
      </trkpt>
      <trkpt lat="44.06758" lon="6.61965">
        <ele>1557.4</ele>
      </trkpt>
      <trkpt lat="44.06747" lon="6.6196">
        <ele>1538.4</ele>
      </trkpt>
      <trkpt lat="44.06741" lon="6.6195">
        <ele>1537.2</ele>
      </trkpt>
      <trkpt lat="44.06737" lon="6.61946">
        <ele>1536.7</ele>
      </trkpt>
      <trkpt lat="44.0673" lon="6.61925">
        <ele>1536.1</ele>
      </trkpt>
      <trkpt lat="44.06726" lon="6.6189">
        <ele>1526.3</ele>
      </trkpt>
      <trkpt lat="44.06727" lon="6.61868">
        <ele>1525.3</ele>
      </trkpt>
      <trkpt lat="44.06735" lon="6.61852">
        <ele>1528.1</ele>
      </trkpt>
      <trkpt lat="44.06737" lon="6.61829">
        <ele>1528.4</ele>
      </trkpt>
      <trkpt lat="44.06737" lon="6.61828">
        <ele>1528.2</ele>
      </trkpt>
      <trkpt lat="44.06742" lon="6.6181">
        <ele>1524.3</ele>
      </trkpt>
      <trkpt lat="44.06741" lon="6.61805">
        <ele>1522.9</ele>
      </trkpt>
      <trkpt lat="44.06748" lon="6.61792">
        <ele>1521.6</ele>
      </trkpt>
      <trkpt lat="44.06751" lon="6.61787">
        <ele>1540.7</ele>
      </trkpt>
      <trkpt lat="44.06754" lon="6.6178">
        <ele>1539.9</ele>
      </trkpt>
      <trkpt lat="44.06757" lon="6.61777">
        <ele>1539.6</ele>
      </trkpt>
      <trkpt lat="44.06762" lon="6.61771">
        <ele>1539</ele>
      </trkpt>
      <trkpt lat="44.06773" lon="6.61757">
        <ele>1539.4</ele>
      </trkpt>
      <trkpt lat="44.06786" lon="6.61739">
        <ele>1532.3</ele>
      </trkpt>
      <trkpt lat="44.06797" lon="6.61717">
        <ele>1532.3</ele>
      </trkpt>
      <trkpt lat="44.06806" lon="6.6169">
        <ele>1531</ele>
      </trkpt>
      <trkpt lat="44.06814" lon="6.61667">
        <ele>1532.2</ele>
      </trkpt>
      <trkpt lat="44.06831" lon="6.61645">
        <ele>1518.1</ele>
      </trkpt>
      <trkpt lat="44.06845" lon="6.61621">
        <ele>1536.6</ele>
      </trkpt>
      <trkpt lat="44.06869" lon="6.61586">
        <ele>1537.5</ele>
      </trkpt>
      <trkpt lat="44.06884" lon="6.6155">
        <ele>1527.9</ele>
      </trkpt>
      <trkpt lat="44.069" lon="6.6147">
        <ele>1519.9</ele>
      </trkpt>
      <trkpt lat="44.06912" lon="6.6143">
        <ele>1522</ele>
      </trkpt>
      <trkpt lat="44.06913" lon="6.6141">
        <ele>1521.6</ele>
      </trkpt>
      <trkpt lat="44.06911" lon="6.61399">
        <ele>1515.6</ele>
      </trkpt>
      <trkpt lat="44.06911" lon="6.61383">
        <ele>1510.9</ele>
      </trkpt>
      <trkpt lat="44.06913" lon="6.61371">
        <ele>1509.1</ele>
      </trkpt>
      <trkpt lat="44.06919" lon="6.61363">
        <ele>1520.9</ele>
      </trkpt>
      <trkpt lat="44.0693" lon="6.61355">
        <ele>1519.9</ele>
      </trkpt>
      <trkpt lat="44.06957" lon="6.61345">
        <ele>1522</ele>
      </trkpt>
      <trkpt lat="44.06974" lon="6.61344">
        <ele>1522.5</ele>
      </trkpt>
      <trkpt lat="44.06997" lon="6.61346">
        <ele>1521.6</ele>
      </trkpt>
      <trkpt lat="44.07019" lon="6.61357">
        <ele>1534.6</ele>
      </trkpt>
      <trkpt lat="44.07026" lon="6.61359">
        <ele>1536.2</ele>
      </trkpt>
      <trkpt lat="44.07031" lon="6.61358">
        <ele>1536.8</ele>
      </trkpt>
      <trkpt lat="44.07034" lon="6.61353">
        <ele>1536.5</ele>
      </trkpt>
      <trkpt lat="44.07042" lon="6.61323">
        <ele>1515.6</ele>
      </trkpt>
      <trkpt lat="44.07052" lon="6.6131">
        <ele>1515.2</ele>
      </trkpt>
      <trkpt lat="44.07068" lon="6.61296">
        <ele>1514.1</ele>
      </trkpt>
      <trkpt lat="44.07094" lon="6.61277">
        <ele>1521.4</ele>
      </trkpt>
      <trkpt lat="44.07123" lon="6.61261">
        <ele>1522.8</ele>
      </trkpt>
      <trkpt lat="44.07239" lon="6.612">
        <ele>1516.7</ele>
      </trkpt>
      <trkpt lat="44.07289" lon="6.61173">
        <ele>1524.6</ele>
      </trkpt>
      <trkpt lat="44.07299" lon="6.61166">
        <ele>1521.9</ele>
      </trkpt>
      <trkpt lat="44.07309" lon="6.61152">
        <ele>1523.2</ele>
      </trkpt>
      <trkpt lat="44.07316" lon="6.61134">
        <ele>1523.7</ele>
      </trkpt>
      <trkpt lat="44.0732" lon="6.61121">
        <ele>1524.5</ele>
      </trkpt>
      <trkpt lat="44.0732" lon="6.61108">
        <ele>1525.5</ele>
      </trkpt>
      <trkpt lat="44.07319" lon="6.61099">
        <ele>1526.3</ele>
      </trkpt>
      <trkpt lat="44.07315" lon="6.61093">
        <ele>1526.3</ele>
      </trkpt>
      <trkpt lat="44.07307" lon="6.61091">
        <ele>1525.1</ele>
      </trkpt>
      <trkpt lat="44.07287" lon="6.61093">
        <ele>1522.4</ele>
      </trkpt>
      <trkpt lat="44.07245" lon="6.61076">
        <ele>1520.4</ele>
      </trkpt>
      <trkpt lat="44.07231" lon="6.61068">
        <ele>1522.8</ele>
      </trkpt>
      <trkpt lat="44.07184" lon="6.61022">
        <ele>1526</ele>
      </trkpt>
      <trkpt lat="44.07158" lon="6.61001">
        <ele>1521.7</ele>
      </trkpt>
      <trkpt lat="44.07126" lon="6.60989">
        <ele>1522.3</ele>
      </trkpt>
      <trkpt lat="44.07087" lon="6.60983">
        <ele>1514.1</ele>
      </trkpt>
      <trkpt lat="44.07069" lon="6.60975">
        <ele>1491.4</ele>
      </trkpt>
      <trkpt lat="44.0706" lon="6.60966">
        <ele>1489</ele>
      </trkpt>
      <trkpt lat="44.07057" lon="6.60958">
        <ele>1488.8</ele>
      </trkpt>
      <trkpt lat="44.07058" lon="6.60944">
        <ele>1491.3</ele>
      </trkpt>
      <trkpt lat="44.07088" lon="6.60894">
        <ele>1528.6</ele>
      </trkpt>
      <trkpt lat="44.07092" lon="6.60883">
        <ele>1530.8</ele>
      </trkpt>
      <trkpt lat="44.07098" lon="6.60849">
        <ele>1530.2</ele>
      </trkpt>
      <trkpt lat="44.071" lon="6.60829">
        <ele>1534.4</ele>
      </trkpt>
      <trkpt lat="44.07099" lon="6.60821">
        <ele>1535.8</ele>
      </trkpt>
      <trkpt lat="44.07096" lon="6.60811">
        <ele>1538</ele>
      </trkpt>
      <trkpt lat="44.07082" lon="6.60781">
        <ele>1516.3</ele>
      </trkpt>
      <trkpt lat="44.07068" lon="6.60756">
        <ele>1521.3</ele>
      </trkpt>
      <trkpt lat="44.07045" lon="6.60731">
        <ele>1524.7</ele>
      </trkpt>
      <trkpt lat="44.07025" lon="6.60681">
        <ele>1526</ele>
      </trkpt>
      <trkpt lat="44.07019" lon="6.60674">
        <ele>1525.1</ele>
      </trkpt>
      <trkpt lat="44.07009" lon="6.60672">
        <ele>1523.5</ele>
      </trkpt>
      <trkpt lat="44.06966" lon="6.60677">
        <ele>1499.3</ele>
      </trkpt>
      <trkpt lat="44.06955" lon="6.60673">
        <ele>1496.8</ele>
      </trkpt>
      <trkpt lat="44.06939" lon="6.60655">
        <ele>1510.9</ele>
      </trkpt>
      <trkpt lat="44.06917" lon="6.60611">
        <ele>1518.6</ele>
      </trkpt>
      <trkpt lat="44.06908" lon="6.60598">
        <ele>1506.1</ele>
      </trkpt>
      <trkpt lat="44.06897" lon="6.6059">
        <ele>1504.1</ele>
      </trkpt>
      <trkpt lat="44.06797" lon="6.60531">
        <ele>1501.8</ele>
      </trkpt>
      <trkpt lat="44.06779" lon="6.60523">
        <ele>1500.9</ele>
      </trkpt>
      <trkpt lat="44.06721" lon="6.60506">
        <ele>1491.3</ele>
      </trkpt>
      <trkpt lat="44.06695" lon="6.60501">
        <ele>1490.1</ele>
      </trkpt>
      <trkpt lat="44.06602" lon="6.60497">
        <ele>1494.4</ele>
      </trkpt>
      <trkpt lat="44.06585" lon="6.60495">
        <ele>1486.1</ele>
      </trkpt>
      <trkpt lat="44.06567" lon="6.60489">
        <ele>1489</ele>
      </trkpt>
      <trkpt lat="44.06534" lon="6.60473">
        <ele>1492.4</ele>
      </trkpt>
      <trkpt lat="44.06503" lon="6.60463">
        <ele>1492.8</ele>
      </trkpt>
      <trkpt lat="44.06471" lon="6.60461">
        <ele>1490.9</ele>
      </trkpt>
      <trkpt lat="44.06439" lon="6.60471">
        <ele>1489.2</ele>
      </trkpt>
      <trkpt lat="44.06379" lon="6.60499">
        <ele>1489</ele>
      </trkpt>
      <trkpt lat="44.06321" lon="6.60503">
        <ele>1477.4</ele>
      </trkpt>
      <trkpt lat="44.06272" lon="6.60504">
        <ele>1478.4</ele>
      </trkpt>
      <trkpt lat="44.06257" lon="6.60511">
        <ele>1481.7</ele>
      </trkpt>
      <trkpt lat="44.06234" lon="6.60538">
        <ele>1483.3</ele>
      </trkpt>
      <trkpt lat="44.06191" lon="6.60576">
        <ele>1482.4</ele>
      </trkpt>
      <trkpt lat="44.06161" lon="6.60608">
        <ele>1478.3</ele>
      </trkpt>
      <trkpt lat="44.06127" lon="6.60649">
        <ele>1474.4</ele>
      </trkpt>
      <trkpt lat="44.06113" lon="6.60665">
        <ele>1474.7</ele>
      </trkpt>
      <trkpt lat="44.06092" lon="6.6069">
        <ele>1459.1</ele>
      </trkpt>
      <trkpt lat="44.06053" lon="6.60726">
        <ele>1463.4</ele>
      </trkpt>
      <trkpt lat="44.06037" lon="6.60736">
        <ele>1463</ele>
      </trkpt>
      <trkpt lat="44.05888" lon="6.60767">
        <ele>1438.2</ele>
      </trkpt>
      <trkpt lat="44.05865" lon="6.60766">
        <ele>1435.9</ele>
      </trkpt>
      <trkpt lat="44.05827" lon="6.60725">
        <ele>1453.2</ele>
      </trkpt>
      <trkpt lat="44.05808" lon="6.60715">
        <ele>1456.1</ele>
      </trkpt>
      <trkpt lat="44.0578" lon="6.60719">
        <ele>1454.5</ele>
      </trkpt>
      <trkpt lat="44.05751" lon="6.60739">
        <ele>1444.4</ele>
      </trkpt>
      <trkpt lat="44.05723" lon="6.60746">
        <ele>1449.2</ele>
      </trkpt>
      <trkpt lat="44.05633" lon="6.60756">
        <ele>1430.3</ele>
      </trkpt>
      <trkpt lat="44.05531" lon="6.60662">
        <ele>1456.6</ele>
      </trkpt>
      <trkpt lat="44.05483" lon="6.6064">
        <ele>1439</ele>
      </trkpt>
      <trkpt lat="44.05468" lon="6.60629">
        <ele>1438.3</ele>
      </trkpt>
      <trkpt lat="44.05447" lon="6.60601">
        <ele>1439</ele>
      </trkpt>
      <trkpt lat="44.05409" lon="6.60564">
        <ele>1434.2</ele>
      </trkpt>
      <trkpt lat="44.05362" lon="6.60491">
        <ele>1448.9</ele>
      </trkpt>
      <trkpt lat="44.05347" lon="6.60474">
        <ele>1448.1</ele>
      </trkpt>
      <trkpt lat="44.05304" lon="6.60443">
        <ele>1429</ele>
      </trkpt>
      <trkpt lat="44.0529" lon="6.60429">
        <ele>1427.2</ele>
      </trkpt>
      <trkpt lat="44.05279" lon="6.6041">
        <ele>1438</ele>
      </trkpt>
      <trkpt lat="44.05275" lon="6.60397">
        <ele>1438.6</ele>
      </trkpt>
      <trkpt lat="44.05273" lon="6.60375">
        <ele>1442</ele>
      </trkpt>
      <trkpt lat="44.05269" lon="6.60366">
        <ele>1442.6</ele>
      </trkpt>
      <trkpt lat="44.05262" lon="6.60358">
        <ele>1442.5</ele>
      </trkpt>
      <trkpt lat="44.05198" lon="6.60343">
        <ele>1423.7</ele>
      </trkpt>
      <trkpt lat="44.05184" lon="6.60329">
        <ele>1429.9</ele>
      </trkpt>
      <trkpt lat="44.05154" lon="6.60277">
        <ele>1430.2</ele>
      </trkpt>
      <trkpt lat="44.05132" lon="6.60252">
        <ele>1430</ele>
      </trkpt>
      <trkpt lat="44.05115" lon="6.60229">
        <ele>1433.2</ele>
      </trkpt>
      <trkpt lat="44.05098" lon="6.6018">
        <ele>1431.4</ele>
      </trkpt>
      <trkpt lat="44.05093" lon="6.60174">
        <ele>1429.8</ele>
      </trkpt>
      <trkpt lat="44.05083" lon="6.60175">
        <ele>1429.1</ele>
      </trkpt>
      <trkpt lat="44.05073" lon="6.60181">
        <ele>1431.6</ele>
      </trkpt>
      <trkpt lat="44.05057" lon="6.60148">
        <ele>1431.6</ele>
      </trkpt>
      <trkpt lat="44.0503" lon="6.60104">
        <ele>1432.6</ele>
      </trkpt>
      <trkpt lat="44.05008" lon="6.60065">
        <ele>1431</ele>
      </trkpt>
      <trkpt lat="44.04993" lon="6.60023">
        <ele>1435.1</ele>
      </trkpt>
      <trkpt lat="44.04985" lon="6.59982">
        <ele>1431.7</ele>
      </trkpt>
      <trkpt lat="44.04976" lon="6.59941">
        <ele>1432.2</ele>
      </trkpt>
      <trkpt lat="44.04959" lon="6.59866">
        <ele>1430.9</ele>
      </trkpt>
      <trkpt lat="44.04939" lon="6.59768">
        <ele>1429.3</ele>
      </trkpt>
      <trkpt lat="44.04898" lon="6.59633">
        <ele>1428.7</ele>
      </trkpt>
      <trkpt lat="44.04884" lon="6.59602">
        <ele>1429.2</ele>
      </trkpt>
      <trkpt lat="44.04874" lon="6.5958">
        <ele>1432</ele>
      </trkpt>
      <trkpt lat="44.0485" lon="6.59551">
        <ele>1432.5</ele>
      </trkpt>
      <trkpt lat="44.04811" lon="6.59505">
        <ele>1431.5</ele>
      </trkpt>
      <trkpt lat="44.04806" lon="6.59499">
        <ele>1434.7</ele>
      </trkpt>
      <trkpt lat="44.04774" lon="6.59459">
        <ele>1435.1</ele>
      </trkpt>
      <trkpt lat="44.04745" lon="6.59422">
        <ele>1434.2</ele>
      </trkpt>
    </trkseg>
  </trk>
</gpx>